[[{"header":{"parameterUnit":"m.s-1","parameterCategory":1,"la1":30.6,"la2":28.766,"lo1":-90.7593,"lo2":-88.6598,"dx":0.0162,"dy":0.0183,"nx":116,"ny":114,"refTime":"2022-12-04T18:00:00:Z","depth":0,"parameterNumber":2,"parameterNumberName":"U-component_of_WINDS"},"data":[0.0,0.0,0.0,0.0,0.0,0.0,0.0,0.0,0.0,0.0,0.0,0.0,0.0,0.0,0.0,0.0,0.0,0.0,0.0,0.0,0.0,0.0,0.0,0.0,0.0,0.0,0.0,0.0,0.0,0.0,0.0,0.0,0.0,0.0,0.0,0.0,0.0,0.0,0.0,0.0,0.0,0.0,0.0,0.0,0.0,0.0,0.0,0.0,0.0,0.0,0.0,0.0,0.0,0.0,0.0,0.0,0.0,0.0,0.0,0.0,0.0,0.0,0.0,0.0,0.0,0.0,0.0,0.0,0.0,0.0,0.0,0.0,0.0,0.0,0.0,0.0,0.0,0.0,0.0,0.0,0.0,0.0,0.0,0.0,0.0,0.0,0.0,0.0,0.0,0.0,0.0,0.0,0.0,0.0,0.0,0.0,0.0,0.0,0.0,0.0,0.0,0.0,0.0,0.0,0.0,0.0,0.0,0.0,0.0,0.0,0.0,0.0,0.0,0.0,0.0,0.0,0.0,0.0,0.0,0.0,0.0,0.0,0.0,0.0,0.0,0.0,0.0,0.0,0.0,0.0,0.0,0.0,0.0,0.0,0.0,0.0,0.0,0.0,0.0,0.0,0.0,0.0,0.0,0.0,0.0,0.0,0.0,0.0,0.0,0.0,0.0,0.0,0.0,0.0,0.0,0.0,0.0,0.0,0.0,0.0,0.0,0.0,0.0,0.0,0.0,0.0,0.0,0.0,0.0,0.0,0.0,0.0,0.0,0.0,0.0,0.0,0.0,0.0,0.0,0.0,0.0,0.0,0.0,0.0,0.0,0.0,0.0,0.0,0.0,0.0,0.0,0.0,0.0,0.0,0.0,0.0,0.0,0.0,0.0,0.0,0.0,0.0,0.0,0.0,0.0,0.0,0.0,0.0,0.0,0.0,0.0,0.0,0.0,0.0,0.0,0.0,0.0,0.0,0.0,0.0,0.0,0.0,0.0,0.0,0.0,0.0,0.0,0.0,0.0,0.0,0.0,0.0,0.0,0.0,0.0,0.0,0.0,0.0,0.0,0.0,0.0,0.0,0.0,0.0,0.0,0.0,0.0,0.0,0.0,0.0,0.0,0.0,0.0,0.0,0.0,0.0,0.0,0.0,0.0,0.0,0.0,0.0,0.0,0.0,0.0,0.0,0.0,0.0,0.0,0.0,0.0,0.0,0.0,0.0,0.0,0.0,0.0,0.0,0.0,0.0,0.0,0.0,0.0,0.0,0.0,0.0,0.0,0.0,0.0,0.0,0.0,0.0,0.0,0.0,0.0,0.0,0.0,0.0,0.0,0.0,0.0,0.0,0.0,0.0,0.0,0.0,0.0,0.0,0.0,0.0,0.0,0.0,0.0,0.0,0.0,0.0,0.0,0.0,0.0,0.0,0.0,0.0,0.0,0.0,0.0,0.0,0.0,0.0,0.0,0.0,0.0,0.0,0.0,0.0,0.0,0.0,0.0,0.0,0.0,0.0,0.0,0.0,0.0,0.0,0.0,0.0,0.0,0.0,0.0,0.0,0.0,0.0,0.0,0.0,0.0,0.0,0.0,0.0,0.0,0.0,0.0,0.0,0.0,0.0,0.0,0.0,0.0,0.0,0.0,0.0,0.0,0.0,0.0,0.0,0.0,0.0,0.0,0.0,0.0,0.0,0.0,0.0,0.0,0.0,0.0,0.0,0.0,0.0,0.0,0.0,0.0,0.0,0.0,0.0,0.0,0.0,0.0,0.0,0.0,0.0,0.0,0.0,0.0,0.0,0.0,0.0,0.0,0.0,0.0,0.0,0.0,0.0,0.0,0.0,0.0,0.0,0.0,0.0,0.0,0.0,0.0,0.0,0.0,0.0,0.0,0.0,0.0,0.0,0.0,0.0,0.0,0.0,0.0,0.0,0.0,0.0,0.0,0.0,0.0,0.0,0.0,0.0,0.0,0.0,0.0,0.0,0.0,0.0,0.0,0.0,0.0,0.0,0.0,0.0,0.0,0.0,0.0,0.0,0.0,0.0,0.0,0.0,0.0,0.0,0.0,0.0,0.0,0.0,0.0,0.0,0.0,0.0,0.0,0.0,0.0,0.0,0.0,0.0,0.0,0.0,0.0,0.0,0.0,0.0,0.0,0.0,0.0,0.0,0.0,0.0,0.0,0.0,0.0,0.0,0.0,0.0,0.0,0.0,0.0,0.0,0.0,0.0,0.0,0.0,0.0,0.0,0.0,0.0,0.0,0.0,0.0,0.0,0.0,0.0,0.0,0.0,0.0,0.0,0.0,0.0,0.0,0.0,0.0,0.0,0.0,0.0,0.0,0.0,0.0,0.0,0.0,0.0,0.0,0.0,0.0,0.0,0.0,0.0,0.0,0.0,0.0,0.0,0.0,0.0,0.0,0.0,0.0,0.0,0.0,0.0,0.0,0.0,0.0,0.0,0.0,0.0,0.0,0.0,0.0,0.0,0.0,0.0,0.0,0.0,0.0,0.0,0.0,0.0,0.0,0.0,0.0,0.0,0.0,0.0,0.0,0.0,0.0,0.0,0.0,0.0,0.0,0.0,0.0,0.0,0.0,0.0,0.0,0.0,0.0,0.0,0.0,0.0,0.0,0.0,0.0,0.0,0.0,0.0,0.0,0.0,0.0,0.0,0.0,0.0,0.0,0.0,0.0,0.0,0.0,0.0,0.0,0.0,0.0,0.0,0.0,0.0,0.0,0.0,0.0,0.0,0.0,0.0,0.0,0.0,0.0,0.0,0.0,0.0,0.0,0.0,0.0,0.0,0.0,0.0,0.0,0.0,0.0,0.0,0.0,0.0,0.0,0.0,0.0,0.0,0.0,0.0,0.0,0.0,0.0,0.0,0.0,0.0,0.0,0.0,0.0,0.0,0.0,0.0,0.0,0.0,0.0,0.0,0.0,0.0,0.0,0.0,0.0,0.0,0.0,0.0,0.0,0.0,0.0,0.0,0.0,0.0,0.0,0.0,0.0,0.0,0.0,0.0,0.0,0.0,0.0,0.0,0.0,0.0,0.0,0.0,0.0,0.0,0.0,0.0,0.0,0.0,0.0,0.0,0.0,0.0,0.0,0.0,0.0,0.0,0.0,0.0,0.0,0.0,0.0,0.0,0.0,0.0,0.0,0.0,0.0,0.0,0.0,0.0,0.0,0.0,0.0,0.0,0.0,0.0,0.0,0.0,0.0,0.0,0.0,0.0,0.0,0.0,0.0,0.0,0.0,0.0,0.0,0.0,0.0,0.0,0.0,0.0,0.0,0.0,0.0,0.0,0.0,0.0,0.0,0.0,0.0,0.0,0.0,0.0,0.0,0.0,0.0,0.0,0.0,0.0,0.0,0.0,0.0,0.0,0.0,0.0,0.0,0.0,0.0,0.0,0.0,0.0,0.0,0.0,0.0,0.0,0.0,0.0,0.0,0.0,0.0,0.0,0.0,0.0,0.0,0.0,0.0,0.0,0.0,0.0,0.0,0.0,0.0,0.0,0.0,0.0,0.0,0.0,0.0,0.0,0.0,0.0,0.0,0.0,0.0,0.0,0.0,0.0,0.0,0.0,0.0,0.0,0.0,0.0,0.0,0.0,0.0,0.0,0.0,0.0,0.0,0.0,0.0,0.0,0.0,0.0,0.0,0.0,0.0,0.0,0.0,0.0,0.0,0.0,0.0,0.0,0.0,0.0,0.0,0.0,0.0,0.0,0.0,0.0,0.0,0.0,0.0,0.0,0.0,0.0,0.0,0.0,0.0,0.0,0.0,0.0,0.0,0.0,0.0,0.0,0.0,0.0,0.0,0.0,0.0,0.0,0.0,0.0,0.0,0.0,0.0,0.0,0.0,0.0,0.0,0.0,0.0,0.0,0.0,0.0,0.0,0.0,0.0,0.0,0.0,0.0,0.0,0.0,0.0,0.0,0.0,0.0,0.0,0.0,0.0,0.0,0.0,0.0,0.0,0.0,0.0,0.0,0.0,0.0,0.0,0.0,0.0,0.0,0.0,0.0,0.0,0.0,0.0,0.0,0.0,0.0,0.0,0.0,0.0,0.0,0.0,0.0,0.0,0.0,0.0,0.0,0.0,0.0,0.0,0.0,0.0,0.0,0.0,0.0,0.0,0.0,0.0,0.0,0.0,0.0,0.0,0.0,0.0,0.0,0.0,0.0,0.0,0.0,0.0,0.0,0.0,0.0,0.0,0.0,0.0,0.0,0.0,0.0,0.0,0.0,0.0,0.0,0.0,0.0,0.0,0.0,0.0,0.0,0.0,0.0,0.0,0.0,0.0,0.0,0.0,0.0,0.0,0.0,0.0,0.0,0.0,0.0,0.0,0.0,0.0,0.0,0.0,0.0,0.0,0.0,0.0,0.0,0.0,0.0,0.0,0.0,0.0,0.0,0.0,0.0,0.0,0.0,0.0,0.0,0.0,0.0,0.0,0.0,0.0,0.0,0.0,0.0,0.0,0.0,0.0,0.0,0.0,0.0,0.0,0.0,0.0,0.0,0.0,0.0,0.0,0.0,0.0,0.0,0.0,0.0,0.0,0.0,0.0,0.0,0.0,0.0,0.0,0.0,0.0,0.0,0.0,0.0,0.0,0.0,0.0,0.0,0.0,0.0,0.0,0.0,0.0,0.0,0.0,0.0,0.0,0.0,0.0,0.0,0.0,0.0,0.0,0.0,0.0,0.0,0.0,0.0,0.0,0.0,0.0,0.0,0.0,0.0,0.0,0.0,0.0,0.0,0.0,0.0,0.0,0.0,0.0,0.0,0.0,0.0,0.0,0.0,0.0,0.0,0.0,0.0,0.0,0.0,0.0,0.0,0.0,0.0,0.0,0.0,0.0,0.0,0.0,0.0,0.0,0.0,0.0,0.0,0.0,0.0,0.0,0.0,0.0,0.0,0.0,0.0,0.0,0.0,0.0,0.0,0.0,0.0,0.0,0.0,0.0,0.0,0.0,0.0,0.0,0.0,0.0,0.0,0.0,0.0,0.0,0.0,0.0,0.0,0.0,0.0,0.0,0.0,0.0,0.0,0.0,0.0,0.0,0.0,0.0,0.0,0.0,0.0,0.0,0.0,0.0,0.0,0.0,0.0,0.0,0.0,0.0,0.0,0.0,0.0,0.0,0.0,0.0,0.0,0.0,0.0,0.0,0.0,0.0,0.0,0.0,0.0,0.0,0.0,0.0,0.0,0.0,0.0,0.0,0.0,0.0,0.0,0.0,0.0,0.0,0.0,0.0,0.0,0.0,0.0,0.0,0.0,0.0,0.0,0.0,0.0,0.0,0.0,0.0,0.0,0.0,0.0,0.0,0.0,0.0,0.0,0.0,0.0,0.0,0.0,0.0,0.0,0.0,0.0,0.0,0.0,0.0,0.0,0.0,0.0,0.0,0.0,0.0,0.0,0.0,0.0,0.0,0.0,0.0,0.0,0.0,0.0,0.0,0.0,0.0,0.0,0.0,0.0,0.0,0.0,0.0,0.0,0.0,0.0,0.0,0.0,0.0,0.0,0.0,0.0,0.0,0.0,0.0,0.0,0.0,0.0,0.0,0.0,0.0,0.0,0.0,0.0,0.0,0.0,0.0,0.0,0.0,0.0,0.0,0.0,0.0,0.0,0.0,0.0,0.0,0.0,0.0,0.0,0.0,0.0,0.0,0.0,0.0,0.0,0.0,0.0,0.0,0.0,0.0,0.0,0.0,0.0,0.0,0.0,0.0,0.0,0.0,0.0,0.0,0.0,0.0,0.0,0.0,0.0,0.0,0.0,0.0,0.0,0.0,0.0,0.0,0.0,0.0,0.0,0.0,0.0,0.0,0.0,0.0,0.0,0.0,0.0,0.0,0.0,0.0,0.0,0.0,0.0,0.0,0.0,0.0,0.0,0.0,0.0,0.0,0.0,0.0,0.0,0.0,0.0,0.0,0.0,0.0,0.0,0.0,0.0,0.0,0.0,0.0,0.0,0.0,0.0,0.0,0.0,0.0,0.0,0.0,0.0,0.0,0.0,0.0,0.0,0.0,0.0,0.0,0.0,0.0,0.0,0.0,0.0,0.0,0.0,0.0,0.0,0.0,0.0,0.0,0.0,-0.1247,0.0,0.0,0.0,0.0,0.0,0.0,0.0,0.0,0.0,0.0,0.0,0.0,0.0,0.0,0.0,0.0,0.0,0.0,0.0,0.0,0.0,0.0,0.0,0.0,1.2568,1.2897,1.3241,1.2957,0.0,0.0,0.0,0.0,0.0,0.0,0.0,0.0,0.0,1.2641,1.2595,1.2925,1.3257,1.3562,1.331,1.2732,1.1891,0.0,0.0,0.0,0.0,0.0,0.0,0.0,0.0,0.0,0.0,0.0,0.0,0.0,0.0,0.0,0.0,0.0,0.0,0.0,0.0,0.0,0.0,0.0,0.0,0.0,0.0,0.0,0.0,0.0,0.0,0.0,0.0,0.0,0.0,0.0,0.0,0.0,0.0,0.0,0.0,0.0,0.0,0.0,0.0,0.0,0.0,0.0,0.0,0.0,0.0,0.0,0.0,0.0,0.0,0.0,0.0,0.0,0.0,0.0,0.0,0.0,0.0,0.0,0.0,0.0,0.0,0.0,0.0,0.0,0.0,0.0,-0.1047,0.0,0.0,0.0,0.0,0.0,0.0,0.0,0.0,0.0,0.0,0.0,0.0,0.0,0.0,0.0,0.0,0.0,0.0,0.0,0.0,0.0,1.2846,1.2966,1.3466,1.3855,1.3974,1.387,1.3855,1.3974,1.387,0.0,0.0,0.0,0.0,1.3163,1.3135,1.3081,1.2896,1.3418,1.3973,1.4596,1.447,1.3946,1.306,1.2342,0.0,0.0,0.0,0.0,0.0,0.0,0.0,0.0,0.0,0.0,0.0,0.0,0.0,0.0,0.0,0.0,0.0,0.0,0.0,0.0,0.0,0.0,0.0,0.0,0.0,0.0,0.0,0.0,0.0,0.0,0.0,0.0,0.0,0.0,0.0,0.0,0.0,0.0,0.0,0.0,0.0,0.0,0.0,0.0,0.0,0.0,0.0,0.0,0.0,0.0,0.0,0.0,0.0,0.0,0.0,0.0,0.0,0.0,0.0,0.0,0.0,0.0,0.0,-0.3756,-0.4463,-0.585,-0.5874,-0.5295,-0.4186,-0.2062,-0.11,-0.131,-0.4823,0.0,0.0,0.0,0.0,0.0,0.0,0.0,0.0,0.0,0.0,0.0,0.0,0.0,0.0,0.0,0.0,0.0,0.0,0.0,1.3026,1.36,1.375,1.4034,1.4618,1.4139,1.4049,1.4618,1.4124,0.0,0.0,0.0,1.3164,1.294,1.2953,1.3192,1.3728,1.4147,1.4575,1.5013,1.431,1.365,1.3094,1.2992,1.2436,1.1564,0.0,0.0,0.0,0.0,0.0,0.0,0.0,0.0,0.0,0.0,0.0,0.0,0.0,0.0,0.0,0.0,0.0,0.0,0.0,0.0,0.0,0.0,0.0,0.0,0.0,0.0,0.0,0.0,0.0,0.0,0.0,0.0,0.0,0.0,0.0,0.0,0.0,0.0,0.0,0.0,0.0,0.3294,0.0634,0.0,0.0,0.0,0.0,0.0,0.0,0.0,0.0,0.0,0.0,0.0,0.0,0.0,-0.3409,-0.4119,-0.5173,-0.515,-0.3889,-0.5211,-0.5972,-0.6204,-0.6252,-0.6153,-0.5992,-0.5604,0.0,-0.5234,-0.5827,0.0,0.0,0.0,0.0,0.0,0.0,0.0,0.0,0.0,0.0,0.0,0.0,0.0,0.0,0.0,0.0,0.0,0.0,0.0,0.0,0.0,1.4692,1.5049,1.5349,1.5109,1.5064,1.5349,1.4829,0.0,0.0,1.4184,1.3899,1.379,1.3803,1.4051,1.4564,1.4752,1.4937,1.5104,1.4501,1.3815,1.3094,1.3094,1.2448,1.1319,1.084,0.0,0.0,0.0,0.0,0.0,0.0,0.0,0.0,0.0,0.0,0.0,0.0,0.0,0.0,0.0,0.0,0.0,0.0,0.0,0.0,0.0,0.0,0.0,0.0,0.0,0.0,0.0,0.0,0.0,0.0,0.0,0.0,0.0,0.0,0.0,0.0,0.0,0.0,0.0,0.3015,0.144,-0.0064,-0.1896,-0.3255,0.0,0.0,0.0,0.0,0.0,0.0,0.0,0.0,0.0,-0.4535,-0.3797,-0.342,-0.3426,-0.5228,-0.5818,-0.5267,-0.5957,-0.627,-0.6263,-0.6325,-0.6278,-0.6278,-0.6278,-0.6273,-0.6146,-0.6153,-0.6149,-0.6067,0.0,0.0,0.0,0.0,-0.5397,-0.4639,0.0,0.0,0.0,0.0,0.0,0.0,0.0,0.0,0.0,0.0,0.0,0.0,1.4809,1.5442,1.5799,1.5799,1.5799,1.5799,1.5799,1.5477,1.5359,1.5448,1.4845,1.4406,1.4181,1.4278,1.4533,1.4937,1.4845,1.4783,1.4783,1.4374,1.3795,1.3132,1.2879,1.2176,1.1169,1.0687,1.0467,1.0399,0.0,0.0,0.0,0.0,0.0,0.0,0.0,0.0,0.0,0.0,0.0,0.0,0.0,0.0,0.0,0.0,0.0,0.0,0.0,0.0,0.0,0.0,0.0,0.0,0.0,0.0,0.0,0.0,0.0,0.0,0.0,0.0,0.0,0.0,0.0,0.0,0.0,0.1505,0.0646,-0.0842,-0.3588,-0.4864,0.0,0.0,0.0,0.0,0.0,0.0,-0.502,-0.4588,-0.4442,-0.452,-0.4485,-0.4325,-0.3889,-0.5517,-0.628,-0.6335,-0.6297,-0.6271,-0.6338,-0.6338,-0.6338,-0.6338,-0.6338,-0.6338,-0.6338,-0.6271,-0.6274,-0.6274,-0.6268,-0.6271,-0.6281,-0.6288,-0.5257,-0.3999,0.0,0.0,0.0,0.0,0.0,0.0,0.0,0.0,0.0,0.0,0.0,1.4357,1.5019,1.5521,1.5799,1.5799,1.5799,1.5799,1.5799,1.577,1.5418,1.4596,1.4533,1.4117,1.3301,1.3715,1.4117,1.4533,1.4149,1.3967,1.3967,1.3493,1.322,1.3163,1.2246,1.1847,1.1737,1.1207,1.0943,1.0819,0.9323,0.0,0.0,0.0,0.0,0.0,0.0,0.0,0.0,0.0,0.0,0.0,0.0,0.0,0.0,0.0,0.0,0.0,0.0,0.0,0.0,0.0,0.0,0.0,0.0,0.0,0.0,0.0,0.0,0.0,0.0,0.0,0.0,0.0,0.0,0.0,0.0,0.0,0.0,-0.2063,-0.4252,0.0,0.0,0.0,0.0,-0.3747,-0.4872,-0.5089,-0.4037,-0.5003,-0.5817,-0.614,-0.6145,-0.6139,-0.6119,-0.627,-0.6264,-0.6328,-0.6335,-0.6338,-0.6338,-0.6338,-0.6338,-0.6338,-0.6338,-0.6338,-0.6338,-0.6338,-0.6264,-0.6264,-0.6274,-0.6278,-0.6281,-0.6315,-0.6247,-0.5544,0.0,0.0,0.0,1.0097,1.0173,1.0365,1.0716,1.0857,1.1393,1.2713,1.3114,1.3739,1.4972,1.5255,1.5477,1.577,1.5799,1.5799,1.5799,1.5255,1.4937,1.4876,1.4084,1.3769,1.4019,1.4214,1.447,1.4876,1.456,1.4422,1.4422,1.433,1.3888,1.3186,1.2862,1.2316,1.1634,1.0853,1.0534,1.0457,0.9597,0.8999,0.0,0.0,0.0,0.0,0.0,0.0,0.0,0.0,0.0,0.0,0.0,0.0,0.0,0.0,0.0,0.0,0.0,0.0,0.0,0.0,0.0,0.0,0.0,0.0,0.0,0.0,0.0,0.0,0.0,0.0,0.0,0.0,0.0,0.0,0.0,0.0,0.0,-0.1003,-0.3569,0.0,-0.4295,-0.4913,-0.5292,-0.4959,-0.5438,-0.558,-0.5299,-0.5812,-0.6117,-0.612,-0.6197,-0.6273,-0.6263,-0.6318,-0.6264,-0.6338,-0.6338,-0.6338,-0.6338,-0.6338,-0.6338,-0.6345,-0.6359,-0.6396,-0.6407,-0.6505,-0.643,-0.6349,-0.6366,-0.5521,-0.4248,-0.4238,-0.3366,-0.2058,0.0,0.0,0.0,0.9905,0.9912,1.0052,1.0407,1.0563,1.1113,1.2386,1.2756,1.3353,1.4571,1.4937,1.5225,1.5551,1.5712,1.5741,1.558,1.5013,1.469,1.469,1.3735,1.3547,1.4278,1.4351,1.4544,1.4966,1.4831,1.4777,1.4754,1.465,1.4173,1.3436,1.3054,1.251,1.1774,1.103,1.0635,1.0439,0.9771,0.9279,0.8878,0.0,0.0,0.0,0.0,0.0,0.0,0.0,0.0,0.0,0.0,0.0,0.0,0.0,0.0,0.0,0.0,0.0,0.0,0.0,0.0,0.0,0.0,0.0,0.0,0.0,0.0,0.0,0.0,0.0,0.0,0.0,0.0,0.0,0.0,0.0,-0.2902,-0.1138,-0.3565,-0.5062,-0.4292,-0.502,-0.5576,-0.5672,-0.5775,-0.5875,-0.5961,-0.619,-0.627,-0.6108,-0.6207,-0.649,-0.6795,-0.649,-0.649,-0.6795,-0.649,-0.6338,-0.6342,-0.6312,-0.6332,-0.6339,-0.6485,-0.6549,-0.6556,-0.6658,-0.6586,-0.642,-0.6515,-0.565,-0.4183,-0.258,-0.1174,-0.0,0.0,0.0,0.9931,0.9905,0.9964,1.0026,1.0062,1.0525,1.1092,1.1635,1.2503,1.3289,1.3822,1.4596,1.5104,1.5104,1.5551,1.561,1.509,1.5074,1.4721,1.3901,1.3459,1.3425,1.3927,1.4044,1.4338,1.4717,1.484,1.4928,1.489,1.4313,1.4045,1.3952,1.2858,1.235,1.2307,1.1834,1.1338,1.0867,0.9919,0.9554,0.9435,0.0,0.0,0.0,0.0,0.0,0.0,0.0,0.0,0.0,0.0,0.0,0.0,0.0,0.0,0.0,0.0,0.0,0.0,0.0,0.0,0.0,0.0,0.0,0.0,0.0,0.0,0.0,0.0,0.0,0.0,0.0,0.0,0.0,-0.0,-0.0,-0.0673,-0.241,-0.4241,-0.541,-0.5403,-0.5597,-0.5682,-0.5693,-0.5874,-0.603,-0.6037,-0.6179,-0.6338,-0.6338,-0.6338,-0.6795,-0.7706,-0.6795,-0.6795,-0.7783,-0.6799,-0.6345,-0.6349,-0.6493,-0.6558,-0.6488,-0.6641,-0.6709,-0.6709,-0.6712,-0.6715,-0.6715,-0.6636,-0.6725,-0.6299,-0.1844,-0.0168,-0.0,1.1197,1.0784,1.0386,1.0164,1.0047,1.0273,1.1101,1.0743,1.0832,1.2095,1.2212,1.2602,1.3756,1.4374,1.4783,1.5074,1.5551,1.5463,1.4651,1.4631,1.4278,1.3425,1.3581,1.3931,1.4488,1.4507,1.4794,1.5286,1.5414,1.5467,1.548,1.526,1.4911,1.4484,1.371,1.3124,1.2725,1.2224,1.1973,1.1781,1.1248,1.0766,1.0385,0.0,0.0,0.0,0.0,0.0,0.0,0.0,0.0,0.0,0.0,0.0,0.0,0.0,0.0,0.0,0.0,0.0,0.0,0.0,0.0,0.0,0.0,0.0,0.0,0.0,0.0,0.0,0.0,0.0,0.0,0.0,0.0,-0.0,-0.0,-0.0,-0.0202,-0.0672,-0.3504,-0.5454,-0.5693,-0.5662,-0.5765,-0.5898,-0.5986,-0.6078,-0.6193,-0.6237,-0.6338,-0.6338,-0.6338,-0.6412,-0.6718,-0.6412,-0.6795,-0.7783,-0.7688,-0.7588,-0.7513,-0.7761,-0.7442,-0.6647,-0.68,-0.6865,-0.6875,-0.6976,-0.7017,-0.701,-0.6823,-0.679,-0.6636,-0.5594,-0.2985,-0.0,1.0983,1.0696,1.0463,1.0445,1.0244,1.0383,1.1238,1.0744,1.0714,1.2031,1.1957,1.227,1.3467,1.4,1.4342,1.4596,1.5013,1.4954,1.4224,1.4038,1.3735,1.3232,1.3711,1.4119,1.4443,1.4885,1.526,1.5582,1.5891,1.6045,1.6003,1.5457,1.5062,1.4663,1.3789,1.3238,1.2861,1.2607,1.25,1.248,1.2217,1.175,1.1085,1.0572,1.0178,0.9796,0.8747,0.8208,0.7859,0.6918,0.0,0.0,0.0,0.0,0.0,0.0,0.0,0.0,0.0,0.0,0.0,0.0,0.0,0.0,0.0,0.0,0.0,0.0,0.0,0.0,0.0,0.0,0.0,0.0,-0.0,-0.0,-0.0,-0.0,-0.0539,-0.2088,-0.3538,-0.476,-0.5682,-0.5792,-0.5854,-0.6017,-0.6091,-0.6166,-0.6254,-0.6338,-0.6338,-0.6338,-0.6338,-0.649,-0.6945,-0.649,-0.6824,-0.7892,-0.7612,-0.7461,-0.7454,-0.7702,-0.737,-0.6803,-0.6953,-0.7017,-0.7024,-0.7105,-0.7139,-0.7132,0.0,0.0,0.0,0.0,-0.5374,-0.2688,1.0747,1.0487,1.033,1.0746,1.0486,1.0383,1.0917,1.0609,1.0659,1.1664,1.1811,1.2174,1.3094,1.3615,1.3901,1.3901,1.4278,1.4342,1.3934,1.3412,1.3188,1.3286,1.3821,1.4148,1.4274,1.5191,1.5731,1.5781,1.6283,1.6522,1.6466,1.5242,1.4698,1.4663,1.343,1.2881,1.2881,1.2881,1.2881,1.2881,1.2881,1.2459,1.1699,1.1153,1.0956,1.0804,0.9707,0.8913,0.8318,0.7688,0.0,0.0,0.0,0.0,0.0,0.0,0.0,0.0,0.0,0.0,0.0,0.0,0.0,0.0,0.0,0.0,0.0,0.0,0.0,0.0,0.0,0.0,0.0,0.0,-0.0,-0.0,-0.0,-0.0,-0.1347,-0.5001,-0.4206,-0.399,-0.556,-0.5874,-0.6037,-0.6054,-0.6183,-0.6338,-0.6338,0.0,0.0,0.0,0.0,-0.6718,-0.7633,-0.6718,-0.6872,-0.7965,-0.7122,-0.6739,-0.6895,-0.7052,-0.7039,-0.6959,-0.7085,-0.7139,-0.7139,-0.7139,-0.7139,-0.7139,-0.7139,-0.7139,-0.7143,-0.7074,-0.7101,-0.649,1.0481,1.0636,1.0799,1.1013,1.0578,1.0524,1.15,1.0864,1.0659,1.1664,1.1811,1.2174,1.3094,1.3615,1.3901,1.3901,1.4278,1.4342,1.3934,1.3126,1.3021,1.3873,1.4035,1.4513,1.5354,1.558,1.5906,1.6358,1.6471,1.6522,1.6466,1.5242,1.4698,1.4663,1.343,1.2881,1.2881,1.2881,1.2881,1.2881,1.2881,1.2773,1.2588,1.2088,1.1916,1.1813,1.0804,1.0365,1.0185,0.9579,0.9005,0.8436,0.7896,0.7479,0.0,0.0,0.0,0.0,0.0,0.0,0.0,0.0,0.0,0.0,0.0,0.0,0.0,0.0,0.0,0.0,0.0,0.0,0.0,-0.0,-0.0,-0.0,-0.0,-0.0,-0.1347,-0.5001,-0.5326,-0.545,-0.5915,-0.6005,-0.6081,-0.6207,-0.6244,-0.6338,-0.6338,-0.6338,-0.6338,-0.6338,-0.6338,-0.6416,-0.6567,-0.6412,-0.6872,-0.797,0.0,0.0,-0.8062,-0.841,-0.7967,-0.7102,-0.7129,-0.7139,-0.7139,-0.7139,-0.7139,-0.7139,-0.7139,-0.7139,-0.7139,-0.7058,-0.7074,-0.6729,1.0338,1.0499,1.0673,1.0999,1.061,1.0497,1.1287,1.0764,1.0544,1.1282,1.1394,1.1689,1.2437,1.2918,1.3182,1.3182,1.3589,1.3769,1.3547,1.3104,1.3212,1.406,1.4349,1.489,1.568,1.5969,1.6233,1.6522,1.6522,1.6337,1.6051,1.5107,1.4514,1.419,1.3286,1.2881,1.2881,1.2881,1.2881,1.2881,1.2881,1.2881,1.2852,1.2637,1.2559,1.2482,1.2015,1.1584,1.1237,1.0945,1.0452,0.981,0.9151,0.8805,0.8313,0.0,0.0,0.0,0.0,0.0,0.0,0.0,0.0,0.0,0.0,0.0,0.0,0.0,0.0,-0.0,0.0,0.0,-0.0,-0.0,-0.0,-0.0,-0.0,-0.0,-0.1082,-0.3908,-0.5148,-0.5861,-0.5988,-0.6061,-0.6176,-0.6254,-0.6338,-0.6338,-0.6338,-0.6338,-0.6338,-0.6338,-0.6338,-0.6338,-0.6338,-0.6338,-0.6681,-0.7388,-0.7472,-0.7644,-0.7722,-0.7891,-0.7665,-0.7139,-0.7139,-0.7139,-0.7139,-0.7139,-0.7139,-0.7139,-0.7139,-0.7139,-0.7139,-0.7139,-0.7071,-0.691,1.0283,1.0283,1.0467,1.0905,1.0611,1.0467,1.0943,1.0611,1.0467,1.0943,1.1019,1.1207,1.1737,1.2138,1.2389,1.2508,1.2838,1.3094,1.3198,1.3198,1.3483,1.406,1.4714,1.5246,1.568,1.643,1.6752,1.668,1.668,1.6398,1.5928,1.5096,1.4422,1.3956,1.32,1.2881,1.2881,1.2881,1.2881,1.2881,1.2881,1.2881,1.2881,1.2881,1.2881,1.2881,1.2881,1.251,1.2021,1.2021,1.1674,1.1074,1.0269,1.0012,0.9718,0.8205,0.78,0.0,0.0,0.0,0.0,0.0,0.0,0.0,0.0,0.0,0.538,0.5382,0.2818,0.0402,0.0067,-0.0,-0.0,-0.0,-0.0,-0.0,-0.0,-0.0677,-0.1712,-0.2947,-0.475,-0.5901,-0.6017,-0.6169,-0.6338,-0.6338,-0.6338,-0.6338,-0.6338,-0.6338,-0.6338,-0.6338,-0.6338,-0.6338,-0.6338,-0.6338,-0.641,-0.6702,-0.6702,-0.6854,-0.7139,-0.7139,-0.7139,-0.7139,-0.7139,-0.7139,-0.7139,-0.7139,-0.7139,-0.7139,-0.7139,-0.7139,-0.7139,-0.7139,-0.7071,-0.7009,1.0283,1.0283,1.0467,1.0905,1.0611,1.0467,1.0943,1.0611,1.0467,1.0943,1.1019,1.1207,1.1737,1.1847,1.2066,1.2473,1.2544,1.2768,1.3163,1.3198,1.3483,1.406,1.5073,1.5646,1.568,1.717,1.7706,1.7188,1.7188,1.7188,1.705,1.5443,1.4652,1.456,1.343,1.2881,1.2881,1.2881,1.2881,1.2881,1.2881,1.2881,1.2881,1.2881,1.2881,1.2881,1.2881,1.2832,1.2774,1.2774,1.2725,1.2412,1.1124,1.0669,1.0368,0.8648,0.8126,0.7835,0.6493,0.0,0.0,0.5339,0.538,0.5384,0.0,0.0,0.5418,0.5389,0.3825,0.1876,0.0269,-0.0,-0.0,-0.0,-0.0,-0.0,-0.0,-0.3237,-0.4953,-0.3319,-0.4954,-0.62,-0.6017,-0.6169,-0.6338,-0.6338,-0.6338,-0.6338,-0.6338,-0.6338,-0.6338,-0.6338,-0.6338,-0.6338,-0.6338,-0.6338,-0.641,-0.6702,-0.6702,-0.6854,-0.7139,-0.7139,-0.7139,-0.7139,-0.7139,-0.7139,-0.7139,-0.7139,-0.7139,-0.7139,-0.7139,-0.7139,-0.7139,-0.7139,-0.7068,-0.6815,1.0283,1.0283,1.0361,1.0544,1.0428,1.0361,1.0572,1.0649,1.0687,1.0611,1.0829,1.0981,1.0916,1.1442,1.2102,1.2838,1.316,1.3399,1.3581,1.3615,1.3963,1.4769,1.5389,1.5973,1.6506,1.7567,1.7987,1.7787,1.7463,1.7133,1.6744,1.5708,1.5062,1.4663,1.4154,1.3931,1.3931,1.3552,1.342,1.3372,1.3065,1.2881,1.2881,1.2881,1.2881,1.2881,1.2881,1.2608,0.0,1.2774,1.2363,1.1628,1.1224,1.0821,1.0318,0.9336,0.8737,0.8027,0.6576,0.0,0.0,0.0,0.5428,0.5428,0.5428,0.5428,0.5369,0.5389,0.3961,0.2144,0.0337,-0.0,-0.0,0.0,-0.0,-0.0,-0.0,-0.3671,-0.6001,-0.5096,-0.5782,-0.6264,-0.6152,-0.6224,-0.6338,-0.6338,-0.6338,-0.6338,-0.6338,-0.6338,-0.6338,-0.6338,-0.6338,-0.6338,-0.6338,-0.6338,-0.641,-0.6702,-0.6702,-0.6854,-0.7139,-0.7139,-0.7139,-0.7139,-0.7139,-0.7139,-0.7139,-0.7139,-0.7139,-0.7139,-0.7139,-0.7061,-0.7071,-0.7058,-0.7071,-0.6729,1.0283,1.0283,1.0283,1.0283,1.0283,1.0283,1.0283,1.0572,1.0725,1.0505,1.0791,1.0943,1.0725,1.1367,1.2138,1.2943,1.3331,1.3622,1.3888,1.3901,1.4252,1.5037,1.5558,1.6159,1.6858,1.7782,1.8289,1.8341,1.7787,1.7286,1.6844,1.6003,1.5365,1.4926,1.4789,1.4698,1.4652,1.4236,1.405,1.4003,1.3382,1.3152,1.3152,1.2968,1.2881,1.2881,1.2666,1.2236,1.1864,1.2197,1.1713,1.096,1.1019,1.0748,1.0343,0.9945,0.9063,0.8,0.6665,0.0,0.0,0.5428,0.5428,0.5428,0.5428,0.5428,0.5369,0.5389,0.3961,0.2144,0.0337,-0.0,-0.0,-0.0,-0.0,-0.0,-0.0,-0.2644,-0.503,-0.6147,-0.6332,-0.6329,-0.6335,-0.6264,-0.6338,-0.6338,-0.6338,-0.6338,-0.6338,-0.6338,-0.6338,-0.6338,-0.6338,-0.6338,-0.6338,-0.6338,-0.6386,-0.6637,-0.6681,-0.6834,-0.7085,-0.7122,-0.7139,-0.7139,-0.7139,-0.7139,-0.7139,-0.7139,-0.7143,-0.7061,-0.7061,-0.7074,-0.6999,-0.6343,-0.6539,-0.6837,1.0283,1.0283,1.0283,1.0283,1.0283,1.0283,1.0283,1.0322,1.0467,1.0905,1.0981,1.1207,1.17,1.1774,1.1993,1.2461,1.2532,1.2941,1.3835,1.3901,1.4098,1.4497,1.5531,1.6156,1.631,1.7879,1.8735,1.8893,1.8341,1.8066,1.8013,1.6378,1.5588,1.5543,1.4971,1.4698,1.4698,1.4698,1.4652,1.4606,1.4003,1.3768,1.3732,1.3104,1.2881,1.2822,1.208,1.1814,1.1715,1.1065,1.1052,1.119,1.0516,1.0468,1.0624,1.0193,0.9101,0.7812,0.6902,0.0,0.5428,0.5428,0.5428,0.5428,0.5428,0.5428,0.5369,0.5389,0.3961,0.2144,0.0337,-0.0,-0.0,-0.0,-0.0,-0.0,-0.0,-0.0141,-0.1744,-0.5795,-0.6277,-0.6288,0.0,-0.6268,-0.6338,-0.6338,-0.6338,-0.6338,-0.6338,-0.6338,-0.6338,-0.6338,-0.6338,-0.6338,-0.6338,-0.6338,-0.6335,-0.6481,-0.663,-0.6783,-0.6939,-0.7078,-0.7139,-0.7139,-0.7139,-0.7139,-0.7139,-0.7139,-0.7064,-0.7084,-0.7084,-0.7091,-0.6828,-0.4556,-0.5112,-0.7135,1.0283,1.0283,1.0283,1.0283,1.0283,1.0283,1.0283,1.0572,1.0725,1.0544,1.0802,0.0,0.0,0.0,0.0,0.0,1.3263,1.3555,1.3868,1.4149,1.447,1.4876,1.5676,1.6236,1.6564,1.7967,1.8738,1.8771,1.8691,1.8458,1.8066,1.7162,1.6557,1.6194,1.5976,1.5876,1.5876,1.5466,1.5276,1.5231,1.4652,1.4376,1.4329,1.3732,1.3208,1.2754,0.0,1.1516,1.1116,1.0864,1.0391,0.9969,1.045,1.0466,1.0193,0.9693,0.8809,0.7827,0.6915,0.0,0.5428,0.5428,0.5428,0.5428,0.5428,0.5428,0.5369,0.5389,0.3951,0.2124,0.0338,-0.0,-0.0,-0.0,-0.0,-0.0,-0.0,-0.0,-0.0509,-0.1964,-0.4581,0.0,0.0,0.0,0.0,-0.6338,-0.6338,-0.6338,-0.6338,-0.6338,-0.6338,-0.6338,-0.6338,-0.6338,-0.6338,-0.6338,-0.6332,-0.6474,-0.6729,-0.6929,-0.7071,-0.7119,-0.7139,-0.7139,-0.7068,-0.7074,-0.7074,-0.7081,-0.7091,-0.6913,-0.5369,-0.5738,-0.7032,-0.621,-0.6406,-0.7065,1.0283,1.0283,1.0283,1.0283,1.0283,0.0,0.0,0.0,0.0,0.0,0.0,0.0,0.0,0.0,0.0,0.0,0.0,1.3702,1.3901,1.4278,1.469,1.5074,1.5677,1.6198,1.6681,1.7533,1.8119,1.8343,1.8477,1.8361,1.8019,1.7718,1.7312,1.6795,1.6795,1.668,1.6466,1.6095,1.5993,1.5985,1.5074,1.4782,1.4725,1.382,1.3208,0.0,1.2061,1.1366,1.0762,1.0517,0.9953,0.9482,1.0115,1.0297,1.0122,0.9482,0.8877,0.8221,0.7046,0.6268,0.5815,0.5495,0.5428,0.5428,0.5428,0.5428,0.5369,0.5389,0.3951,0.2122,0.0338,-0.0,-0.0,-0.0,-0.0,-0.0,-0.0,-0.0,-0.0,-0.0,-0.2363,-0.3773,0.0,0.0,0.0,-0.6268,-0.6264,-0.6338,-0.6338,-0.6338,-0.6338,-0.6338,-0.6338,-0.6338,-0.6338,-0.6338,-0.6332,-0.6474,-0.6736,-0.6847,-0.6984,-0.7041,-0.7071,-0.7071,-0.7084,-0.6634,-0.5816,-0.5822,-0.6376,-0.6933,-0.5471,-0.5754,-0.7058,-0.7058,-0.6054,-0.4602,1.0283,1.0283,1.0283,0.0,0.0,0.0,0.0,0.0,0.0,0.0,0.0,0.0,0.0,0.0,0.0,0.0,0.0,0.0,1.3868,1.4278,1.469,1.5074,1.5551,1.6069,1.6652,1.6697,1.6979,1.7605,1.7786,1.7827,1.7806,1.7939,1.7706,1.7231,1.7231,1.6925,1.6466,1.6466,1.656,1.6674,1.5266,1.4849,1.4914,1.3471,1.292,1.2822,1.208,1.1366,1.0661,1.0012,0.0,0.0,0.0,0.0,0.0,0.9594,0.9338,0.8947,0.7242,0.6719,0.6461,0.562,0.5428,0.5428,0.5428,0.5428,0.5369,0.5389,0.3966,0.2147,0.0,0.0,-0.0,-0.0,-0.0,-0.0,-0.0,-0.0,-0.0,0.0,0.0,0.0,0.0,0.0,0.0,-0.6281,0.0,-0.6264,-0.6264,-0.6264,-0.6264,-0.6338,-0.6338,-0.6338,-0.6338,-0.6338,-0.6332,-0.6474,-0.6558,-0.6632,-0.6777,-0.6841,-0.6913,-0.692,-0.7012,-0.5827,-0.3749,-0.3482,-0.475,-0.677,-0.677,-0.6693,-0.6709,-0.6709,-0.3877,-0.0,0.0,0.0,0.0,0.0,0.0,0.0,0.0,0.0,0.0,0.0,0.0,0.0,0.0,0.0,0.0,0.0,0.0,0.0,1.3868,1.4278,1.469,1.5074,1.5551,1.5873,1.6024,1.6458,1.6631,1.6524,1.705,1.6958,1.6277,1.6292,1.6256,1.61,1.61,1.6011,1.582,1.582,1.5619,1.5243,1.4845,1.4716,1.4726,1.3873,1.3246,1.2754,1.2061,1.1065,1.0012,0.0,0.0,0.0,0.0,0.0,1.1344,0.0,0.0,0.9075,0.7962,0.7177,0.6461,0.562,0.5428,0.5428,0.5428,0.5428,0.5369,0.5389,0.3958,0.2129,0.0,0.0,0.0,-0.0,-0.0,0.0,-0.0,-0.0,0.0,-0.0,0.0,-0.0231,-0.0705,-0.1255,0.0,0.0,-0.6298,-0.6285,-0.6274,-0.6281,-0.6278,-0.6338,-0.6271,-0.6271,-0.6338,-0.6338,-0.6332,-0.6471,-0.6536,-0.6698,-0.6771,-0.5234,-0.4496,-0.4561,-0.6299,-0.6761,-0.5939,-0.2422,-0.1256,-0.1797,-0.1797,-0.1798,-0.1798,-0.1798,-0.1079,-0.0,0.0,0.0,0.0,0.0,0.0,0.0,0.0,0.0,0.0,0.0,0.0,0.0,0.0,0.0,0.0,0.0,0.0,0.0,0.0,1.4149,1.4596,1.4814,1.5448,1.5799,1.5799,1.6129,1.6322,1.6371,1.6561,1.6531,1.6297,1.6118,1.6038,1.6031,1.6031,1.5874,1.5588,1.5588,1.5303,0.0,0.0,1.4344,1.4335,1.3659,1.317,1.2774,1.2433,1.1698,0.0,0.0,0.0,1.115,1.1669,1.1593,1.1163,1.0744,0.0,0.9652,0.8812,0.7962,0.7046,0.6203,0.5686,0.5428,0.5428,0.5432,0.5372,0.5393,0.4566,0.0,0.0,0.0,0.0,0.0,0.0,0.0,-0.0,-0.0,-0.0,0.0,-0.0,0.0,-0.0,-0.0,-0.102,0.0,-0.4394,-0.4935,-0.4929,-0.5811,-0.5889,-0.4924,-0.5802,-0.6285,-0.6278,-0.6278,-0.6315,-0.6396,-0.6485,-0.6532,-0.6437,-0.3442,-0.2008,-0.2119,-0.3398,-0.3957,-0.3776,-0.1078,-0.0,-0.0,-0.0,-0.0,-0.0,-0.0,-0.0,-0.0,0.0,0.0,0.0,0.0,0.0,0.0,0.0,0.0,0.0,1.1015,1.1092,1.1468,0.0,0.0,0.0,0.0,0.0,0.0,0.0,0.0,1.4438,1.4501,1.5285,1.5712,1.5712,1.577,1.6025,1.6485,1.6082,1.6164,1.6661,1.6236,1.6091,1.6178,1.6257,1.5995,1.5492,1.5564,1.5332,1.4882,1.4104,1.3879,1.3834,0.0,1.2881,1.2881,1.2676,1.2613,1.2528,0.0,1.1816,1.151,1.1851,1.1413,1.0744,1.0618,1.0624,1.0428,0.953,0.8748,0.7957,0.6981,0.6137,0.5557,0.5428,0.5369,0.5312,0.5119,0.0,0.4319,0.0674,0.2559,0.4864,0.5343,0.0,0.0603,0.0402,0.0343,0.0349,0.0351,0.0146,-0.0,-0.0,-0.0,-0.0,-0.0,-0.1643,-0.2656,-0.2656,-0.4704,-0.4865,-0.2734,-0.4781,-0.5892,-0.5892,-0.5892,-0.5892,-0.5895,-0.6125,-0.629,-0.615,-0.195,-0.0,-0.0,-0.0,-0.0,-0.0,-0.0,-0.0,-0.0,-0.0,-0.0,-0.0,-0.0,-0.0,-0.0,0.0,0.0,0.0,0.0,0.0,0.0,0.0,0.0,0.0,0.0,1.158,1.1884,0.0,0.0,0.0,0.0,0.0,0.0,0.0,0.0,0.0,1.4501,1.4968,1.5225,1.5225,1.561,1.5669,1.5384,1.4969,1.4676,1.4459,1.4002,1.4047,1.4535,1.4993,1.5104,1.4962,1.5409,1.5006,1.401,1.3842,1.3501,1.3076,1.2939,0.0,0.0,1.1584,1.1939,1.2887,1.2291,1.2224,1.2413,1.2712,1.2266,1.1469,1.0807,1.0624,1.0428,0.953,0.921,0.8683,0.7111,0.6588,0.6268,0.5557,0.5369,0.0,0.0,0.0,0.4319,0.0674,0.0539,0.0,0.4934,0.0,0.0,0.0,0.0,0.2245,0.0,0.0,0.0,0.0,0.0,0.0,0.0,-0.0314,-0.0549,-0.0548,-0.2512,-0.2669,-0.0626,-0.2579,-0.3673,-0.3673,-0.3673,-0.3673,-0.3675,-0.546,-0.6271,-0.6144,-0.1888,-0.0,-0.0,-0.0,0.0,-0.0,-0.0,-0.0,-0.0,-0.0,-0.0,-0.0,-0.0,-0.0,-0.0,0.0,0.0,0.0,0.0,0.0,0.0,0.0,1.1606,1.1606,1.1606,1.1851,1.2289,1.2796,1.2831,1.301,0.0,0.0,0.0,0.0,0.0,0.0,0.0,0.0,0.0,1.5104,1.5329,1.5489,1.5624,0.0,1.4245,1.4337,1.3565,1.3684,1.4525,1.479,1.4995,1.5255,1.5492,1.5084,1.4236,1.392,1.3637,1.3324,0.0,0.0,0.0,0.0,1.2263,1.2949,1.249,1.2272,1.2297,1.283,1.2151,1.1108,1.0681,1.0624,1.0498,1.011,0.9658,0.9011,0.7697,0.7046,0.6461,0.5624,0.0,0.0,0.0,0.0,0.2082,0.0337,0.0,0.0,0.0,0.0,0.0,0.0,0.0,0.0,0.0,0.0,0.0,0.0,0.0,0.0,0.0,0.1643,0.1175,0.0078,-0.0942,-0.1021,-0.0,-0.094,-0.1488,-0.1488,-0.1488,-0.1488,-0.1488,-0.2512,-0.3005,-0.2959,-0.089,-0.0,-0.0,-0.0,-0.0,-0.0,-0.0,-0.0,-0.0,-0.0,-0.0,-0.0,-0.0,-0.0,-0.0,0.0,0.0,0.0,0.0,0.0,0.0,0.0,1.189,1.189,1.189,1.2182,1.2644,1.3279,1.2966,1.3167,0.0,0.0,0.0,0.0,0.0,0.0,0.0,0.0,0.0,0.0,0.0,0.0,1.5773,1.4509,0.0,0.0,0.0,0.0,0.0,1.4979,1.518,1.5445,1.554,1.5186,0.0,0.0,1.3732,0.0,0.0,0.0,0.0,0.0,0.0,1.3212,1.2777,1.2346,1.2143,1.2573,1.1787,1.0624,1.0624,1.0624,1.0624,1.0624,1.011,0.9396,0.8484,0.7762,0.6985,0.5947,0.5561,0.0,0.0,0.1539,-0.0,-0.0,0.0,-0.0,0.0,0.0,0.0,0.0,0.0,0.0,0.0,0.0,0.0,0.0,0.0,0.0,0.0,0.382,0.2659,0.0157,-0.0,-0.0,-0.0,-0.0,-0.0,-0.0,-0.0,-0.0,-0.0,-0.0,-0.0,-0.0,-0.0,-0.0,-0.0,-0.0,0.0604,0.1481,0.1506,0.0894,-0.0,-0.0,-0.0,-0.0,-0.0,-0.0,0.018,0.0,0.0,0.0,0.0,0.0,0.0,0.0,1.2764,1.2764,1.2764,1.2802,1.307,1.3689,1.382,1.4113,0.0,0.0,0.0,0.0,0.0,0.0,0.0,0.0,0.0,0.0,0.0,0.0,1.4648,1.4144,0.0,0.0,0.0,0.0,0.0,0.0,1.534,1.4915,1.5397,0.0,0.0,0.0,0.0,0.0,0.0,0.0,0.0,0.0,0.0,0.0,0.0,0.0,1.2757,1.2143,1.1288,1.0624,1.0624,0.0,0.0,1.0624,1.0561,1.0301,0.9396,0.9139,0.8619,0.6981,0.0,0.0,0.5166,0.2409,-0.0,-0.0,0.0,0.0,0.0,0.0268,0.1674,0.0,0.0,0.0,0.0,0.0,0.0,0.0,0.0,0.0,0.6023,0.5986,0.4233,0.0235,-0.0,-0.0,-0.0,-0.0,-0.0,-0.0,-0.0,-0.0,-0.0,-0.0,-0.0,-0.0,-0.0,-0.0,-0.0,-0.0,0.2431,0.0,0.648,0.3881,-0.0,-0.0,-0.0,-0.0,-0.0,-0.0,0.0629,0.0,0.0,0.0,0.0,0.0,0.0,1.2881,1.2881,1.2881,1.2881,1.2881,1.3152,1.3732,1.3855,1.3992,1.425,0.0,0.0,0.0,0.0,0.0,0.0,0.0,0.0,0.0,0.0,1.5109,1.5109,1.4696,0.0,0.0,0.0,0.0,0.0,0.0,1.4661,1.4742,1.4982,0.0,0.0,0.0,0.0,0.0,0.0,0.0,0.0,0.0,0.0,0.0,0.0,0.0,0.0,1.117,1.0863,0.0,0.0,1.0624,1.0624,1.0624,1.0624,1.0364,0.953,0.9274,0.8812,0.7111,0.0,0.0,0.5505,0.4228,0.2614,0.0402,-0.0,-0.0,-0.0,-0.0,0.0536,0.194,0.0,0.0,0.0,0.0,0.0,0.0,0.0,0.6067,0.6256,0.6328,0.5569,0.3912,0.2581,0.1877,0.1877,0.1877,0.1877,0.1877,0.1877,0.1877,0.1877,0.1877,0.1877,0.1877,0.1877,0.1887,0.1827,0.1852,0.3057,0.0,0.6509,0.5996,0.4117,0.268,0.2145,0.2147,0.2147,0.2147,0.2415,0.0,0.0,0.0,0.0,0.0,1.2881,1.2881,1.2881,1.293,1.3047,1.3066,1.3293,1.3836,1.3772,1.371,1.3758,1.3466,0.0,0.0,0.0,0.0,0.0,0.0,0.0,0.0,0.0,1.5297,1.5297,1.4852,1.4631,0.0,0.0,1.4162,1.451,0.0,0.0,0.0,0.0,0.0,0.0,0.0,0.0,0.0,0.0,0.0,0.0,0.0,0.0,0.0,0.0,0.0,0.0,1.0681,1.0624,1.0624,0.0,1.0624,1.0624,1.0624,1.0624,1.0434,0.9849,0.9658,0.9198,0.0,0.0,0.0,0.5631,0.5382,0.4436,0.1338,0.0336,-0.0,-0.0,-0.0,-0.0,-0.0,0.2683,0.0,0.0,0.0,0.0,0.0,0.0,0.5911,0.6173,0.6244,0.6274,0.6274,0.4849,0.4064,0.4068,0.4068,0.4068,0.4068,0.4068,0.4068,0.4068,0.4068,0.4068,0.4068,0.4068,0.4068,0.407,0.4062,0.4227,0.0,0.632,0.7076,0.6943,0.5265,0.4645,0.4648,0.4648,0.4648,0.4648,0.0,0.0,0.0,0.0,0.0,0.0,1.2881,1.2881,1.3027,1.3447,1.3496,1.3662,1.4072,1.375,1.3496,1.3496,1.3761,0.0,0.0,0.0,0.0,0.0,0.0,0.0,0.0,0.0,1.4916,1.4916,1.4304,1.3997,1.4009,1.3948,1.3926,1.3948,0.0,0.0,0.0,0.0,0.0,0.0,0.0,0.0,0.0,0.0,0.0,0.0,0.0,0.0,0.0,0.0,0.0,0.0,0.0,1.0624,1.0624,1.0624,1.0624,1.0624,1.0624,1.0624,1.0624,1.0561,1.0561,1.0104,0.0,0.0,0.7507,0.5752,0.5369,0.4834,0.3013,0.1205,-0.0,-0.0,-0.0,-0.0,-0.0,0.1542,0.0,0.0,0.0,0.0,0.0,0.0,0.5867,0.602,0.6173,0.0,0.6338,0.6261,0.6271,0.6295,0.6295,0.6295,0.6295,0.6295,0.6295,0.6295,0.6295,0.6295,0.6295,0.6295,0.6295,0.6295,0.6295,0.638,0.0,0.6747,0.6898,0.7056,0.7115,0.7091,0.7101,0.7101,0.7101,0.7101,0.0,0.0,0.0,0.0,0.0,0.0,0.0,1.3125,1.3359,1.3486,1.376,1.3984,1.4068,1.4014,1.3818,1.3525,1.332,0.0,0.0,0.0,0.0,0.0,0.0,0.0,0.0,0.0,1.4766,1.4766,1.4547,1.4471,1.4471,1.4034,1.3825,1.3836,1.3585,1.3382,0.0,0.0,0.0,0.0,0.0,0.0,0.0,0.0,0.0,0.0,0.0,0.0,0.0,0.0,0.0,0.0,0.0,0.0,0.0,1.0624,1.0624,1.0624,1.0624,1.0624,1.0624,1.0624,1.0174,0.9396,0.8285,0.7567,0.6789,0.562,0.5369,0.5243,0.4631,0.2074,-0.0,-0.0,-0.0,0.1687,0.0,0.0,0.0,0.0,0.0,0.0,0.0,0.0,0.6384,0.601,0.6074,0.6149,0.6254,0.6338,0.6264,0.6271,0.6271,0.6271,0.6271,0.6271,0.6271,0.6271,0.6271,0.6271,0.6271,0.6271,0.6271,0.6271,0.6271,0.6352,0.6575,0.6644,0.6797,0.6949,0.7095,0.7064,0.7068,0.7068,0.7068,0.7068,0.0,0.0,0.0,0.0,0.0,0.0,0.0,1.334,1.3623,1.3945,1.4219,1.4443,1.4544,1.4473,1.4277,1.4014,1.3603,0.0,0.0,0.0,0.0,0.0,0.0,0.0,1.4417,1.4775,1.5021,1.521,1.4982,1.4838,1.4838,1.4205,1.3909,1.386,1.3179,1.3087,0.0,0.0,0.0,0.0,0.0,0.0,1.2668,0.0,0.0,0.0,0.0,0.0,0.0,0.0,0.0,0.0,0.0,0.0,0.0,0.0,1.0394,1.0414,1.0598,1.0624,1.0624,1.0624,0.9913,0.9075,0.8221,0.7307,0.6461,0.5554,0.5432,0.5372,0.5379,0.3551,0.1808,0.1138,0.1006,0.3234,0.0,0.0,0.0,0.0,0.0,0.0,0.0,0.7446,0.7272,0.7009,0.7016,0.6982,0.6861,0.6872,0.6721,0.6338,0.6338,0.6338,0.6338,0.6338,0.6338,0.6338,0.6338,0.6338,0.6338,0.6338,0.6338,0.6338,0.6338,0.6312,0.0,0.6552,0.6705,0.6858,0.7004,0.7092,0.7139,0.7577,0.7753,0.7753,0.0,0.0,0.0,0.0,0.0,0.0,0.0,1.3525,1.3848,1.4678,1.4814,1.498,1.5371,1.5068,1.4814,1.4785,0.0,0.0,0.0,0.0,0.0,0.0,0.0,0.0,1.5169,1.5229,1.5411,1.5862,1.5278,1.5029,1.5029,1.4344,1.4024,1.397,1.3195,1.325,0.0,0.0,0.0,0.0,0.0,1.2172,0.0,0.0,0.0,0.0,0.0,0.0,0.0,0.0,0.0,0.0,0.0,0.0,0.0,0.0,0.0,0.0,0.0,1.0591,1.0624,1.0624,0.9913,0.9075,0.8221,0.7307,0.0,0.5554,0.5428,0.5432,0.5376,0.5379,0.4837,0.3157,0.2815,0.4498,0.0,0.7697,0.0,0.0,0.0,0.0,0.8755,0.845,0.8371,0.8609,0.8734,0.8513,0.7923,0.7936,0.748,0.6567,0.649,0.6412,0.6338,0.6338,0.6338,0.6412,0.6412,0.6412,0.649,0.649,0.649,0.0,0.6412,0.6338,0.6271,0.6413,0.6644,0.6795,0.6949,0.7184,0.7489,0.8627,0.9061,0.9061,0.0,0.0,0.0,0.0,0.0,0.0,0.0,0.0,0.0,0.0,1.5068,1.5303,1.54,1.5322,1.5137,0.0,0.0,0.0,0.0,0.0,0.0,0.0,0.0,0.0,1.4375,1.4385,1.4435,1.4536,1.4387,1.4344,1.4344,1.3521,1.3195,1.3141,1.2355,1.2069,0.0,0.0,0.0,0.0,1.1596,1.1608,0.0,0.0,0.0,0.0,1.0688,1.0414,0.0,0.0,0.0,0.0,0.0,0.0,0.0,0.0,0.9786,0.98,0.9873,0.0,1.0624,1.0624,0.9913,0.9075,0.0,0.7307,0.6461,0.5554,0.5428,0.5428,0.5432,0.5372,0.5243,0.4837,0.362,0.409,0.8062,0.0,0.0,0.0,0.0,0.967,0.8306,0.8679,0.8948,0.8599,0.8604,0.8732,0.8974,0.8917,0.8841,0.8618,0.8618,0.7859,0.6338,0.6338,0.6721,0.748,0.748,0.7859,0.8618,0.8618,0.8161,0.748,0.748,0.7022,0.6271,0.6413,0.7119,0.8012,0.8199,0.8888,0.9831,1.0091,1.0183,1.0183,0.0,0.0,0.0,0.0,0.0,0.0,0.0,0.0,0.0,0.0,0.0,1.541,1.541,1.505,0.0,0.0,0.0,0.0,0.0,0.0,0.0,0.0,0.0,1.4175,1.4434,1.4434,1.4531,1.4717,1.4316,1.4148,1.4148,1.3345,1.2943,1.2943,1.2464,1.1881,0.0,0.0,0.0,0.0,1.1188,0.0,0.0,0.0,0.0,0.0,0.995,0.968,0.0,0.9682,0.9375,0.9055,0.0,0.0,0.0,0.0,0.9479,0.9512,0.9646,0.992,1.0194,1.0327,0.9718,0.8989,0.8656,0.7897,0.7177,0.6662,0.6601,0.6601,0.6601,0.6915,0.6911,0.6268,0.5905,0.0,0.0,0.0,0.0,0.9408,1.0047,1.0231,0.0,0.9652,0.9823,0.9684,0.9817,0.9842,0.9786,0.9911,0.9744,0.9301,0.9296,0.877,0.7706,0.7706,0.7936,0.8466,0.8466,0.8765,0.9296,0.9296,0.8993,0.8466,0.8466,0.8161,0.7714,0.7729,0.8317,0.9141,0.9174,0.9822,1.0697,1.1214,1.1381,1.1381,0.0,0.0,0.0,0.0,0.0,0.0,0.0,0.0,0.0,0.0,0.0,0.0,0.0,0.0,0.0,0.0,0.0,0.0,0.0,0.0,0.0,0.0,0.0,1.4447,1.4694,1.4772,1.4917,1.5086,1.4478,1.4143,1.4152,1.3358,1.2833,1.2723,1.2723,1.1894,0.0,0.0,0.0,0.0,1.0627,0.0,0.0,0.0,0.0,0.0,0.0,0.0,0.0,0.8833,0.8478,0.8011,0.8337,0.0,0.0,0.0,0.0,0.0,0.9302,0.9546,0.9741,0.9967,0.9484,0.8997,0.9208,0.8623,0.8109,0.8021,0.8027,0.8021,0.8146,0.8634,0.8676,0.0,0.0,0.0,0.8645,0.9952,1.0604,0.9582,1.0351,0.0,1.0611,1.0807,1.1058,1.1355,1.1653,1.1536,1.082,1.1089,1.0789,0.9825,0.975,0.975,0.975,0.9448,0.9372,0.9518,0.9518,0.9599,0.975,0.975,0.9669,0.9518,0.9518,0.0,0.9296,0.9296,0.9627,1.0186,1.0186,1.0549,1.1214,1.2242,1.2589,1.2589,0.0,0.0,0.0,0.0,0.0,0.0,0.0,0.0,0.0,0.0,0.0,0.0,0.0,0.0,0.0,0.0,0.0,0.0,0.0,0.0,0.0,1.415,1.4859,1.4946,1.43,1.4578,1.44,1.3706,1.3897,1.3925,1.3925,1.3146,1.2219,1.1307,1.1307,1.104,1.0624,1.0792,0.0,0.9536,0.9572,0.0,0.0,0.0,0.0,0.0,0.0,0.0,0.0,0.7394,0.7184,0.6851,0.6923,0.0,0.0,0.0,0.0,0.0,0.7997,0.8858,0.9799,0.9778,0.9688,0.9459,0.8985,0.8792,0.8538,0.8115,0.8027,0.821,0.8873,0.8575,0.8329,0.0,0.0,1.053,0.0,0.0,0.0,1.0494,0.0,1.2074,1.062,1.1819,1.2725,1.3004,1.3419,1.3375,1.2747,1.3064,1.2792,1.1848,1.1848,1.1848,1.1848,1.0121,0.9744,1.0565,1.0565,1.1019,1.1848,1.1848,1.1397,1.0565,0.0,1.0115,0.9296,0.9296,1.0103,1.1416,1.1416,1.231,1.3561,1.3737,1.3822,1.3822,0.0,0.0,0.0,0.0,0.0,0.0,0.0,0.0,0.0,0.0,0.0,0.0,0.0,0.0,0.0,0.0,0.0,0.0,0.0,0.0,0.0,1.3545,1.3914,1.4003,1.3785,1.3893,1.3891,1.364,1.3423,1.3235,1.3235,1.2369,1.1674,1.0995,1.052,1.0171,0.9849,0.939,0.8935,0.8613,0.0,0.0,0.0,0.0,0.0,0.0,0.0,0.0,0.0,0.0,0.6449,0.6091,0.6475,0.0,0.0,0.0,0.0,0.0,0.8209,0.8791,0.9422,0.9986,1.0497,1.0912,1.1044,1.1092,1.089,1.0216,1.0053,1.0179,1.0537,1.0662,1.0975,1.1751,0.0,0.0,0.0,0.0,0.0,0.0,0.0,1.2696,1.1935,1.2565,1.3075,1.3178,1.3768,1.3965,1.3656,1.4167,1.4099,1.3098,1.3593,1.3593,1.3098,1.2691,1.2171,1.162,1.162,1.1848,1.2305,1.2305,1.2077,1.162,0.0,1.1323,1.095,1.095,1.1572,1.2479,1.2479,1.3147,1.4088,1.4088,1.4088,1.4088,0.0,0.0,0.0,0.0,0.0,0.0,0.0,0.0,0.0,0.0,0.0,0.0,0.0,0.0,0.0,0.0,0.0,0.0,0.0,0.0,1.1896,1.2696,1.252,1.2679,1.3084,1.318,1.333,1.3411,1.29,1.26,1.26,1.1908,1.1436,1.1096,1.0422,0.9832,0.9274,0.8613,0.8091,0.7692,0.0,0.0,0.0,0.0,0.0,0.0,0.0,0.0,0.0,0.0,0.0,0.0,0.0,0.0,0.0,0.6961,0.7283,0.7616,0.8315,0.8798,0.9302,1.0322,1.0926,1.1624,1.2865,1.2868,1.2583,1.2623,1.2472,1.2419,1.2594,1.2984,0.0,1.3855,0.0,0.0,0.0,0.0,1.3218,1.2379,1.3028,1.3494,1.3312,1.3425,1.3588,1.3735,1.4366,1.4649,1.4537,1.5154,1.5092,1.4099,1.4807,1.4807,1.4027,1.4807,1.445,1.2945,1.2945,1.2879,1.2666,1.2666,1.2519,1.2298,1.2519,1.2519,1.2305,1.2594,1.2947,1.322,1.3287,1.3627,1.4088,1.4088,1.4088,1.4088,0.0,0.0,0.0,0.0,0.0,0.0,0.0,0.0,0.0,0.0,0.0,0.0,0.0,0.0,0.0,0.0,0.0,0.0,0.0,0.0,1.1045,1.1834,1.117,1.1249,1.2243,1.2579,1.2499,1.2043,1.2249,1.2311,1.2311,1.2238,1.1937,1.1396,1.1321,1.0543,0.9274,0.921,0.8291,0.6767,0.6599,0.0,0.0,0.0,0.0,0.0,0.0,0.0,0.0,0.0,0.0,0.0,0.0,0.0,0.4787,0.5433,0.6145,0.6858,0.7563,0.8718,0.9918,1.0654,1.0107,1.012,1.3007,1.2506,1.2067,1.4494,1.4421,1.4173,1.4887,1.4523,1.3914,1.3191,0.0,0.0,0.0,0.0,1.4932,1.4145,1.4746,1.4932,1.4213,1.4815,1.5399,1.5856,1.6268,1.6298,1.5775,1.6264,1.6079,1.5092,1.5163,1.5163,1.5092,1.5163,1.5163,1.5021,1.5021,1.4522,1.36,1.36,1.3098,1.2378,1.3244,1.3098,1.2399,1.3561,1.3739,1.3233,1.3507,1.3808,1.4088,1.4088,1.4088,1.4088,0.0,0.0,0.0,0.0,0.0,0.0,0.0,0.0,0.0,0.0,0.0,0.0,0.0,0.0,0.0,0.0,0.0,0.0,0.0,1.0744,1.0485,1.0275,0.997,0.9848,0.998,1.0648,1.1071,1.1236,1.1944,1.1996,1.1391,1.1303,1.0659,0.9597,0.9034,0.8317,0.7637,0.7129,0.6485,0.5864,0.5811,0.5479,0.0,0.0,0.0,0.0,0.0,0.0,0.0,0.0,0.448,0.4473,0.4473,0.4522,0.4625,0.5324,0.6036,0.675,0.7503,0.8718,0.9971,1.0733,1.0921,1.1535,1.4118,1.4246,1.4225,1.5672,1.5713,1.5504,1.5351,0.0,1.5381,1.4628,1.4756,1.505,1.5352,1.541,1.5294,1.4991,1.5225,1.5294,1.4991,1.5235,1.5596,1.6086,1.6484,1.6722,1.6864,1.7205,1.707,1.607,1.6655,1.6655,1.607,1.6655,1.6941,1.6941,1.5728,1.5021,1.4665,1.4665,1.445,1.4091,1.445,1.445,1.4186,1.4893,1.5166,1.5157,1.571,1.6009,1.6034,1.535,1.5496,1.6025,0.0,0.0,0.0,0.0,0.0,0.0,0.0,0.0,0.0,0.0,0.0,0.0,0.0,0.0,0.0,0.0,0.0,0.0,1.0174,0.9913,0.9518,0.8941,0.8877,0.8607,0.8096,0.8651,0.9406,1.034,1.1019,1.0977,1.029,1.0204,0.9592,0.8513,0.782,0.7239,0.665,0.6029,0.5567,0.5403,0.5248,0.4776,0.0,0.0,0.0,0.0,0.0,0.0,0.0,0.0,0.3776,0.3848,0.4345,0.448,0.4613,0.5027,0.5878,0.675,0.7503,0.8838,1.0128,1.0579,1.1407,1.2646,1.463,1.5205,1.5686,1.7148,1.7103,1.6613,1.6084,0.0,0.0,0.0,1.5958,1.6083,1.6083,1.6083,1.6083,1.6083,1.6083,1.6083,1.6083,1.5853,1.5988,1.6577,1.6678,1.7101,1.7925,1.7976,1.7852,1.7453,1.7842,1.7716,1.707,1.7647,1.8008,1.8008,1.6724,1.5948,1.5658,1.5658,1.5517,1.5234,1.5508,1.5438,1.5275,1.6041,1.6455,1.6624,1.7136,1.7277,1.7221,1.6495,1.664,1.7191,0.0,0.0,0.0,0.0,0.0,0.0,0.0,0.0,0.0,0.0,0.0,0.0,0.0,0.0,0.0,0.0,0.0,0.0,0.9274,0.8484,0.8027,0.7962,0.7962,0.7668,0.6933,0.6869,0.7708,0.9296,0.9296,0.9255,0.9103,0.9103,0.8857,0.8358,0.8353,0.776,0.6706,0.6459,0.6022,0.5378,0.4889,0.3876,0.2747,0.0,0.0,0.0,0.0,0.0,0.0,0.0,0.2175,0.2467,0.3953,0.4463,0.446,0.4491,0.5504,0.6745,0.7509,0.9032,1.0462,1.0307,1.1479,1.2978,1.44,1.5,1.6141,1.9178,1.8608,1.7611,1.7521,1.698,0.0,0.0,1.7092,1.7578,1.7578,1.7578,1.7578,1.7578,1.7578,1.7578,1.7578,1.6933,1.6869,1.7728,1.7149,1.7476,1.9191,1.8462,1.8395,1.9299,1.8462,1.8008,1.8008,1.8008,1.8008,1.8008,1.8008,1.7501,1.6627,1.6627,1.6079,1.5305,1.6219,1.6079,1.5371,1.7011,1.7553,1.7334,1.7334,1.7335,1.7351,1.7302,1.7334,1.7295,0.0,0.0,0.0,0.0,0.0,0.0,0.0,0.0,0.0,0.0,0.0,0.0,0.0,0.0,0.0,0.0,0.0,0.0,0.842,0.8156,0.7697,0.7111,0.7111,0.6747,0.5993,0.6102,0.6781,0.8022,0.8763,0.8729,0.8001,0.7797,0.7264,0.6482,0.6356,0.6075,0.58,0.5706,0.5564,0.498,0.0177,-0.1969,-0.2091,0.0,0.0,0.0,0.0,0.0,0.0,0.0,0.0,0.0,0.1209,0.223,0.3388,0.4264,0.506,0.5862,0.6704,0.8074,0.9404,1.0139,1.1619,1.3266,1.4453,1.5,1.6038,1.8531,1.9097,1.898,1.8466,1.8155,0.0,0.0,1.7446,1.7578,1.7578,1.7578,1.7413,1.6866,1.7302,1.7413,1.6877,1.7462,1.7861,1.781,1.8518,1.904,1.9267,1.9628,1.9694,1.9299,1.9044,1.8586,1.8008,1.8008,1.8008,1.8008,1.8008,1.7862,1.7579,1.7579,1.7432,1.7157,1.7432,1.7593,1.7713,1.8767,1.943,1.959,1.959,1.9618,1.9548,1.8795,1.8973,1.9482,0.0,0.0,0.0,0.0,0.0,0.0,0.0,0.0,0.0,0.0,0.9582,0.939,0.0,0.0,0.0,0.0,0.0,0.0,0.7502,0.7181,0.6728,0.6203,0.6207,0.6003,0.5511,0.5098,0.5524,0.6691,0.747,0.7505,0.6785,0.6654,0.6222,0.5497,0.4045,0.3365,0.3342,0.337,0.3348,0.3049,-0.0968,-0.3304,-0.4126,0.0,0.0,0.0,0.0,0.0,0.0,0.0,0.0,0.0,-0.0,0.0729,0.2078,0.4481,0.5345,0.5783,0.6742,0.8199,0.9578,1.0295,1.1973,1.3645,1.4704,1.5874,1.7059,1.8424,1.9032,1.9307,1.915,1.8886,0.0,1.8501,1.8489,1.8489,1.8489,1.8489,1.8328,1.7841,1.8221,1.8286,1.7852,1.8485,1.8885,1.8769,1.9449,2.0001,2.0311,2.0526,2.0526,2.0333,2.0009,1.9562,1.9044,1.8721,1.8529,1.8529,1.8144,1.8008,1.8008,1.8008,1.8008,1.8018,1.8184,1.8594,1.918,1.9697,2.0166,2.0566,2.0566,2.0566,2.0547,1.9839,2.0042,2.0547,0.0,0.0,0.0,0.0,0.0,0.0,0.0,0.0,0.0,0.7962,0.8027,0.7962,0.0,0.0,0.0,0.7762,0.7015,0.6546,0.6559,0.5855,0.5401,0.5401,0.5209,0.5229,0.5396,0.4156,0.4154,0.5396,0.5811,0.581,0.5471,0.5322,0.5177,0.4791,0.1659,0.0125,-0.0122,-0.0177,-0.0175,-0.0115,-0.0217,-0.1749,-0.4029,-0.4002,0.0,0.0,0.0,0.0,0.0,0.0,0.0,0.0,-0.0314,-0.023,0.0666,0.4511,0.5686,0.5948,0.7301,0.8945,1.0348,1.0648,1.2217,1.4024,1.5023,1.6925,1.8501,1.8608,0.0,1.8939,1.9643,1.9254,1.9044,1.9695,1.9798,1.9798,1.9798,1.985,1.985,1.9695,1.9798,1.9862,1.977,1.9787,1.9921,2.0262,2.0234,2.0669,2.1854,2.1239,2.1164,2.1877,2.1101,2.0655,2.059,1.9814,1.9431,1.9431,1.8586,1.8269,1.8202,1.8134,1.8163,1.8222,1.8576,1.9232,1.9922,1.9961,2.0215,2.0566,2.0566,2.0654,2.0751,2.0654,2.0654,2.0751,0.0,0.0,0.0,0.0,0.0,0.0,0.0,0.0,0.7242,0.7897,0.8027,0.7762,0.7046,0.6848,0.0,0.5796,0.553,0.5432,0.5445,0.5396,0.5399,0.5399,0.4046,0.3918,0.5339,0.3745,0.3743,0.541,0.5645,0.5011,0.3657,0.2187,0.1474,0.1453,0.0631,-0.111,-0.3447,-0.3484,-0.3495,-0.3503,-0.3904,-0.4144,-0.4151,-0.3996,-0.372,0.0,0.0,0.0,0.0,0.0,0.0,0.0,-0.2518,-0.1981,-0.059,0.1136,0.2691,0.4396,0.6824,0.7858,0.8585,0.9725,1.1646,1.3433,1.4015,1.5592,1.7146,1.7743,1.8286,1.8939,1.9643,1.9695,1.9631,1.9747,1.9798,1.9798,1.9798,2.0245,2.0181,1.9085,1.9927,2.0361,1.9691,2.0514,2.0998,2.0855,2.1825,2.225,2.1939,2.231,2.2372,2.1877,2.169,2.1302,2.059,2.0398,2.0333,2.0333,2.0139,2.0009,2.0009,1.9299,1.9163,1.9524,1.9978,2.007,1.9941,2.0283,2.0478,2.0566,2.0566,2.1073,2.1602,2.0868,2.1073,2.1602,0.0,0.0,0.0,0.0,0.0,0.0,0.0,0.0,0.6471,0.6709,0.6749,0.6613,0.6141,0.5998,0.0,0.0,0.5013,0.4684,0.4008,0.4072,0.447,0.5348,0.4522,0.3593,0.2802,0.2721,0.202,0.0634,0.2361,0.2696,0.1787,-0.0067,-0.1253,-0.1925,-0.1992,-0.2905,-0.4494,-0.4845,-0.4919,-0.4823,-0.5401,-0.5333,-0.48,-0.465,-0.4589,-0.4517,-0.4247,0.0,0.0,0.0,0.0,0.0,0.0,0.0,-0.1973,-0.0046,0.1663,0.3417,0.5479,0.7137,0.8547,0.9828,1.1268,1.2508,1.3094,1.4231,1.5459,1.6311,1.7379,1.8394,1.915,1.9254,1.9371,1.9747,1.9798,1.9798,1.9798,2.0396,2.0534,1.9812,2.0333,2.0718,2.0592,2.1444,2.1893,2.1638,2.3231,2.3682,2.2567,2.3233,2.3292,2.2506,2.2445,2.2249,2.1803,2.1416,2.1239,2.1239,2.0782,2.0971,2.1597,2.0676,2.0541,2.0939,2.1496,2.1696,2.1627,2.1384,2.1562,2.1907,2.145,2.1829,2.2682,2.2158,2.2285,2.2569,0.0,0.0,0.0,0.0,0.0,0.0,0.0,0.0,0.0,0.5011,0.4916,0.4951,0.4941,0.4944,0.4791,0.0,0.0,0.0,0.308,0.2541,0.2924,0.4397,0.4454,0.3084,0.006,0.0967,-0.0484,-0.4474,-0.1798,-0.0511,-0.046,-0.1934,-0.3309,-0.4499,-0.4623,-0.4669,-0.472,-0.5333,-0.5478,-0.5328,-0.5877,-0.5853,-0.55,-0.546,-0.5394,-0.5252,-0.4789,-0.4324,-0.3873,-0.3814,0.0,0.0,0.0,0.0,-0.328,-0.0823,0.0926,0.2369,0.3866,0.6339,0.8817,0.9778,1.057,1.1353,1.2085,1.3072,1.4052,1.4859,1.6311,1.7688,1.8555,1.8715,1.8927,1.9695,1.9798,1.9798,1.9798,2.0497,2.0944,2.0795,2.0894,2.1209,2.19,2.2353,2.2596,2.2629,2.4343,2.4724,2.3185,2.3884,2.3943,2.3138,2.3078,2.3078,2.3078,2.2445,2.2125,2.2125,2.1365,2.1696,2.2931,2.2278,2.2115,2.2399,2.2899,2.3293,2.3441,2.2584,2.2733,2.3401,2.2569,2.29,2.37,2.3557,2.3606,2.3634,0.0,0.0,0.0,0.0,0.0,0.0,0.0,0.0,0.0,0.0,0.3082,0.3073,0.306,0.3081,0.302,0.3004,0.3958,0.4452,0.4279,0.0,0.0,0.0738,0.0738,0.0519,-0.0,-0.2313,-0.3865,-0.451,-0.4265,-0.3994,-0.3832,-0.4067,-0.4273,-0.4528,-0.5106,-0.5369,-0.5385,-0.5903,-0.61,-0.6063,-0.6244,-0.6,-0.5551,-0.5919,-0.5758,-0.5207,-0.4664,-0.4711,-0.5004,-0.4688,-0.4666,0.0,0.0,0.0,-0.4132,-0.3293,-0.163,0.0325,0.2317,0.5166,0.765,0.7984,0.889,0.985,0.0,0.0,1.3816,0.0,1.5402,1.709,1.8447,1.8715,1.8927,1.9695,1.9798,1.9798,1.9798,2.0855,2.139,2.0845,2.1245,2.2021,2.32,2.2909,2.2986,2.3979,2.491,2.4724,2.3185,2.3884,2.3943,2.3138,2.3078,2.3078,2.3078,2.3005,2.2944,2.2944,2.2811,2.3121,2.3816,2.4226,2.4183,2.3906,2.3989,2.3802,2.3463,2.3345,2.3386,2.3497,2.334,2.3885,2.4692,2.384,2.4036,2.4682,0.0,0.0,0.0,0.0,0.0,0.0,0.0,0.0,0.0,0.0,0.0,0.1165,0.1166,0.1162,0.1164,0.1211,0.1644,0.1964,0.1967,0.0729,-0.0,-0.0,-0.0,-0.0792,-0.2488,-0.3818,-0.4522,-0.4526,-0.4468,-0.4616,0.0,-0.4743,-0.4751,-0.4861,-0.5401,-0.5658,-0.5698,-0.6269,-0.6442,-0.637,-0.6842,-0.6554,-0.5905,-0.6133,-0.6037,-0.5761,-0.5492,-0.5556,-0.5782,0.0,-0.5226,-0.4888,-0.5415,0.0,0.0,0.0,-0.3432,-0.1492,0.1855,0.3968,0.5483,0.6686,0.7735,0.8565,0.9117,1.0627,1.2192,1.2966,1.4098,1.5598,1.7675,1.8058,1.8436,1.9592,1.9798,1.9798,1.9798,2.0633,2.1113,2.0845,2.1028,2.183,2.3427,2.3368,2.3541,2.4257,2.5769,2.5591,2.3245,2.4279,2.4553,2.3826,2.3365,2.3305,2.3767,2.3305,2.3078,2.3078,2.3464,2.3916,2.4481,2.5008,2.5174,2.4995,2.5313,2.5363,2.5122,2.459,2.4684,2.5134,2.4574,2.4944,2.5752,2.5347,2.5492,2.5716,0.0,0.0,0.0,0.0,0.0,0.0,0.0,0.0,0.0,0.0,0.0,-0.0,-0.0,0.0,0.0,0.0,-0.1121,-0.0952,-0.056,-0.056,-0.056,-0.056,-0.0505,-0.1515,-0.3784,-0.4172,-0.4452,-0.4612,-0.4452,-0.4684,-0.5296,-0.528,-0.5319,-0.545,-0.5881,-0.6069,-0.6097,-0.669,-0.6842,-0.67,-0.7054,-0.6768,-0.6187,-0.6052,-0.5979,-0.5973,-0.5964,0.0,0.0,0.0,0.0,0.0,0.0,0.0,0.0,0.0,0.0,-0.307,0.0552,0.1897,0.2806,0.5106,0.6467,0.7368,0.0,0.0,1.0833,0.0,1.3086,1.4496,1.6764,1.7379,1.8058,1.9579,1.9798,1.9798,0.0,0.0,0.0,0.0,0.0,0.0,0.0,0.0,0.0,0.0,2.6269,2.6079,2.3245,2.4711,2.5175,2.406,2.359,2.3603,2.4002,2.3424,2.3078,2.3078,2.3948,2.4456,2.4845,2.561,2.5861,2.5837,2.6264,2.6533,2.644,2.5716,2.5834,2.6427,2.5647,2.5847,2.6533,2.6533,2.6533,2.6414,0.0,0.0,0.0,0.0,0.0,0.0,0.0,0.0,0.0,0.0,0.0,-0.0,-0.0,-0.2531,-0.4244,-0.4244,-0.4291,-0.3652,-0.2176,-0.2069,-0.2073,-0.2073,-0.1852,0.0,-0.1911,-0.3239,-0.4249,-0.4957,-0.4875,-0.5152,-0.5767,-0.616,-0.6319,-0.632,-0.6647,-0.6757,-0.6777,-0.7262,-0.7468,-0.737,-0.6575,-0.6221,-0.615,-0.5548,0.0,0.0,0.0,0.0,0.0,0.0,0.0,0.0,0.0,0.0,0.0,0.0,0.0,0.0,-0.2585,-0.1595,-0.0288,0.2875,0.4825,0.6322,0.0,0.0,0.0,0.0,1.2756,1.4251,1.5693,1.6874,1.8058,1.9579,0.0,0.0,0.0,0.0,0.0,0.0,0.0,0.0,0.0,0.0,0.0,0.0,2.6122,2.555,2.3245,2.5217,2.5439,2.3245,2.3884,2.3884,2.3198,2.3138,2.3078,2.3138,2.4489,2.5013,2.4833,2.6181,2.6673,2.6483,2.6508,2.6533,2.6533,2.644,2.644,2.6452,2.644,2.644,2.6533,2.6533,2.6533,2.6452,0.0,0.0,0.0,0.0,0.0,0.0,0.0,0.0,0.0,0.0,0.0,0.0,0.0,-0.2354,-0.303,-0.3039,-0.394,-0.4271,-0.3697,-0.3485,-0.3378,-0.3378,-0.3246,-0.3217,-0.3131,-0.3649,-0.4254,-0.4912,-0.4806,-0.5268,-0.6186,-0.6247,-0.647,-0.6805,-0.6901,-0.693,-0.693,-0.7118,0.0,0.0,-0.6483,-0.5978,-0.5538,-0.4944,0.0,0.0,0.0,0.0,0.0,0.0,0.0,0.0,0.0,0.0,0.0,0.0,-0.5653,-0.4739,-0.3043,-0.2066,-0.0898,0.1604,0.3639,0.5504,0.7125,0.0,0.0,0.0,1.1627,1.2932,1.4919,1.6568,0.0,0.0,0.0,0.0,0.0,0.0,0.0,0.0,0.0,0.0,0.0,0.0,0.0,0.0,0.0,2.5494,2.3245,2.5273,2.5673,2.3943,2.4624,2.4894,2.4553,2.4553,2.4798,2.5231,2.6104,2.6654,2.7015,2.7845,2.8174,2.8117,2.8117,2.7484,2.6533,2.6533,2.6533,2.6533,2.6533,2.6533,2.6533,2.6533,2.6533,2.6533,0.0,0.0,0.0,0.0,0.0,0.0,0.0,0.0,0.0,-0.5353,0.0,0.0,0.0,0.0,-0.2965,-0.2977,-0.4098,-0.4657,-0.4428,-0.4157,-0.3993,-0.3993,-0.3962,-0.3929,-0.3865,-0.3844,-0.4108,-0.4732,-0.4848,-0.5397,-0.6319,-0.6409,-0.6645,-0.6979,-0.6979,-0.6979,0.0,0.0,0.0,-0.6937,0.0,0.0,-0.5546,0.0,0.0,0.0,0.0,0.0,0.0,0.0,0.0,0.0,0.0,0.0,0.0,0.0,-0.6167,-0.5551,-0.3999,-0.3102,-0.2121,-0.0047,0.2186,0.4353,0.6064,0.0,0.0,0.0,0.0,0.0,0.0,0.0,0.0,0.0,0.0,0.0,0.0,0.0,0.0,0.0,0.0,0.0,0.0,0.0,0.0,0.0,0.0,0.0,2.3185,2.5481,2.6336,2.5063,2.5287,2.5398,2.5398,2.5398,2.5758,2.6424,2.7195,2.7809,2.8241,2.9038,2.9254,2.9002,2.9002,2.8363,2.7351,2.7351,2.7162,2.6905,2.6905,2.6714,2.6533,2.6533,2.6533,2.6533,0.0,0.0,0.0,0.0,0.0,0.0,0.0,0.0,-0.3437,-0.5163,0.0,0.0,0.0,0.0,0.0,-0.4546,-0.5045,-0.5026,-0.4323,-0.4152,-0.4039,-0.4039,-0.3935,-0.3854,-0.381,-0.3718,-0.3899,-0.4409,-0.5038,-0.5629,-0.6223,-0.6742,-0.6979,-0.6979,-0.6979,-0.7021,-0.7027,0.0,-0.7021,-0.693,0.0,-0.5685,-0.6093,0.0,0.0,0.0,-0.5631,-0.5642,0.0,0.0,0.0,0.0,0.0,0.0,0.0,0.0,-0.6979,-0.6719,0.0,0.0,0.0,-0.2181,0.0,0.0,0.4235,0.0,0.0,0.0,0.0,0.0,0.0,0.0,0.0,0.0,0.0,0.0,0.0,0.0,0.0,0.0,0.0,0.0,0.0,0.0,0.0,0.0,2.4653,2.4724,2.3185,2.5903,2.7188,2.6563,2.5837,2.5453,2.5453,2.5453,2.5827,2.6509,2.7826,2.8396,2.833,2.9725,2.9889,2.9066,2.9066,2.9066,2.9066,2.9002,2.8492,2.7736,2.7736,2.7297,2.6589,2.6521,2.6521,2.6602,0.0,0.0,0.0,0.0,0.0,-0.3919,-0.5186,-0.4973,-0.4834,0.0,0.0,0.0,-0.5574,-0.5848,-0.6037,-0.6021,-0.6178,-0.6053,-0.5648,-0.5505,-0.5353,-0.5103,-0.4943,-0.4688,-0.4224,-0.4639,-0.4918,-0.5061,-0.5673,-0.6237,-0.6784,-0.693,-0.6979,-0.6979,-0.6979,-0.7258,-0.7644,-0.7648,0.0,0.0,-0.682,-0.6349,0.0,0.0,0.0,0.0,0.0,-0.4428,0.0,0.0,-0.4131,-0.4252,0.0,0.0,-0.6979,0.0,-0.6725,-0.6349,-0.605,0.0,0.0,0.0,0.0,0.0,0.0,0.0,0.0,0.0,0.0,0.0,0.0,0.0,0.0,0.0,0.0,0.0,0.0,0.0,0.0,0.0,0.0,0.0,0.0,0.0,0.0,0.0,2.4929,2.5007,2.4002,2.4781,2.5823,2.7255,2.6602,2.6443,2.6967,2.6967,2.7592,2.8723,2.9064,2.9729,3.0573,3.1013,3.1029,3.0837,3.0837,3.0837,3.0703,2.9504,2.8876,2.862,2.862,2.8492,2.822,2.7604,2.7749,2.812,0.0,0.0,-0.3835,-0.3835,-0.3835,-0.4372,-0.5848,-0.6047,-0.6047,0.0,0.0,0.0,-0.6413,-0.683,-0.6956,-0.6612,-0.6822,-0.6718,-0.6165,-0.5967,-0.5745,-0.542,-0.5328,-0.514,-0.4774,-0.512,-0.5306,-0.528,-0.5891,-0.6349,-0.6693,-0.6881,-0.6979,-0.7021,-0.7265,-0.7553,-0.7933,0.0,0.0,0.0,-0.6981,0.0,0.0,-0.5223,-0.483,0.0,0.0,0.0,-0.4378,-0.3934,-0.3843,0.0,0.0,0.0,0.0,0.0,-0.6768,-0.6477,-0.627,-0.5524,-0.4648,-0.4077,0.0,0.0,0.0,0.3404,0.0,0.0,0.0,0.0,0.0,0.0,0.0,0.0,0.0,0.0,0.0,0.0,0.0,0.0,0.0,0.0,0.0,2.1313,2.1892,2.3554,2.4218,2.4735,2.5161,2.5231,2.5946,2.756,2.7188,2.7152,2.7625,2.7625,2.8248,2.9579,2.9579,3.0268,3.1482,3.1482,3.1482,3.1482,3.1482,3.1482,3.1409,3.045,2.9827,2.9566,2.9566,2.9324,2.8963,2.8417,2.8556,2.8799,0.0,0.0,-0.5428,-0.5428,-0.5498,-0.5907,-0.688,-0.6928,-0.7122,0.0,-0.789,-0.7689,-0.73,-0.7688,-0.7688,-0.6998,-0.7512,-0.7459,-0.6544,-0.6206,-0.5947,-0.5671,-0.5534,-0.5445,-0.5397,-0.5468,-0.5474,-0.5397,-0.5995,-0.6271,-0.6313,-0.6833,-0.707,-0.7027,-0.7701,-0.7975,-0.8055,-0.9073,0.0,-0.7881,-0.6748,-0.6325,0.0,0.0,-0.5476,0.0,-0.5401,-0.5173,-0.5014,-0.4123,-0.4091,0.0,0.0,0.0,0.0,0.0,-0.6894,-0.681,-0.6392,-0.5787,-0.5173,-0.4652,0.0,0.0,0.0773,0.2527,0.0,0.0,0.0,0.0,0.0,0.0,0.0,0.0,0.0,0.0,0.0,0.0,0.0,0.0,0.0,0.0,1.9695,2.0326,2.1217,2.2445,2.3122,2.4395,2.6414,2.651,2.6826,2.7575,2.7625,2.7625,2.7625,2.7625,2.8248,2.9579,2.9579,3.0268,3.1482,3.1482,3.1482,3.1482,3.1482,3.1482,3.1482,3.1482,3.1087,3.045,3.045,2.9969,2.9284,2.9178,2.9182,2.912,-0.5428,-0.5428,-0.5428,-0.5428,-0.5977,-0.6531,-0.6738,-0.7349,-0.7777,-0.7978,-0.8324,-0.8487,-0.8164,-0.9109,-0.9647,-0.9228,-0.9775,-0.9963,-0.9588,-0.8745,-0.8146,-0.7891,-0.7118,-0.6458,-0.6037,-0.6452,-0.6452,-0.6037,-0.6596,-0.6833,-0.6839,-0.7454,-0.7461,-0.7027,-0.8089,-0.8544,-0.8579,0.0,0.0,-0.8487,-0.7888,0.0,-0.6247,-0.5426,-0.488,-0.4572,-0.4646,-0.4574,-0.439,0.0,-0.4256,-0.4671,0.0,0.0,0.0,0.0,0.0,0.0,-0.6768,-0.6076,0.0,0.0,0.0,0.0,-0.2642,-0.152,0.0,0.0,0.0,0.0,0.0,0.0,0.0,0.0,0.0,0.0,0.0,0.0,0.0,0.0,0.0,0.0,1.898,1.9994,2.1064,2.1863,2.3418,2.4936,2.6414,2.651,2.6826,2.7575,2.7625,2.7625,2.7625,2.7625,2.8248,2.9579,2.9579,3.0268,3.1482,3.1482,3.1482,3.1482,3.1482,3.1482,3.1482,3.1482,3.1409,3.1278,3.1278,3.119,3.094,3.0279,3.0453,3.0789,-0.5174,-0.556,-0.5909,-0.5909,-0.6728,-0.7475,-0.7902,-0.8398,-0.8799,-0.9214,-0.9358,-0.9569,-0.9811,-1.01,-1.0405,-1.0626,-1.072,-1.0712,-1.041,-0.9723,-0.9064,-0.8511,-0.7842,-0.7167,-0.6603,-0.6881,-0.6881,-0.6596,-0.7167,-0.7454,-0.7454,-0.775,-0.7592,-0.7037,-0.7908,-0.8292,-0.8304,0.0,-0.9273,-0.8814,-0.7975,0.0,-0.596,-0.5009,-0.4552,-0.4365,-0.4436,-0.4368,-0.4177,-0.4107,-0.4189,0.0,0.0,-0.4855,-0.5098,0.0,-0.5744,-0.5873,0.0,0.0,0.0,-0.5303,0.0,0.0,0.0,0.0,0.0,0.0,0.0,0.0,0.0,0.0,0.0,0.0,0.0,0.0,0.0,0.0,0.0,0.0,0.0,0.0,1.8155,1.9072,2.0101,2.1185,2.3612,2.518,2.5505,2.648,2.7203,2.7575,2.7625,2.7625,2.7625,2.7625,2.8248,2.9579,2.9579,3.0268,3.1482,3.1482,3.1482,3.1482,3.1482,3.1482,3.1482,3.1482,3.1482,3.1482,3.1482,3.1482,3.1452,3.104,3.1157,3.1319,-0.5314,-0.5969,-0.6526,-0.651,-0.7457,-0.8372,-0.9093,-0.9421,-0.9775,-1.0485,-1.0485,-1.0598,-1.0947,-1.0721,-1.0745,-1.1115,-1.1054,-1.0882,-1.0694,-1.0157,-0.9548,-0.8815,-0.8299,-0.7701,-0.7021,-0.7118,-0.7167,-0.7167,-0.775,-0.8051,-0.8066,-0.8165,-0.7832,-0.7191,-0.7753,0.0,0.0,0.0,0.0,-0.8648,0.0,-0.669,-0.5957,-0.4848,-0.4574,-0.468,-0.4574,-0.4389,-0.4237,-0.4237,0.0,-0.4289,-0.4542,-0.4687,0.0,0.0,0.0,0.0,0.0,0.0,0.0,0.0,0.0,-0.3763,0.0,0.0,0.0,0.0,0.0,0.0,0.0,0.0,0.0,0.0,0.0,0.0,0.0,0.0,0.0,0.0,0.0,0.0,0.0,1.8001,1.9155,2.0762,2.3223,2.4667,2.4696,2.6279,2.7324,2.756,2.7625,2.7625,2.7625,2.7625,2.8188,2.94,2.952,3.0193,3.1345,3.1422,3.1482,3.1482,3.1482,3.1482,3.1482,3.1482,3.1482,3.1482,3.1482,3.1482,3.1482,3.1482,3.1482,3.1422,-0.6783,-0.6944,-0.7007,-0.7046,-0.7936,-0.8747,-0.8868,-0.9775,-1.0485,-1.0561,-1.1206,-1.1142,-1.0013,-1.0857,-1.1135,-1.0099,0.0,0.0,-1.1664,-1.0816,-1.0186,-0.9832,-0.8931,-0.799,-0.7027,-0.7511,-0.7799,-0.7799,-0.8346,-0.8594,-0.8616,-0.9103,-0.877,-0.7839,-0.8288,0.0,0.0,0.0,-0.7759,0.0,-0.6871,-0.6835,0.0,-0.5815,-0.5362,-0.5328,-0.4736,-0.4508,-0.4491,0.0,-0.4763,-0.5039,0.0,-0.4709,-0.5158,0.0,0.0,0.0,0.0,0.0,0.0,0.0,-0.4487,0.0,0.0,0.0,0.0,0.0,0.0,0.0,0.0,0.0,0.0,0.0,0.0,0.0,0.0,0.0,0.0,0.0,0.0,0.0,0.0,1.7104,1.8743,2.1303,2.1355,2.247,2.524,2.5691,2.6367,2.7545,2.7625,2.7625,2.7625,2.7625,2.7949,2.8727,2.931,2.9953,3.0642,3.1255,3.1482,3.1482,3.1482,3.1482,3.1482,3.1482,3.1482,3.1482,3.1482,3.1482,3.1482,3.1482,3.1482,3.1467,-0.7025,-0.7313,-0.7728,-0.7756,-0.8622,-0.9532,-1.016,-1.1247,-1.1965,-1.1965,-1.2267,-1.2428,-1.2348,0.0,0.0,0.0,0.0,-1.2115,0.0,0.0,-1.072,-1.0481,-0.9822,-0.8997,-0.7997,-0.8238,-0.8362,-0.8351,-0.8593,-0.8879,-0.9166,-0.877,-0.8318,-0.7837,-0.7404,0.0,-0.6885,0.0,0.0,0.0,0.0,0.0,0.0,-0.5412,-0.4893,-0.4897,-0.4625,-0.4522,-0.4473,0.0,-0.4648,0.0,0.0,0.0,0.0,0.0,0.0,0.0,0.0,0.0,0.0,0.0,0.0,0.0,-0.3785,0.0,-0.3581,0.0,0.0,0.0,0.0,0.0,0.0,0.0,0.0,0.0,0.0,0.0,0.0,0.0,0.0,0.0,0.0,0.0,0.0,0.0,2.0416,2.1826,2.4343,2.5163,2.6192,2.7545,2.7625,2.7625,2.7625,2.7625,2.7949,2.8591,2.9295,2.9943,3.0493,3.1185,3.1482,3.1482,3.1482,3.1482,3.1482,3.1482,3.1482,3.1482,3.1482,3.1482,3.1482,3.1482,3.1482,3.1482,-0.8059,-0.8388,-0.8915,-0.8915,-0.9618,-1.0465,-1.1455,-1.2508,-1.3134,-1.2992,0.0,0.0,-1.3709,-1.3685,0.0,0.0,-1.2375,-1.2096,0.0,0.0,-1.0988,-1.0694,-1.0418,0.0,0.0,-0.8807,-0.8935,-0.8919,-0.9071,-0.9343,-0.9692,-0.8913,-0.8448,-0.8222,0.0,-0.6513,-0.6346,0.0,0.0,-0.6338,-0.6722,-0.6579,-0.5941,-0.5167,-0.4692,-0.4535,-0.4575,-0.4539,-0.4425,-0.4038,-0.3848,0.0,-0.4938,0.0,0.0,0.0,0.0,0.0,-0.3399,0.0,0.0,0.0,0.0,0.0,0.0,0.0,0.0,0.0,0.0,0.0,0.0,0.0,0.0,0.0,0.0,0.0,0.0,0.0,0.0,0.0,0.0,0.0,0.0,0.0,0.0,0.0,0.0,2.1003,2.3574,2.4597,2.5763,2.7275,2.752,2.7625,2.7625,2.7625,2.7859,2.8323,2.9004,2.9669,3.0258,3.0917,3.1345,3.1482,3.1482,3.1482,3.1482,3.1482,3.1482,3.1482,3.1482,3.1482,3.1482,3.1482,3.1482,3.1482,-1.0661,-1.0669,-1.0728,-1.0728,-1.1031,-1.1521,-1.2249,-1.307,0.0,0.0,0.0,0.0,0.0,0.0,0.0,0.0,0.0,-1.1593,-1.1781,0.0,-1.0694,0.0,0.0,-1.0001,0.0,0.0,-0.9481,-0.9463,-0.9973,-1.025,-1.0275,-1.024,-0.9963,-0.9392,-0.8246,-0.7459,-0.6912,-0.595,-0.5325,-0.4977,-0.514,-0.4957,-0.4643,0.0,-0.5258,-0.4539,-0.4743,0.0,0.0,-0.2783,-0.2271,0.0,0.0,0.0,0.0,0.0,0.0,0.0,0.0,0.0,0.0,-0.1261,0.0,0.0,0.0,0.0,-0.3581,0.0,0.0,0.0,0.0,0.0,0.0,0.0,0.0,0.0,0.0,0.0,0.0,0.0,0.0,0.0,0.0,0.0,0.0,0.0,0.0,0.0,2.3474,2.3759,2.4633,2.6553,2.7245,2.7625,2.7625,2.7625,2.7625,2.767,2.8314,2.8958,2.9639,3.0248,3.0893,3.1482,3.1482,3.1482,3.1482,3.1482,3.1482,3.1482,3.1482,3.1482,3.1482,3.1482,3.1482,3.1482,-1.2043,-1.1935,-1.1535,-1.0931,-1.0869,-1.1408,-1.2663,-1.3746,0.0,0.0,0.0,0.0,0.0,-1.3838,-1.3727,0.0,0.0,-1.2474,-1.2281,-1.1351,0.0,0.0,0.0,-1.0381,0.0,0.0,0.0,0.0,-0.9664,-0.9961,-1.0299,-0.9554,-0.9313,-0.9444,0.0,-0.6943,0.0,0.0,0.0,0.0,0.0,-0.4643,-0.4512,0.0,0.0,-0.4367,-0.3406,-0.3702,0.0,-0.1395,0.0181,0.1017,0.0986,0.0626,0.0336,0.0877,0.1438,0.1504,0.0,0.0,0.0782,-0.0635,0.0,0.0,0.0,0.0,0.0,0.0,0.0,0.0,0.0,0.0,0.0,0.0,0.0,0.0,0.0,0.0,0.0,0.0,0.0,0.0,0.0,0.0,0.0,0.0,0.0,0.0,0.0,2.3021,2.4146,2.65,2.6817,2.7155,2.7625,2.7625,2.7625,2.7625,2.8283,2.8921,2.9565,3.0689,3.1564,3.2161,3.2191,3.2249,3.2176,3.1702,3.1482,3.1482,3.1482,3.1482,3.1482,3.1482,3.1482,3.1482,-1.3004,-1.2829,-1.2324,-1.1661,-1.1715,-1.2182,0.0,0.0,0.0,0.0,-1.4123,0.0,-1.4213,0.0,-1.4517,0.0,-1.3385,-1.2849,-1.2641,-1.1353,0.0,-1.0847,-1.0889,0.0,0.0,0.0,0.0,0.0,0.0,-0.9963,-1.0273,-0.9607,-0.9463,-0.9731,0.0,-0.719,-0.644,0.0,-0.502,0.0,0.0,-0.4505,0.0,0.0,-0.4527,-0.4406,0.0,-0.235,-0.0634,0.1442,0.2814,0.3608,0.3315,0.2956,0.2677,0.2618,0.2709,0.2585,0.1934,0.2357,0.0,0.0561,0.0396,0.0,-0.2123,0.0,0.0,0.0,0.0,0.0,0.0,0.0,0.0,0.0,0.0,0.0,0.0,0.0,0.0,0.0,0.0,0.0,0.0,0.0,0.0,0.0,0.0,0.0,0.0,0.0,2.3669,2.5878,2.6352,2.692,2.756,2.7625,2.7625,2.7625,2.8032,2.8677,2.9515,3.0418,3.1427,3.2498,3.2251,3.236,3.2561,3.182,3.1482,3.1482,3.1482,3.1482,3.1482,3.1482,3.1482,3.1482,-1.3637,-1.3503,-1.3128,-1.2986,-1.3467,0.0,0.0,0.0,-1.3822,0.0,-1.397,-1.4213,-1.4213,-1.4874,-1.5196,-1.4877,-1.3475,0.0,-1.2897,-1.1277,0.0,0.0,-1.0212,-0.985,-0.917,0.0,0.0,0.0,0.0,0.0,-1.0283,-1.0283,-1.0283,-1.0244,-0.9219,0.0,-0.7133,-0.6207,-0.5229,-0.422,-0.4426,-0.4522,-0.4497,-0.429,-0.4176,-0.4102,-0.4683,-0.0469,0.5256,0.539,0.5392,0.535,0.5185,0.497,0.4786,0.4707,0.4596,0.4532,0.4487,0.449,0.4102,0.2387,0.1909,0.0,0.0,0.0,-0.0548,0.0,0.0,0.0,0.0,0.0,0.0,0.0,0.0,0.0,0.0,0.0,0.0,0.0,0.0,0.0,0.0,0.0,0.0,0.0,0.0,0.0,0.0,0.0,2.3291,2.4618,2.5908,2.6891,2.753,2.756,2.7625,2.7625,2.7625,2.8268,2.952,2.9508,3.0656,3.2491,3.179,3.1895,3.2591,3.1865,3.1554,3.1482,3.1554,3.1554,3.1482,3.1482,3.1482,3.1482,-1.4277,-1.4369,-1.4279,0.0,-1.4387,-1.4399,0.0,0.0,0.0,0.0,-1.397,-1.4213,-1.4213,-1.4392,-1.4688,-1.5196,-1.4105,0.0,0.0,0.0,0.0,-1.031,-1.0023,-0.9477,-0.8631,-0.9794,0.0,-0.931,0.0,0.0,-1.0283,-1.0283,-1.0283,-1.0283,0.0,0.0,-0.7177,-0.6642,-0.5617,-0.4433,-0.4472,-0.451,0.0,0.0,0.0711,0.2861,0.2679,0.2954,0.362,0.4938,0.5397,0.5363,0.5135,0.5053,0.4999,0.4894,0.4752,0.4633,0.4636,0.4584,0.4409,0.3917,0.3055,0.2084,0.0,0.0,0.0,0.0,0.0,0.0,0.0,0.0,0.0,0.0,0.0,0.0,0.0,0.0,0.0,0.0,0.0,0.0,0.0,0.0,0.0,0.0,0.0,0.0,0.0,0.0,0.0,2.3906,2.5173,2.6205,2.6825,2.7375,2.7625,2.7625,2.7625,2.8253,2.9443,2.9968,3.13,3.3131,3.2497,3.2638,3.3307,3.2591,3.1998,3.1569,3.2116,3.1983,3.1482,3.1482,3.1482,3.1482,-1.4914,0.0,0.0,-1.5478,0.0,0.0,-1.4249,0.0,0.0,-1.3902,-1.4277,0.0,-1.47,-1.4728,-1.4756,-1.4874,-1.3915,0.0,-1.2834,0.0,0.0,-1.0022,-0.9715,-0.9228,-0.8573,-0.9528,0.0,-0.9271,0.0,0.0,-1.0283,-1.0283,-1.0283,-1.0273,0.0,-0.9023,0.0,-0.7081,-0.5768,-0.4435,-0.3765,0.0,0.0,0.1335,0.374,0.5396,0.5396,0.4776,0.4023,0.5036,0.5376,0.5355,0.526,0.5186,0.5114,0.5036,0.4908,0.4792,0.4792,0.4677,0.4565,0.4572,0.4216,0.3773,0.3619,0.3484,0.3667,0.0,0.5018,0.4775,0.0,0.0,0.0,0.0,0.0,0.0,0.0,0.0,0.0,0.0,0.0,0.0,0.0,0.0,0.0,0.0,0.0,0.0,0.0,0.0,0.0,2.3185,2.4519,2.5671,2.6577,2.7265,2.775,2.8001,2.8001,2.8632,2.9809,3.0231,3.1331,3.2889,3.2567,3.2736,3.3127,3.3038,3.2613,3.2008,3.2451,3.2146,3.1482,3.1482,3.1482,3.1482,-1.5548,0.0,0.0,0.0,0.0,0.0,0.0,-1.4503,0.0,-1.4086,0.0,-1.5312,-1.5312,-1.5371,-1.5108,-1.4451,0.0,-1.272,-1.2028,-1.0801,-1.0,-0.9714,-0.939,-0.9049,-0.8811,-0.9049,0.0,0.0,0.0,0.0,-1.038,-1.0322,-1.0283,-1.0273,0.0,0.0,0.0,-0.7286,-0.5706,-0.4383,-0.3027,-0.1078,0.1356,0.4307,0.5425,0.5379,0.5376,0.5376,0.5376,0.5376,0.5502,0.5557,0.5428,0.5332,0.5286,0.5286,0.5182,0.5128,0.5247,0.5191,0.5064,0.5064,0.5389,0.5749,0.5991,0.6114,0.6627,0.8296,0.8732,0.8714,0.0,0.0,0.0,0.0,0.0,0.0,0.0,0.0,0.0,0.0,0.0,0.0,0.0,0.0,0.0,0.0,0.0,0.0,0.0,0.0,0.0,2.2511,2.3878,2.5183,2.6453,0.0,2.778,2.8379,2.8461,2.9098,3.0176,3.0251,3.1033,3.2293,3.2276,3.2337,3.2538,3.3299,3.3261,3.2735,3.2641,3.2191,3.1614,3.1554,3.1569,3.1614,0.0,0.0,0.0,0.0,0.0,-1.4789,-1.456,-1.4864,-1.4851,-1.4165,-1.4863,-1.5391,-1.5391,-1.54,-1.5352,-1.5167,-1.3838,0.0,0.0,0.0,0.0,-0.9694,-0.9377,-0.9049,-0.8811,-0.9049,-0.9503,0.0,0.0,-1.0225,-1.0801,-1.0478,-1.0283,-1.0283,0.0,0.0,-0.7713,-0.6503,0.0,-0.4462,-0.4201,-0.0612,0.4615,0.5195,0.5369,0.5376,0.5369,0.5432,0.5432,0.5432,0.5881,0.6334,0.562,0.5858,0.6412,0.6412,0.6289,0.6274,0.7007,0.7104,0.7008,0.7008,0.6904,0.6859,0.6864,0.7159,0.7503,0.7848,0.8368,0.8776,0.8735,0.0,0.0,0.0,0.0,0.0,0.0,0.0,0.0,0.0,0.0,0.0,0.0,0.0,0.0,0.0,0.0,0.0,0.0,0.0,0.0,0.0,2.3194,0.0,0.0,0.0,2.714,2.775,2.8259,2.8845,2.9585,3.0072,3.1033,3.2281,3.1732,3.1822,3.2465,3.3216,3.3456,3.3379,3.2819,3.2546,3.2309,3.1717,3.188,3.2309,0.0,0.0,0.0,0.0,0.0,0.0,0.0,-1.4545,-1.506,-1.4736,-1.5421,-1.5979,-1.5979,-1.5633,-1.5225,-1.4805,-1.4049,-1.327,-1.2436,-1.1509,-1.0677,-0.9927,-0.962,0.0,-0.8996,-0.899,-0.9228,-0.9662,0.0,-1.0312,-1.0745,-1.0643,-1.0597,-1.0582,0.0,-0.8865,0.0,0.0,0.0,-0.3228,-0.2295,0.0434,0.4127,0.5035,0.5379,0.5369,0.5428,0.5686,0.6075,0.6075,0.6334,0.6719,0.6728,0.7051,0.7372,0.7372,0.7307,0.7291,0.7731,0.7757,0.7588,0.7588,0.772,0.7901,0.7901,0.8167,0.8475,0.8475,0.8637,0.8791,0.8797,0.6832,0.0,0.0,0.0,0.0,0.0,0.0,0.0,0.0,0.0,0.0,0.0,0.0,0.0,0.0,0.0,0.0,0.0,0.0,0.0,0.0,0.0,0.0,0.0,0.0,0.0,2.8097,2.8685,2.9259,2.99,3.051,3.114,3.1715,3.1788,3.1827,3.1917,3.3032,3.3535,3.3541,3.3248,3.3142,3.3001,3.1924,3.1967,3.2473,0.0,-1.6083,0.0,0.0,-1.4367,0.0,-1.324,-1.4185,-1.5039,-1.5184,-1.6115,-1.6652,-1.6549,-1.5979,-1.5342,-1.451,-1.4332,-1.3586,-1.2135,-1.192,-1.1287,-1.0127,-0.9894,-0.9603,-0.9189,-0.8864,-0.8811,0.0,0.0,0.0,-1.0384,-1.0822,-1.0893,-1.0566,0.0,0.0,0.0,0.0,-0.5437,-0.2472,0.0364,0.2187,0.3414,0.4851,0.5372,0.5428,0.5624,0.6141,0.6785,0.7111,0.7242,0.7372,0.7832,0.8156,0.8291,0.8291,0.8291,0.8285,0.8479,0.8466,0.8318,0.8318,0.863,0.893,0.893,0.9138,0.9283,0.9283,0.9105,0.8844,0.8577,0.743,0.0,0.0,0.0,0.0,0.0,0.0,0.0,0.0,0.0,0.0,0.0,0.0,0.0,0.0,0.0,0.0,0.0,0.0,0.0,0.0,0.0,2.3286,2.4973,0.0,2.695,2.8127,2.8996,2.9626,3.0124,3.0875,3.119,3.1224,3.1805,3.1856,3.1585,3.2765,3.3362,3.3475,3.3398,3.3562,3.362,3.208,3.2067,3.271,0.0,0.0,0.0,0.0,0.0,0.0,-1.4117,-1.4214,-1.444,-1.5205,-1.6601,-1.7246,-1.6539,-1.6436,-1.6093,-1.5352,-1.4619,-1.3828,-1.2948,-1.2197,-1.1261,-1.0127,-1.0066,-0.9814,-0.9196,-0.8573,-0.8396,0.0,0.0,-0.9353,-0.9653,-1.0935,-1.086,-0.9604,0.0,0.0,0.0,-0.6617,-0.5728,-0.373,0.2436,0.505,0.5182,0.5325,0.5372,0.5491,0.6264,0.6654,0.6915,0.8549,0.9075,0.8941,0.8221,0.8549,0.9204,0.9204,0.9204,0.9338,1.0168,1.0345,1.0319,1.0319,1.0164,0.9953,0.9953,0.9794,0.9646,0.9646,0.9406,0.8899,0.7991,0.8196,0.8396,0.0,0.0,0.0,0.0,0.0,0.0,0.0,0.0,0.0,0.0,0.0,0.0,0.0,0.0,0.0,0.0,0.0,0.0,1.9811,0.0,2.2163,2.2876,2.4747,2.6082,2.6811,2.8551,2.9437,2.9515,3.0684,3.119,3.119,3.128,3.1647,3.2207,3.2338,3.2849,3.3461,3.2833,3.3358,3.425,3.2241,3.2358,3.3307,0.0,0.0,0.0,0.0,0.0,0.0,0.0,-1.413,-1.4986,-1.5574,-1.6019,-1.6187,-1.5864,-1.5864,-1.5517,-1.4746,-1.4392,-1.3666,-1.2389,-1.1958,-1.1348,-1.045,-0.9718,-0.916,-0.8871,-0.7886,-0.741,0.0,0.0,0.0,-0.9026,-0.9779,-0.9323,-0.7993,0.0,-0.6701,-0.607,-0.553,-0.3879,-0.1269,0.2309,0.4449,0.5367,0.5415,0.5432,0.5491,0.6396,0.7046,0.7697,0.8877,0.9274,0.9338,0.9524,0.9779,1.011,1.011,1.011,1.0174,1.0498,1.0624,1.0624,1.0624,1.0474,1.0381,1.0381,1.0154,0.994,0.994,0.9684,0.9292,0.8709,0.8523,0.8402,0.8368,0.0,0.0,0.0,0.0,0.0,0.0,0.0,0.0,0.0,0.0,0.0,0.0,0.0,0.0,0.0,0.0,0.0,1.9202,0.0,2.2205,2.3243,2.4837,2.5959,2.6606,2.8142,2.906,2.9409,3.0264,3.0858,3.119,3.119,3.1365,3.1664,3.2122,3.2502,3.2799,3.3006,3.3689,3.4345,3.2719,3.2772,3.3426,-1.2801,0.0,-1.2926,0.0,-1.2783,-1.3145,-1.3015,-1.4064,-1.5099,-1.5687,-1.5548,-1.5468,-1.569,-1.5507,-1.5031,-1.4264,-1.3965,-1.3166,-1.1502,-1.1447,-1.0954,-0.9907,-0.8989,0.0,-0.8302,-0.725,-0.6637,-0.6368,-0.7555,0.0,-0.7909,-0.8308,-0.797,-0.7063,-0.6519,-0.5972,-0.5398,-0.3727,-0.1141,0.1935,0.3056,0.4248,0.5442,0.569,0.5749,0.5947,0.7046,0.7827,0.8484,0.9396,0.9658,0.9786,1.0428,1.0624,1.0624,1.0624,1.0624,1.0624,1.0624,1.0624,1.0624,1.0624,1.0624,1.0624,1.0624,1.0401,1.0221,1.0134,0.9951,0.9704,0.9388,0.8964,0.8745,0.9042,0.0,0.0,0.0,0.0,0.0,0.0,0.0,1.0623,0.0,0.0,0.0,0.0,0.0,0.0,0.0,0.0,0.0,0.0,0.0,0.0,0.0,2.4661,2.5834,2.6329,2.7795,2.8825,2.943,3.0232,3.0825,3.119,3.119,3.119,3.1224,3.1771,3.2105,3.2344,3.2706,3.3533,3.4334,3.3018,3.3042,3.341,-1.0998,-1.1256,-1.1513,-1.0906,-1.1366,-1.2337,-1.3835,-1.4077,-1.4443,-1.5293,-1.541,-1.569,-1.6436,-1.5793,-1.4974,-1.4264,-1.3485,-1.2312,-1.0613,-1.0551,-0.9793,0.0,0.0,-0.7852,-0.7538,-0.6803,-0.6188,-0.5784,0.0,0.0,-0.5967,-0.6665,-0.7121,-0.7257,-0.6337,-0.5414,-0.4315,-0.1054,0.2252,0.5328,0.536,0.5373,0.5509,0.6338,0.6654,0.6915,0.8613,0.9274,0.9402,1.0301,1.0561,1.0561,1.0624,1.0624,1.0624,1.0624,1.0624,1.0624,1.0624,1.0624,1.0624,1.0624,1.0624,1.0624,1.0624,1.0618,1.0474,1.0174,1.0107,0.9985,0.972,0.9691,0.9662,0.9715,0.0,0.0,0.0,0.0,0.0,0.0,0.9213,0.9591,1.1616,0.0,0.0,0.0,0.0,0.0,0.0,0.0,0.0,1.8661,2.063,0.0,2.0626,2.3934,2.5591,2.5647,2.756,2.8789,2.9446,3.0655,3.119,3.119,3.119,3.119,3.119,3.1207,3.1647,3.2264,3.1574,3.2605,3.4337,3.3011,3.294,3.351,-1.0092,-1.0246,-1.0501,-1.0762,-1.1366,-1.2186,-1.3238,-1.3809,-1.4389,-1.5303,-1.4932,-1.4688,-1.4914,-1.4718,-1.4246,0.0,-1.2634,-1.171,0.0,-1.0021,-0.9448,-0.8877,-0.7742,-0.7006,-0.6785,-0.5919,-0.5398,-0.5203,0.0,0.0,-0.5814,-0.6139,-0.594,-0.5403,-0.5083,-0.4786,-0.4133,0.1418,0.4451,0.5385,0.5404,0.5397,0.5432,0.5686,0.6203,0.685,0.8027,0.8812,0.9402,1.0301,1.0624,1.0624,1.0624,1.0624,1.0624,1.0624,1.0624,1.0624,1.0624,1.0624,1.0624,1.0624,1.0624,1.0624,1.0624,1.0624,1.0598,1.0441,1.0456,1.0334,1.0004,0.9946,0.9935,0.9739,0.9606,0.0,0.9535,0.0,0.0,0.0,1.0239,1.0756,0.0,1.1751,0.0,0.0,0.0,0.0,0.0,0.0,0.0,0.0,2.0091,0.0,2.1355,2.3786,2.5167,2.5633,2.7155,2.8215,2.8818,3.0035,3.0578,3.0594,3.1016,3.119,3.119,3.119,3.1331,3.1596,3.1856,3.2398,3.3,3.3119,3.3031,3.2856,-0.9309,-0.9614,-0.9909,-1.0364,-1.0965,-1.1678,-1.2508,-1.3014,-1.358,-1.44,-1.4085,-1.3734,-1.3734,-1.3218,0.0,-1.2565,-1.1516,-1.0521,-0.9709,-0.8807,-0.8161,-0.7837,-0.6785,-0.6179,-0.6029,-0.547,0.0,-0.4951,-0.5366,-0.5467,-0.5321,-0.5336,-0.5068,-0.4474,-0.3223,-0.1939,-0.0489,0.3614,0.5396,0.5387,0.5404,0.5369,0.5491,0.6145,0.6724,0.7372,0.8544,0.9326,0.9849,1.0434,1.0624,1.0618,1.0989,1.0863,1.0624,1.0624,1.0624,1.0624,1.0624,1.0624,1.0624,1.0624,1.0624,1.0624,1.0624,1.0624,1.0624,1.0624,1.0624,1.0555,1.0338,1.0268,1.0246,1.0043,0.9939,0.9878,0.9829,0.0,0.0,0.0,0.0,0.0,0.0,1.2412,0.0,0.0,0.0,0.0,0.0,0.0,0.0,1.8283,1.9913,0.0,2.1342,2.3555,2.4896,2.5293,2.706,2.8134,2.8554,2.9518,3.0112,3.0297,3.0701,3.0999,3.119,3.119,3.119,3.1224,3.1698,3.1911,3.2085,3.3112,3.2917,3.2215,-0.8593,-0.9256,-0.971,-0.971,-1.0269,-1.0957,-1.1732,-1.1894,-1.2159,-1.291,-1.2887,-1.2818,-1.2818,-1.1301,-1.0683,-1.1524,0.0,0.0,-0.8027,-0.7177,-0.6334,-0.5561,-0.5428,-0.5428,-0.5428,-0.5428,-0.5229,-0.4954,-0.4818,-0.4628,-0.4356,-0.4241,-0.4155,-0.4038,-0.0864,0.2376,0.5392,0.5396,0.5427,0.5379,0.5432,0.5428,0.5686,0.7312,0.7962,0.8285,0.9907,1.0561,1.0624,1.0624,1.0624,1.08,1.1593,1.1288,1.0681,1.0681,1.0624,1.0624,1.0624,1.0624,1.0624,1.0624,1.0624,1.0624,1.0624,1.0624,1.0624,1.0624,1.0624,1.0624,1.0624,1.0624,1.0624,1.0624,1.0338,1.0129,1.0129,0.9914,0.9775,0.0,0.0,0.0,0.0,1.2767,1.3611,0.0,0.0,0.0,0.0,0.0,1.7491,1.8673,1.9977,2.0695,2.0798,2.3302,2.4669,2.4862,2.728,2.8425,2.844,2.9057,2.9656,3.0247,3.0281,3.0651,3.119,3.119,3.119,3.119,3.119,3.1281,3.1553,3.2807,3.2553,3.1753,-0.7937,-0.8527,-0.9061,-0.9061,-0.9614,-1.0294,-1.1017,-1.1559,-1.2159,-1.291,-1.1873,-1.1114,-1.1114,-0.9603,-0.8871,-0.9438,-0.8759,-0.8221,-0.8027,-0.7177,-0.6666,-0.6705,-0.5841,-0.5379,-0.5386,-0.5386,-0.4715,-0.3236,-0.3236,-0.3191,-0.3107,-0.1485,-0.0781,-0.066,0.1255,0.337,0.5373,0.5391,0.5422,0.5389,0.5369,0.5818,0.6461,0.685,0.7832,0.9075,0.9466,1.004,1.0624,1.0624,1.0989,1.1531,1.1772,1.1648,1.1531,1.1531,1.1108,1.0624,1.0624,1.0624,1.0624,1.0624,1.0624,1.0624,1.0624,1.0624,1.0624,1.0624,1.0624,1.0624,1.0624,1.0624,1.0624,1.0624,1.0555,1.0485,1.0485,1.0415,1.0624,0.0,1.1495,1.2119,1.3502,1.3852,1.405,0.0,0.0,0.0,0.0,1.5928,1.7269,1.8645,1.9025,1.9709,2.0785,2.2315,2.4085,2.6096,2.7265,2.7795,2.781,2.8425,2.9059,2.9638,3.0107,3.0651,3.119,3.119,3.119,3.119,3.119,3.1213,3.1311,3.1724,3.1694,3.151,-0.7616,-0.8321,-0.8804,-0.8804,-0.9113,-0.9525,-1.0057,-1.0583,-1.0965,-1.1034,-1.0414,-0.9888,-0.9716,-0.8436,-0.7816,-0.8396,-0.7892,-0.7676,-0.7962,-0.6824,-0.6168,-0.632,-0.4964,-0.4159,-0.4164,-0.4164,-0.4105,-0.3919,-0.0606,0.1012,0.1012,0.1282,0.1885,0.275,0.3563,0.45,0.5428,0.5376,0.5379,0.5379,0.5432,0.5947,0.6719,0.7111,0.8156,0.9338,0.9722,1.0174,1.0624,1.0624,1.1108,1.1834,1.1834,1.2074,1.2266,1.1896,1.1226,1.0681,1.1045,1.0863,1.0624,1.0624,1.0624,1.0624,1.0624,1.0624,1.0624,1.0624,1.0624,1.0624,1.0624,1.0624,1.0701,1.1066,1.1136,1.1136,1.1136,1.1136,1.1317,1.1752,1.2149,1.2808,1.4087,1.4501,1.4732,1.4732,1.5177,0.0,1.479,1.5861,1.7022,1.8185,1.8501,1.9336,2.0761,2.2576,2.4501,2.6482,2.7265,2.7625,2.7625,2.7921,2.8561,2.9436,2.9749,3.0406,3.119,3.119,3.1055,3.0838,3.1095,3.0699,3.0076,3.104,3.0872,3.0266,-0.7557,-0.8321,-0.8804,-0.8804,-0.8804,-0.8851,-0.9026,-0.9315,-0.9296,-0.8699,-0.8851,-0.884,-0.856,-0.7297,-0.6506,-0.6796,-0.63,-0.6366,-0.7145,-0.5582,-0.4573,-0.4573,-0.308,-0.2139,-0.1872,-0.1872,-0.2614,-0.4177,0.1954,0.5164,0.5366,0.3852,0.3902,0.5428,0.5428,0.5428,0.5428,0.5428,0.5428,0.5425,0.555,0.6137,0.6981,0.7897,0.8742,0.9594,1.0301,1.0624,1.0624,1.0624,1.1108,1.1834,1.1958,1.2451,1.2879,1.2443,1.1717,1.1108,1.1648,1.1303,1.0771,1.0624,1.0624,1.0624,1.0624,1.0624,1.0624,1.0624,1.0701,1.0771,1.0771,1.0911,1.1136,1.1714,1.1921,1.1939,1.1799,1.1881,1.2003,1.2172,1.2739,1.3526,1.428,1.5022,1.541,1.541,1.541,1.541,1.541,1.6198,1.6998,1.7683,1.8457,1.9509,2.0961,2.3192,2.5021,2.6344,2.7069,2.7509,2.7625,2.7625,2.8245,2.9383,2.9389,3.0062,3.119,3.119,3.0838,3.0351,3.0878,3.0123,2.8936,3.0425,3.0085,2.9107,-0.767,-0.8321,-0.8804,-0.8804,-0.8804,-0.8691,-0.841,-0.8495,-0.8444,-0.7958,-0.7595,-0.7433,-0.7372,-0.5014,-0.2806,-0.1334,-0.1133,-0.1801,-0.3413,-0.1867,-0.0866,-0.0868,-0.06,0.0267,0.1805,0.1876,0.1743,0.1475,0.2562,0.3914,0.5376,0.51,0.5163,0.5428,0.5428,0.5428,0.5428,0.5428,0.5428,0.5491,0.6233,0.7015,0.7892,0.8748,0.9658,1.0434,1.0555,1.0624,1.0624,1.0624,1.1108,1.1896,1.2573,1.2887,1.3252,1.4501,1.3786,1.252,1.1958,1.1737,1.1425,1.0771,1.0624,1.0624,1.0624,1.0624,1.0624,1.0624,1.1136,1.1636,1.1636,1.216,1.2459,1.187,1.2356,1.2553,1.1909,1.2397,1.3099,1.3767,1.3965,1.4338,1.5119,1.5332,1.541,1.541,1.541,1.541,1.541,1.6605,1.7571,1.8362,1.9095,2.0265,2.2031,2.3065,2.4259,2.5568,2.6307,2.6982,2.7625,2.7625,2.8245,2.9399,2.9424,3.0074,3.119,3.119,3.0838,3.0293,3.0393,3.0251,2.9908,2.9215,2.9438,3.01,-0.702,-0.7723,-0.8209,-0.8209,-0.8209,-0.8032,-0.7444,-0.7548,-0.7491,-0.6876,-0.6863,-0.6387,-0.4875,-0.4364,-0.2277,0.2479,0.2883,0.2546,0.1737,0.1535,0.187,0.288,0.2876,0.328,0.4164,0.4169,0.4172,0.4172,0.418,0.4582,0.5379,0.5432,0.5428,0.5428,0.5428,0.5428,0.5428,0.5428,0.5701,0.6109,0.6559,0.7529,0.8759,0.9145,0.9849,1.0624,1.0624,1.0624,1.0688,1.1108,1.1779,1.2512,1.2887,1.3606,1.4273,1.4145,1.3914,1.3485,1.2634,1.2126,1.1714,1.1347,1.0918,1.0624,1.0624,1.0918,1.1277,1.1277,1.187,1.2429,1.2432,1.2728,1.302,1.3089,1.3398,1.3526,1.3165,1.3399,1.3786,1.4163,1.4194,1.4501,1.5332,1.541,1.541,1.541,1.5625,1.5989,1.644,1.7643,1.8717,1.9505,2.0531,2.1467,2.2284,2.3354,2.4405,2.5408,2.6146,2.6878,2.7625,2.7625,2.8064,2.8914,2.8903,2.9406,3.0208,3.0208,2.9892,2.9361,2.9673,2.9435,2.881,2.8606,2.8664,2.8969,-0.6475,-0.7074,-0.745,-0.745,-0.745,-0.7182,-0.6475,-0.6667,-0.6587,-0.5799,-0.6154,-0.5645,-0.3579,-0.3823,-0.1745,0.4244,0.5135,0.5403,0.5389,0.409,0.3956,0.5322,0.5586,0.5782,0.5977,0.5782,0.5715,0.5715,0.5519,0.5386,0.5386,0.5369,0.5428,0.5428,0.5428,0.5498,0.5704,0.5704,0.6187,0.7008,0.7214,0.8115,0.9303,0.9536,1.0047,1.0624,1.0624,1.0744,1.0982,1.1586,1.2328,1.3009,1.3252,1.4154,1.4932,1.3855,1.4025,1.4332,1.3485,1.2813,1.2336,1.2122,1.1636,1.1136,1.1136,1.1643,1.2052,1.2111,1.2749,1.3255,1.3277,1.345,1.3678,1.4127,1.4347,1.4415,1.4203,1.4347,1.4492,1.4492,1.4492,1.4723,1.5342,1.5508,1.5566,1.5566,1.6138,1.6799,1.7497,1.8833,2.0064,2.1027,2.1869,2.2362,2.2513,2.3509,2.4389,2.5162,2.5887,2.6602,2.7357,2.7524,2.7944,2.8511,2.8511,2.8826,2.9406,2.9406,2.9042,2.8559,2.8996,2.8638,2.786,2.8189,2.8091,2.7976,-0.6588,-0.6642,-0.6696,-0.6696,-0.6696,-0.6421,-0.5706,-0.5949,-0.593,-0.5013,-0.5253,-0.5399,-0.5213,-0.2323,0.0471,0.2679,0.4439,0.5386,0.5432,0.5292,0.5233,0.5379,0.6148,0.6985,0.7772,0.6985,0.6593,0.6593,0.5818,0.5428,0.5428,0.5428,0.5428,0.5428,0.5428,0.5841,0.6602,0.6602,0.7087,0.7981,0.8784,0.9215,0.9367,1.018,1.0561,1.0624,1.0624,1.1108,1.171,1.1772,1.2328,1.313,1.3906,1.4204,1.4392,1.505,1.5294,1.5108,1.4323,1.4046,1.3859,1.3119,1.2838,1.283,1.283,1.2838,1.2883,1.289,1.3547,1.4114,1.4127,1.4723,1.5022,1.4338,1.4809,1.5032,1.428,1.4868,1.5332,1.5332,1.5332,1.5332,1.541,1.5781,1.6076,1.6076,1.7195,1.7882,1.7933,1.9901,2.162,2.2867,2.2527,2.2514,2.3062,2.3173,2.3585,2.441,2.5107,2.5837,2.6616,2.7306,2.7944,2.8511,2.8511,2.8826,2.9406,2.9406,2.9042,2.8511,2.8559,2.8511,2.8367,2.786,2.7993,2.8442,-0.5819,-0.5923,-0.5923,-0.5923,-0.5923,-0.571,-0.5003,-0.502,-0.5053,-0.4814,-0.485,-0.4968,-0.5389,-0.0132,0.3163,0.2744,0.4361,0.583,0.6894,0.6005,0.5624,0.621,0.6527,0.7111,0.7962,0.7697,0.7242,0.6719,0.6396,0.5947,0.5428,0.5935,0.6214,0.6254,0.6743,0.7224,0.7499,0.7493,0.7986,0.8812,0.9186,0.9591,1.018,1.1045,1.1045,1.0688,1.117,1.1531,1.1896,1.2389,1.3061,1.3906,1.4688,1.4932,1.4991,1.5294,1.541,1.5352,1.505,1.4566,1.4123,1.3828,1.3374,1.3005,1.3005,1.3374,1.3742,1.374,1.4357,1.4945,1.4945,1.5187,1.5332,1.4964,1.5187,1.5264,1.4964,1.5187,1.5584,1.6036,1.569,1.5584,1.6036,1.655,1.6935,1.6935,1.8341,1.9388,1.9947,2.1536,2.26,2.3065,2.2924,2.2865,2.3078,2.3078,2.3518,2.4328,2.5036,2.5783,2.651,2.7255,2.771,2.7944,2.7944,2.8091,2.8255,2.8255,2.8125,2.7944,2.7944,2.7944,2.7894,2.766,2.776,2.8,-0.5113,-0.5164,-0.5164,-0.5164,-0.5167,-0.5007,-0.4577,-0.448,-0.4528,-0.4694,-0.3762,-0.2833,-0.2092,0.2413,0.4882,0.3682,0.4697,0.602,0.7404,0.6715,0.6465,0.7111,0.7372,0.7892,0.8807,0.8544,0.8091,0.7502,0.7242,0.6789,0.621,0.6854,0.7129,0.7157,0.7761,0.8168,0.8435,0.8393,0.8931,0.9705,0.9705,1.0223,1.1066,1.1571,1.1593,1.1421,1.171,1.2135,1.2626,1.2879,1.3726,1.4688,1.5235,1.541,1.541,1.541,1.541,1.541,1.541,1.5022,1.4578,1.4578,1.4185,1.3754,1.3754,1.4194,1.4578,1.4578,1.5032,1.541,1.541,1.541,1.5507,1.5716,1.5736,1.5833,1.6073,1.6083,1.6301,1.6821,1.6197,1.6087,1.7024,1.7403,1.7733,1.817,1.9666,2.0892,2.1765,2.2613,2.3078,2.3078,2.3078,2.3078,2.3078,2.3078,2.3484,2.4292,2.5063,2.5783,2.651,2.7255,2.7625,2.7625,2.7625,2.7625,2.7625,2.7625,2.7625,2.7625,2.7625,2.7625,2.7625,2.7625,2.7625,2.7685,-0.4519,-0.4519,-0.4519,-0.4519,-0.4473,-0.448,-0.448,-0.4497,-0.4514,-0.4458,-0.1847,0.1371,0.4958,0.5371,0.5383,0.5435,0.5446,0.5763,0.6654,0.7567,0.8021,0.8027,0.8877,0.9722,1.0561,0.9786,0.9338,0.9274,0.842,0.8027,0.8027,0.7992,0.8037,0.804,0.8016,0.8518,0.9283,0.9289,0.9844,1.0624,1.0624,1.11,1.1791,1.1851,1.2328,1.2887,1.2074,1.2862,1.4085,1.3312,1.4085,1.541,1.541,1.541,1.541,1.541,1.541,1.541,1.541,1.541,1.541,1.541,1.541,1.541,1.541,1.541,1.541,1.541,1.541,1.541,1.541,1.541,1.5678,1.639,1.6541,1.677,1.7512,1.7578,1.7578,1.7633,1.6978,1.707,1.8407,1.8192,1.8534,1.9806,2.1136,2.2261,2.3078,2.3078,2.3078,2.3078,2.3078,2.3078,2.3078,2.3078,2.3484,2.4292,2.5063,2.5783,2.651,2.7255,2.7625,2.7625,2.7625,2.7625,2.7625,2.7625,2.7625,2.7625,2.7625,2.7625,2.7625,2.7625,2.7625,2.7625,-0.4487,-0.4487,-0.4487,-0.4487,-0.449,-0.4147,-0.307,-0.3816,-0.3766,-0.1618,0.1266,0.3225,0.3505,0.4502,0.586,0.7577,0.7367,0.7787,0.9225,1.1188,1.1828,1.0635,1.0292,1.0268,1.0561,1.1469,1.1017,0.9274,0.9621,0.9163,0.8027,0.863,0.8888,0.8947,0.9545,0.9983,1.0268,1.0841,1.1206,1.1481,1.2073,1.2435,1.2708,1.3287,1.3304,1.307,1.3356,1.3786,1.4154,1.3906,1.4569,1.541,1.541,1.541,1.541,1.541,1.541,1.541,1.541,1.541,1.541,1.541,1.541,1.541,1.541,1.541,1.541,1.541,1.541,1.5566,1.6055,1.6191,1.6399,1.717,1.7258,1.7367,1.7556,1.7578,1.7797,1.8328,1.7743,1.7779,1.9142,1.9529,1.9981,2.0733,2.2007,2.2823,2.3078,2.3078,2.3078,2.3078,2.3078,2.3078,2.3078,2.3078,2.3484,2.4292,2.5063,2.5783,2.651,2.7255,2.7625,2.7625,2.7625,2.7625,2.7625,2.7625,2.7625,2.7625,2.7625,2.7625,2.7625,2.7625,2.7625,2.7625,-0.3471,-0.3583,-0.3583,-0.3583,-0.4098,-0.416,-0.3249,-0.286,-0.1229,0.2954,0.5095,0.5847,0.4941,0.5732,0.7024,0.8762,0.9191,0.9857,1.0857,1.2978,1.3554,1.2273,1.231,1.2143,1.1545,1.252,1.2266,1.0773,1.1253,1.0989,0.9983,1.0508,1.0591,1.0358,1.1143,1.1354,1.1129,1.194,1.2242,1.2342,1.28,1.316,1.3528,1.3999,1.4085,1.3965,1.4145,1.4392,1.4628,1.4332,1.4746,1.541,1.541,1.541,1.541,1.541,1.541,1.541,1.541,1.5613,1.5813,1.5813,1.5613,1.541,1.541,1.541,1.541,1.541,1.5644,1.5966,1.6437,1.6747,1.7203,1.7921,1.8063,1.8163,1.8436,1.8447,1.8661,1.9097,1.8501,1.8631,2.022,2.0358,2.0851,2.1896,2.2625,2.3078,2.3078,2.3078,2.3078,2.3078,2.3078,2.3078,2.3078,2.3078,2.3484,2.4292,2.5063,2.5783,2.651,2.7255,2.7625,2.7625,2.7625,2.7625,2.7625,2.7625,2.7625,2.7625,2.7625,2.7625,2.7625,2.7625,2.7625,2.7625,-0.1729,-0.2009,-0.2009,-0.2009,-0.314,-0.4113,-0.4113,-0.1738,0.2015,0.7682,0.8644,0.8577,0.8054,0.8147,0.854,0.9265,1.0988,1.2058,1.2058,1.3442,1.4013,1.3364,1.474,1.4789,1.3364,1.3243,1.313,1.3009,1.307,1.307,1.3009,1.3009,1.2634,1.1965,1.2657,1.2578,1.1966,1.2759,1.3119,1.3098,1.3174,1.3718,1.4387,1.4319,1.4805,1.54,1.4569,1.4805,1.5294,1.4569,1.4815,1.5468,1.541,1.541,1.541,1.541,1.541,1.541,1.5468,1.5975,1.6536,1.657,1.6069,1.5584,1.5624,1.5576,1.5576,1.5576,1.6123,1.6643,1.6686,1.7256,1.7946,1.8685,1.8871,1.9105,1.9695,1.985,1.985,1.9798,1.9202,1.9521,2.1325,2.099,2.1326,2.299,2.3078,2.3078,2.3078,2.3078,2.3078,2.3078,2.3078,2.3078,2.3078,2.3078,2.3484,2.4292,2.5063,2.5783,2.651,2.7255,2.7625,2.7625,2.7625,2.7625,2.7625,2.7625,2.7625,2.7625,2.7625,2.7625,2.7625,2.7625,2.7625,2.764,-0.0392,-0.0504,-0.0504,-0.0504,-0.0728,-0.0953,-0.0953,-0.0393,0.1284,0.4908,0.7351,0.8202,0.6634,0.7645,0.8884,1.0056,1.2841,1.4601,1.4601,1.5467,1.5881,1.5718,1.6599,1.6655,1.5776,1.5157,1.4273,1.3009,1.3606,1.3606,1.3009,1.3009,1.2887,1.2765,1.2948,1.2894,1.2805,1.3614,1.3915,1.3974,1.4646,1.531,1.5935,1.537,1.5633,1.6151,1.54,1.5225,1.5352,1.5167,1.5633,1.6151,1.5575,1.541,1.541,1.541,1.541,1.5526,1.6093,1.6368,1.6655,1.7236,1.7247,1.711,1.7132,1.7101,1.7101,1.7101,1.726,1.7513,1.8105,1.8346,1.8697,1.9443,2.0001,2.0211,1.9863,2.0245,2.0396,1.985,1.9643,2.0079,2.138,2.2097,2.2695,2.3053,2.3078,2.3078,2.3078,2.3078,2.3078,2.3078,2.3078,2.3078,2.3078,2.3078,2.3484,2.4292,2.5063,2.5783,2.651,2.7255,2.7625,2.7625,2.7625,2.7625,2.7625,2.7625,2.7625,2.7625,2.7625,2.7625,2.7625,2.7625,2.7625,2.7775,-0.0,-0.0,-0.0,-0.0,-0.0,0.0952,0.3758,0.4212,0.4761,0.6282,0.7852,0.8637,0.808,0.9004,1.0355,1.2057,1.4159,1.541,1.541,1.6415,1.6866,1.6549,1.7523,1.7797,1.7034,1.698,1.6172,1.466,1.508,1.508,1.466,1.466,1.4255,1.3614,1.395,1.3934,1.3657,1.4446,1.479,1.48,1.5255,1.5837,1.6469,1.6078,1.6371,1.6922,1.6197,1.569,1.5526,1.6187,1.6472,1.6482,1.6472,1.6461,1.6461,1.6461,1.6461,1.6518,1.6922,1.7302,1.7665,1.8009,1.8377,1.8447,1.7743,1.7589,1.7589,1.7589,1.8144,1.8748,1.9108,1.9455,1.9811,2.0233,2.0562,2.0689,2.0343,2.0841,2.1099,2.0756,2.0706,2.118,2.2378,2.321,2.3649,2.3649,2.3989,2.4047,2.3708,2.3649,2.3813,2.4208,2.3884,2.3826,2.4208,2.3826,2.406,2.4851,2.5231,2.5618,2.6014,2.7086,2.7625,2.7625,2.7625,2.7625,2.7625,2.7625,2.7625,2.7625,2.7625,2.7625,2.7625,2.7625,2.7625,2.7805,0.0781,0.0559,0.028,0.0056,0.0391,0.2571,0.7987,0.8822,0.8819,0.8797,0.8777,0.9113,1.0006,1.0692,1.2028,1.42,1.5255,1.5786,1.5786,1.7258,1.7861,1.7213,1.8507,1.8838,1.8004,1.8608,1.8182,1.6708,1.68,1.68,1.6708,1.6708,1.6005,1.4777,1.5332,1.5204,1.4629,1.5185,1.5488,1.5576,1.5576,1.613,1.6872,1.6764,1.7133,1.7675,1.6968,1.6368,1.613,1.7246,1.7302,1.6978,1.7468,1.7578,1.7578,1.7578,1.7578,1.7633,1.7743,1.8221,1.8768,1.898,1.9503,1.9699,1.8539,1.8124,1.8021,1.8108,1.9101,1.994,2.0015,2.056,2.0943,2.0943,2.1032,2.107,2.0987,2.1499,2.1852,2.1697,2.189,2.2442,2.3506,2.4149,2.4509,2.4509,2.5063,2.5119,2.4509,2.4509,2.4794,2.5398,2.4794,2.4794,2.5398,2.4794,2.4794,2.5398,2.5508,2.5563,2.5618,2.6967,2.7625,2.7625,2.7625,2.7625,2.7625,2.7625,2.7625,2.7625,2.7625,2.7625,2.7625,2.7625,2.7625,2.7805,0.3837,0.2781,0.1503,0.0221,0.2103,0.4912,0.8282,0.8825,0.8808,0.8784,0.8777,0.889,0.9172,1.0948,1.2946,1.5061,1.6455,1.7247,1.7247,1.9071,2.0165,2.0052,2.086,2.0703,1.9453,2.0041,1.9366,1.7468,1.8043,1.8043,1.7468,1.7468,1.7346,1.7124,1.6585,1.6311,1.6145,1.5605,1.58,1.6359,1.6359,1.7196,1.8326,1.7684,1.7913,1.8458,1.7718,1.7786,1.8167,1.7743,1.7961,1.8328,1.7797,1.7578,1.7578,1.7578,1.7578,1.7743,1.8382,1.8608,1.8967,2.0232,2.0581,2.0752,2.1046,2.027,1.9645,2.0245,2.0515,2.0814,2.1352,2.1508,2.1581,2.1581,2.2052,2.225,2.1676,2.2126,2.2346,2.1758,2.2663,2.3409,2.3575,2.4585,2.5231,2.5231,2.5342,2.5342,2.5231,2.5231,2.5287,2.5398,2.5287,2.5287,2.5398,2.5287,2.5287,2.5398,2.6068,2.6336,2.6404,2.7203,2.7625,2.7625,2.7625,2.7625,2.7625,2.7625,2.7625,2.7625,2.7625,2.7625,2.7625,2.7625,2.7625,2.7805,0.5311,0.5563,0.5403,0.3917,0.4078,0.537,0.8342,0.8788,0.8945,0.9327,0.9909,1.0379,1.0538,1.2215,1.4193,1.6392,1.7137,1.7813,1.8565,1.9876,2.0611,2.0611,2.1322,2.1397,2.0851,2.1465,2.1164,1.9864,1.9775,1.9366,1.8773,1.8773,1.8359,1.7578,1.7246,1.7132,1.7077,1.6748,1.6842,1.7106,1.7092,1.7741,1.8658,1.8358,1.8685,1.9251,1.8943,1.8501,1.8167,1.8661,1.8768,1.8715,1.8821,1.9073,1.9322,1.8927,1.9073,1.9386,1.9307,1.9307,1.9567,2.0547,2.0818,2.0975,2.154,2.1266,2.0938,2.1223,2.1605,2.1963,2.2222,2.2265,2.2265,2.2265,2.2512,2.2593,2.2309,2.2802,2.3084,2.2801,2.3564,2.4234,2.4659,2.5488,2.6014,2.6014,2.639,2.6428,2.6068,2.6014,2.6215,2.6602,2.6215,2.6215,2.664,2.6215,2.6215,2.6654,2.6549,2.651,2.651,2.7255,2.7625,2.7625,2.7625,2.7625,2.7625,2.7625,2.7625,2.7625,2.7625,2.7625,2.7625,2.7625,2.7625,2.7805]},{"header":{"parameterUnit":"m.s-1","parameterCategory":1,"la1":30.6,"la2":28.766,"lo1":-90.7593,"lo2":-88.6598,"dx":0.0162,"dy":0.0183,"nx":116,"ny":114,"refTime":"2022-12-04T18:00:00:Z","depth":0,"parameterNumber":3,"parameterNumberName":"V-component_of_WINDS"},"data":[0.0,0.0,0.0,0.0,0.0,0.0,0.0,0.0,0.0,0.0,0.0,0.0,0.0,0.0,0.0,0.0,0.0,0.0,0.0,0.0,0.0,0.0,0.0,0.0,0.0,0.0,0.0,0.0,0.0,0.0,0.0,0.0,0.0,0.0,0.0,0.0,0.0,0.0,0.0,0.0,0.0,0.0,0.0,0.0,0.0,0.0,0.0,0.0,0.0,0.0,0.0,0.0,0.0,0.0,0.0,0.0,0.0,0.0,0.0,0.0,0.0,0.0,0.0,0.0,0.0,0.0,0.0,0.0,0.0,0.0,0.0,0.0,0.0,0.0,0.0,0.0,0.0,0.0,0.0,0.0,0.0,0.0,0.0,0.0,0.0,0.0,0.0,0.0,0.0,0.0,0.0,0.0,0.0,0.0,0.0,0.0,0.0,0.0,0.0,0.0,0.0,0.0,0.0,0.0,0.0,0.0,0.0,0.0,0.0,0.0,0.0,0.0,0.0,0.0,0.0,0.0,0.0,0.0,0.0,0.0,0.0,0.0,0.0,0.0,0.0,0.0,0.0,0.0,0.0,0.0,0.0,0.0,0.0,0.0,0.0,0.0,0.0,0.0,0.0,0.0,0.0,0.0,0.0,0.0,0.0,0.0,0.0,0.0,0.0,0.0,0.0,0.0,0.0,0.0,0.0,0.0,0.0,0.0,0.0,0.0,0.0,0.0,0.0,0.0,0.0,0.0,0.0,0.0,0.0,0.0,0.0,0.0,0.0,0.0,0.0,0.0,0.0,0.0,0.0,0.0,0.0,0.0,0.0,0.0,0.0,0.0,0.0,0.0,0.0,0.0,0.0,0.0,0.0,0.0,0.0,0.0,0.0,0.0,0.0,0.0,0.0,0.0,0.0,0.0,0.0,0.0,0.0,0.0,0.0,0.0,0.0,0.0,0.0,0.0,0.0,0.0,0.0,0.0,0.0,0.0,0.0,0.0,0.0,0.0,0.0,0.0,0.0,0.0,0.0,0.0,0.0,0.0,0.0,0.0,0.0,0.0,0.0,0.0,0.0,0.0,0.0,0.0,0.0,0.0,0.0,0.0,0.0,0.0,0.0,0.0,0.0,0.0,0.0,0.0,0.0,0.0,0.0,0.0,0.0,0.0,0.0,0.0,0.0,0.0,0.0,0.0,0.0,0.0,0.0,0.0,0.0,0.0,0.0,0.0,0.0,0.0,0.0,0.0,0.0,0.0,0.0,0.0,0.0,0.0,0.0,0.0,0.0,0.0,0.0,0.0,0.0,0.0,0.0,0.0,0.0,0.0,0.0,0.0,0.0,0.0,0.0,0.0,0.0,0.0,0.0,0.0,0.0,0.0,0.0,0.0,0.0,0.0,0.0,0.0,0.0,0.0,0.0,0.0,0.0,0.0,0.0,0.0,0.0,0.0,0.0,0.0,0.0,0.0,0.0,0.0,0.0,0.0,0.0,0.0,0.0,0.0,0.0,0.0,0.0,0.0,0.0,0.0,0.0,0.0,0.0,0.0,0.0,0.0,0.0,0.0,0.0,0.0,0.0,0.0,0.0,0.0,0.0,0.0,0.0,0.0,0.0,0.0,0.0,0.0,0.0,0.0,0.0,0.0,0.0,0.0,0.0,0.0,0.0,0.0,0.0,0.0,0.0,0.0,0.0,0.0,0.0,0.0,0.0,0.0,0.0,0.0,0.0,0.0,0.0,0.0,0.0,0.0,0.0,0.0,0.0,0.0,0.0,0.0,0.0,0.0,0.0,0.0,0.0,0.0,0.0,0.0,0.0,0.0,0.0,0.0,0.0,0.0,0.0,0.0,0.0,0.0,0.0,0.0,0.0,0.0,0.0,0.0,0.0,0.0,0.0,0.0,0.0,0.0,0.0,0.0,0.0,0.0,0.0,0.0,0.0,0.0,0.0,0.0,0.0,0.0,0.0,0.0,0.0,0.0,0.0,0.0,0.0,0.0,0.0,0.0,0.0,0.0,0.0,0.0,0.0,0.0,0.0,0.0,0.0,0.0,0.0,0.0,0.0,0.0,0.0,0.0,0.0,0.0,0.0,0.0,0.0,0.0,0.0,0.0,0.0,0.0,0.0,0.0,0.0,0.0,0.0,0.0,0.0,0.0,0.0,0.0,0.0,0.0,0.0,0.0,0.0,0.0,0.0,0.0,0.0,0.0,0.0,0.0,0.0,0.0,0.0,0.0,0.0,0.0,0.0,0.0,0.0,0.0,0.0,0.0,0.0,0.0,0.0,0.0,0.0,0.0,0.0,0.0,0.0,0.0,0.0,0.0,0.0,0.0,0.0,0.0,0.0,0.0,0.0,0.0,0.0,0.0,0.0,0.0,0.0,0.0,0.0,0.0,0.0,0.0,0.0,0.0,0.0,0.0,0.0,0.0,0.0,0.0,0.0,0.0,0.0,0.0,0.0,0.0,0.0,0.0,0.0,0.0,0.0,0.0,0.0,0.0,0.0,0.0,0.0,0.0,0.0,0.0,0.0,0.0,0.0,0.0,0.0,0.0,0.0,0.0,0.0,0.0,0.0,0.0,0.0,0.0,0.0,0.0,0.0,0.0,0.0,0.0,0.0,0.0,0.0,0.0,0.0,0.0,0.0,0.0,0.0,0.0,0.0,0.0,0.0,0.0,0.0,0.0,0.0,0.0,0.0,0.0,0.0,0.0,0.0,0.0,0.0,0.0,0.0,0.0,0.0,0.0,0.0,0.0,0.0,0.0,0.0,0.0,0.0,0.0,0.0,0.0,0.0,0.0,0.0,0.0,0.0,0.0,0.0,0.0,0.0,0.0,0.0,0.0,0.0,0.0,0.0,0.0,0.0,0.0,0.0,0.0,0.0,0.0,0.0,0.0,0.0,0.0,0.0,0.0,0.0,0.0,0.0,0.0,0.0,0.0,0.0,0.0,0.0,0.0,0.0,0.0,0.0,0.0,0.0,0.0,0.0,0.0,0.0,0.0,0.0,0.0,0.0,0.0,0.0,0.0,0.0,0.0,0.0,0.0,0.0,0.0,0.0,0.0,0.0,0.0,0.0,0.0,0.0,0.0,0.0,0.0,0.0,0.0,0.0,0.0,0.0,0.0,0.0,0.0,0.0,0.0,0.0,0.0,0.0,0.0,0.0,0.0,0.0,0.0,0.0,0.0,0.0,0.0,0.0,0.0,0.0,0.0,0.0,0.0,0.0,0.0,0.0,0.0,0.0,0.0,0.0,0.0,0.0,0.0,0.0,0.0,0.0,0.0,0.0,0.0,0.0,0.0,0.0,0.0,0.0,0.0,0.0,0.0,0.0,0.0,0.0,0.0,0.0,0.0,0.0,0.0,0.0,0.0,0.0,0.0,0.0,0.0,0.0,0.0,0.0,0.0,0.0,0.0,0.0,0.0,0.0,0.0,0.0,0.0,0.0,0.0,0.0,0.0,0.0,0.0,0.0,0.0,0.0,0.0,0.0,0.0,0.0,0.0,0.0,0.0,0.0,0.0,0.0,0.0,0.0,0.0,0.0,0.0,0.0,0.0,0.0,0.0,0.0,0.0,0.0,0.0,0.0,0.0,0.0,0.0,0.0,0.0,0.0,0.0,0.0,0.0,0.0,0.0,0.0,0.0,0.0,0.0,0.0,0.0,0.0,0.0,0.0,0.0,0.0,0.0,0.0,0.0,0.0,0.0,0.0,0.0,0.0,0.0,0.0,0.0,0.0,0.0,0.0,0.0,0.0,0.0,0.0,0.0,0.0,0.0,0.0,0.0,0.0,0.0,0.0,0.0,0.0,0.0,0.0,0.0,0.0,0.0,0.0,0.0,0.0,0.0,0.0,0.0,0.0,0.0,0.0,0.0,0.0,0.0,0.0,0.0,0.0,0.0,0.0,0.0,0.0,0.0,0.0,0.0,0.0,0.0,0.0,0.0,0.0,0.0,0.0,0.0,0.0,0.0,0.0,0.0,0.0,0.0,0.0,0.0,0.0,0.0,0.0,0.0,0.0,0.0,0.0,0.0,0.0,0.0,0.0,0.0,0.0,0.0,0.0,0.0,0.0,0.0,0.0,0.0,0.0,0.0,0.0,0.0,0.0,0.0,0.0,0.0,0.0,0.0,0.0,0.0,0.0,0.0,0.0,0.0,0.0,0.0,0.0,0.0,0.0,0.0,0.0,0.0,0.0,0.0,0.0,0.0,0.0,0.0,0.0,0.0,0.0,0.0,0.0,0.0,0.0,0.0,0.0,0.0,0.0,0.0,0.0,0.0,0.0,0.0,0.0,0.0,0.0,0.0,0.0,0.0,0.0,0.0,0.0,0.0,0.0,0.0,0.0,0.0,0.0,0.0,0.0,0.0,0.0,0.0,0.0,0.0,0.0,0.0,0.0,0.0,0.0,0.0,0.0,0.0,0.0,0.0,0.0,0.0,0.0,0.0,0.0,0.0,0.0,0.0,0.0,0.0,0.0,0.0,0.0,0.0,0.0,0.0,0.0,0.0,0.0,0.0,0.0,0.0,0.0,0.0,0.0,0.0,0.0,0.0,0.0,0.0,0.0,0.0,0.0,0.0,0.0,0.0,0.0,0.0,0.0,0.0,0.0,0.0,0.0,0.0,0.0,0.0,0.0,0.0,0.0,0.0,0.0,0.0,0.0,0.0,0.0,0.0,0.0,0.0,0.0,0.0,0.0,0.0,0.0,0.0,0.0,0.0,0.0,0.0,0.0,0.0,0.0,0.0,0.0,0.0,0.0,0.0,0.0,0.0,0.0,0.0,0.0,0.0,0.0,0.0,0.0,0.0,0.0,0.0,0.0,0.0,0.0,0.0,0.0,0.0,0.0,0.0,0.0,0.0,0.0,0.0,0.0,0.0,0.0,0.0,0.0,0.0,0.0,0.0,0.0,0.0,0.0,0.0,0.0,0.0,0.0,0.0,0.0,0.0,0.0,0.0,0.0,0.0,0.0,0.0,0.0,0.0,0.0,0.0,0.0,0.0,0.0,0.0,0.0,0.0,0.0,0.0,0.0,0.0,0.0,0.0,0.0,0.0,0.0,0.0,0.0,0.0,0.0,0.0,0.0,0.0,0.0,0.0,0.0,0.0,0.0,0.0,0.0,0.0,0.0,0.0,0.0,0.0,0.0,0.0,0.0,0.0,0.0,0.0,0.0,0.0,0.0,0.0,0.0,0.0,0.0,0.0,0.0,0.0,0.0,0.0,0.0,0.0,0.0,0.0,0.0,0.0,0.0,0.0,0.0,0.0,0.0,0.0,0.0,0.0,0.0,0.0,0.0,0.0,0.0,0.0,0.0,0.0,0.0,0.0,0.0,0.0,0.0,0.0,0.0,0.0,0.0,0.0,0.0,0.0,0.0,0.0,0.0,0.0,0.0,0.0,0.0,0.0,0.0,0.0,0.0,0.0,0.0,0.0,0.0,0.0,0.0,0.0,0.0,0.0,0.0,0.0,0.0,0.0,0.0,0.0,0.0,0.0,0.0,0.0,0.0,0.0,0.0,0.0,0.0,0.0,0.0,0.0,0.0,0.0,0.0,0.0,0.0,0.0,0.0,0.0,0.0,0.0,0.0,0.0,0.0,0.0,0.0,0.0,0.0,0.0,0.0,0.0,0.0,0.0,0.0,0.0,0.0,0.0,0.0,0.0,0.0,0.0,0.0,0.0,0.0,0.0,0.0,0.0,0.0,0.0,0.0,0.0,0.0,0.0,0.0,0.0,0.0,0.0,0.0,0.0,0.0,0.0,0.0,0.0,0.0,0.0,0.0,0.0,0.0,0.0,0.0,0.0,0.0,0.0,0.0,0.0,0.0,0.0,0.0,0.0,0.0,0.0,0.0,0.0,0.0,0.0,0.0,0.0,0.0,0.0,0.0,0.0,0.0,0.0,0.0,0.0,0.0,0.0,0.0,0.0,0.0,0.0,0.0,0.0,0.0,0.0,0.0,0.0,0.0,0.0,0.0,0.0,0.0,0.0,0.0,0.0,0.0,0.0,0.0,0.0,0.0,0.0,0.0,0.0,0.0,0.0,0.0,0.0,0.0,0.0,0.0,0.0,0.0,0.0,0.0,0.0,0.0,0.0,0.0,0.0,-3.1733,0.0,0.0,0.0,0.0,0.0,0.0,0.0,0.0,0.0,0.0,0.0,0.0,0.0,0.0,0.0,0.0,0.0,0.0,0.0,0.0,0.0,0.0,0.0,0.0,-1.0546,-1.0822,-1.1111,-1.0872,0.0,0.0,0.0,0.0,0.0,0.0,0.0,0.0,0.0,-1.2101,-1.2761,-1.3039,-1.3315,-1.3562,-1.3783,-1.4265,-1.4949,0.0,0.0,0.0,0.0,0.0,0.0,0.0,0.0,0.0,0.0,0.0,0.0,0.0,0.0,0.0,0.0,0.0,0.0,0.0,0.0,0.0,0.0,0.0,0.0,0.0,0.0,0.0,0.0,0.0,0.0,0.0,0.0,0.0,0.0,0.0,0.0,0.0,0.0,0.0,0.0,0.0,0.0,0.0,0.0,0.0,0.0,0.0,0.0,0.0,0.0,0.0,0.0,0.0,0.0,0.0,0.0,0.0,0.0,0.0,0.0,0.0,0.0,0.0,0.0,0.0,0.0,0.0,0.0,0.0,0.0,0.0,-3.1995,0.0,0.0,0.0,0.0,0.0,0.0,0.0,0.0,0.0,0.0,0.0,0.0,0.0,0.0,0.0,0.0,0.0,0.0,0.0,0.0,0.0,-1.0731,-1.0831,-1.1299,-1.1625,-1.1726,-1.1638,-1.1625,-1.1726,-1.1638,0.0,0.0,0.0,0.0,-1.2545,-1.2574,-1.2743,-1.3123,-1.3595,-1.4035,-1.4406,-1.4533,-1.4956,-1.5634,-1.6305,0.0,0.0,0.0,0.0,0.0,0.0,0.0,0.0,0.0,0.0,0.0,0.0,0.0,0.0,0.0,0.0,0.0,0.0,0.0,0.0,0.0,0.0,0.0,0.0,0.0,0.0,0.0,0.0,0.0,0.0,0.0,0.0,0.0,0.0,0.0,0.0,0.0,0.0,0.0,0.0,0.0,0.0,0.0,0.0,0.0,0.0,0.0,0.0,0.0,0.0,0.0,0.0,0.0,0.0,0.0,0.0,0.0,0.0,0.0,0.0,0.0,0.0,0.0,-3.297,-3.3335,-3.3179,-3.3314,-3.3431,-3.3489,-3.3706,-3.3615,-3.3334,-3.3265,0.0,0.0,0.0,0.0,0.0,0.0,0.0,0.0,0.0,0.0,0.0,0.0,0.0,0.0,0.0,0.0,0.0,0.0,0.0,-1.0881,-1.1412,-1.1538,-1.1776,-1.2266,-1.1864,-1.1789,-1.2266,-1.1851,0.0,0.0,0.0,-1.2713,-1.3998,-1.4012,-1.427,-1.4786,-1.4522,-1.426,-1.4,-1.469,-1.5227,-1.5605,-1.569,-1.6134,-1.6747,0.0,0.0,0.0,0.0,0.0,0.0,0.0,0.0,0.0,0.0,0.0,0.0,0.0,0.0,0.0,0.0,0.0,0.0,0.0,0.0,0.0,0.0,0.0,0.0,0.0,0.0,0.0,0.0,0.0,0.0,0.0,0.0,0.0,0.0,0.0,0.0,0.0,0.0,0.0,0.0,0.0,-2.7322,-2.9036,0.0,0.0,0.0,0.0,0.0,0.0,0.0,0.0,0.0,0.0,0.0,0.0,0.0,-3.1771,-3.1824,-3.2659,-3.2979,-3.2857,-3.3859,-3.4308,-3.4307,-3.5012,-3.5347,-3.5335,-3.5379,0.0,-3.3045,-3.3045,0.0,0.0,0.0,0.0,0.0,0.0,0.0,0.0,0.0,0.0,0.0,0.0,0.0,0.0,0.0,0.0,0.0,0.0,0.0,0.0,0.0,-1.2328,-1.2572,-1.2822,-1.2622,-1.2584,-1.2822,-1.2891,0.0,0.0,-1.3227,-1.3778,-1.4405,-1.4419,-1.4424,-1.4438,-1.4246,-1.4052,-1.3901,-1.4501,-1.5077,-1.5605,-1.5605,-1.615,-1.7101,-1.7432,0.0,0.0,0.0,0.0,0.0,0.0,0.0,0.0,0.0,0.0,0.0,0.0,0.0,0.0,0.0,0.0,0.0,0.0,0.0,0.0,0.0,0.0,0.0,0.0,0.0,0.0,0.0,0.0,0.0,0.0,0.0,0.0,0.0,0.0,0.0,0.0,0.0,0.0,0.0,-2.7531,-2.8675,-2.9394,-2.992,-3.0334,0.0,0.0,0.0,0.0,0.0,0.0,0.0,0.0,0.0,-3.1274,-3.2081,-3.2536,-3.2594,-3.3481,-3.3859,-3.3732,-3.4668,-3.5109,-3.507,-3.5416,-3.5603,-3.5603,-3.5603,-3.5128,-3.4416,-3.4455,-3.4436,-3.441,0.0,0.0,0.0,0.0,-3.4562,-3.4652,0.0,0.0,0.0,0.0,0.0,0.0,0.0,0.0,0.0,0.0,0.0,0.0,-1.2704,-1.3015,-1.3198,-1.3198,-1.3198,-1.3198,-1.3198,-1.3514,-1.3648,-1.3547,-1.4149,-1.4596,-1.4814,-1.4721,-1.447,-1.4052,-1.4149,-1.4214,-1.4214,-1.4627,-1.5121,-1.565,-1.5834,-1.638,-1.7199,-1.7526,-1.7681,-1.7653,0.0,0.0,0.0,0.0,0.0,0.0,0.0,0.0,0.0,0.0,0.0,0.0,0.0,0.0,0.0,0.0,0.0,0.0,0.0,0.0,0.0,0.0,0.0,0.0,0.0,0.0,0.0,0.0,0.0,0.0,0.0,0.0,0.0,0.0,0.0,0.0,0.0,-2.8711,-2.9602,-2.9695,-3.0316,-3.0711,0.0,0.0,0.0,0.0,0.0,0.0,-3.0824,-3.1642,-3.2116,-3.2164,-3.2958,-3.3413,-3.3486,-3.4345,-3.473,-3.4601,-3.5262,-3.5565,-3.5493,-3.5493,-3.5493,-3.5493,-3.5493,-3.5493,-3.5493,-3.5565,-3.5584,-3.5584,-3.5545,-3.5565,-3.5622,-3.5661,-3.5709,-3.5793,0.0,0.0,0.0,0.0,0.0,0.0,0.0,0.0,0.0,0.0,0.0,-1.3156,-1.3762,-1.3433,-1.3198,-1.3198,-1.3198,-1.3198,-1.3198,-1.3232,-1.3581,-1.4406,-1.447,-1.4876,-1.5712,-1.5299,-1.4876,-1.447,-1.4845,-1.5043,-1.5043,-1.5522,-1.5755,-1.5827,-1.6474,-1.6763,-1.6841,-1.7175,-1.7344,-1.7399,-1.82,0.0,0.0,0.0,0.0,0.0,0.0,0.0,0.0,0.0,0.0,0.0,0.0,0.0,0.0,0.0,0.0,0.0,0.0,0.0,0.0,0.0,0.0,0.0,0.0,0.0,0.0,0.0,0.0,0.0,0.0,0.0,0.0,0.0,0.0,0.0,0.0,0.0,0.0,-3.0457,-3.0742,0.0,0.0,0.0,0.0,-3.0513,-3.1204,-3.1684,-3.1736,-3.2508,-3.2987,-3.3127,-3.398,-3.4378,-3.4263,-3.5109,-3.5526,-3.5435,-3.5474,-3.5493,-3.5493,-3.5493,-3.5493,-3.5493,-3.5493,-3.5493,-3.5493,-3.5493,-3.5526,-3.5526,-3.5584,-3.5603,-3.5622,-3.5815,-3.5886,-3.6021,0.0,0.0,0.0,-1.1615,-1.1549,-1.1613,-1.2059,-1.2326,-1.2765,-1.3515,-1.3699,-1.3799,-1.39,-1.3735,-1.3514,-1.3232,-1.3198,-1.3198,-1.3198,-1.3735,-1.4052,-1.4117,-1.4907,-1.5225,-1.4968,-1.4783,-1.4533,-1.4117,-1.5209,-1.5739,-1.5739,-1.6631,-1.7304,-1.782,-1.8031,-1.8432,-1.8801,-1.7973,-1.7618,-1.7664,-1.8146,-1.845,0.0,0.0,0.0,0.0,0.0,0.0,0.0,0.0,0.0,0.0,0.0,0.0,0.0,0.0,0.0,0.0,0.0,0.0,0.0,0.0,0.0,0.0,0.0,0.0,0.0,0.0,0.0,0.0,0.0,0.0,0.0,0.0,0.0,0.0,0.0,0.0,0.0,-3.0648,-3.0731,0.0,-3.0559,-3.0584,-3.0799,-3.1309,-3.1646,-3.2057,-3.254,-3.3385,-3.3826,-3.3846,-3.4705,-3.5128,-3.507,-3.5378,-3.5526,-3.5493,-3.5493,-3.5493,-3.5493,-3.5493,-3.5493,-3.5532,-3.6065,-3.6276,-3.6334,-3.6892,-3.6469,-3.5551,-3.6103,-3.64,-3.657,-3.7201,-3.7525,-3.7698,0.0,0.0,0.0,-1.1805,-1.2078,-1.2468,-1.2909,-1.3459,-1.3971,-1.4439,-1.4609,-1.4573,-1.4319,-1.4052,-1.3769,-1.3459,-1.3301,-1.3267,-1.3425,-1.4,-1.431,-1.431,-1.5255,-1.5448,-1.4721,-1.5057,-1.5061,-1.4643,-1.5974,-1.6629,-1.6676,-1.7537,-1.8223,-1.8749,-1.8993,-1.9356,-1.979,-1.8913,-1.842,-1.8172,-1.8186,-1.831,-1.8508,0.0,0.0,0.0,0.0,0.0,0.0,0.0,0.0,0.0,0.0,0.0,0.0,0.0,0.0,0.0,0.0,0.0,0.0,0.0,0.0,0.0,0.0,0.0,0.0,0.0,0.0,0.0,0.0,0.0,0.0,0.0,0.0,0.0,0.0,0.0,-3.084,-3.0682,-3.0692,-3.0659,-3.054,-3.0824,-3.1225,-3.1763,-3.234,-3.2897,-3.3378,-3.423,-3.4672,-3.4641,-3.5199,-3.5446,-3.5369,-3.5446,-3.5446,-3.5369,-3.5446,-3.5493,-3.5512,-3.5795,-3.5911,-3.5949,-3.6776,-3.7142,-3.718,-3.7757,-3.7353,-3.6411,-3.6949,-3.725,-3.7443,-3.8096,-3.8419,-3.8574,0.0,0.0,-1.1835,-1.1856,-1.2639,-1.3305,-1.3352,-1.4756,-1.5695,-1.537,-1.5509,-1.5491,-1.515,-1.4406,-1.3901,-1.3901,-1.3459,-1.3391,-1.3888,-1.3934,-1.4278,-1.5104,-1.5551,-1.558,-1.5133,-1.6155,-1.6494,-1.6131,-1.7223,-1.7712,-1.7745,-1.8238,-1.847,-1.8515,-1.9244,-1.9574,-1.9601,-1.9891,-1.9638,-1.8917,-1.8461,-1.8256,-1.8319,0.0,0.0,0.0,0.0,0.0,0.0,0.0,0.0,0.0,0.0,0.0,0.0,0.0,0.0,0.0,0.0,0.0,0.0,0.0,0.0,0.0,0.0,0.0,0.0,0.0,0.0,0.0,0.0,0.0,0.0,0.0,0.0,0.0,-3.0605,-3.082,-3.0832,-3.0628,-3.0665,-3.0679,-3.0641,-3.134,-3.1821,-3.1878,-3.3314,-3.4199,-3.4237,-3.5045,-3.5493,-3.5493,-3.5493,-3.5369,-3.5122,-3.5369,-3.5369,-3.5105,-3.5388,-3.5532,-3.5551,-3.6358,-3.6724,-3.6796,-3.7661,-3.8046,-3.8046,-3.8065,-3.8084,-3.8084,-3.8118,-3.8142,-3.8155,-3.8393,-3.8476,-3.8613,-1.4203,-1.3258,-1.2599,-1.2778,-1.3093,-1.3633,-1.4599,-1.5558,-1.6135,-1.6051,-1.628,-1.613,-1.521,-1.4627,-1.4214,-1.3934,-1.3459,-1.3501,-1.421,-1.4315,-1.4721,-1.558,-1.5418,-1.5472,-1.5811,-1.6111,-1.643,-1.6828,-1.7889,-1.8433,-1.8448,-1.9357,-1.9969,-2.0305,-2.0812,-2.1209,-2.1496,-2.1066,-2.0737,-2.0509,-1.9779,-1.9624,-1.9739,0.0,0.0,0.0,0.0,0.0,0.0,0.0,0.0,0.0,0.0,0.0,0.0,0.0,0.0,0.0,0.0,0.0,0.0,0.0,0.0,0.0,0.0,0.0,0.0,0.0,0.0,0.0,0.0,0.0,0.0,0.0,0.0,-3.0605,-3.082,-3.0879,-3.0878,-3.0813,-3.0758,-3.0929,-3.1482,-3.1705,-3.2282,-3.3449,-3.3949,-3.4468,-3.5122,-3.5372,-3.5493,-3.5493,-3.5493,-3.546,-3.5383,-3.546,-3.5369,-3.5105,-3.5785,-3.6086,-3.6121,-3.6908,-3.7412,-3.77,-3.8565,-3.8931,-3.8988,-3.9565,-3.9796,-3.9758,-3.9196,-3.9003,-3.9129,-3.9804,-4.0163,-4.0312,-1.4979,-1.4194,-1.3636,-1.3674,-1.4164,-1.476,-1.5397,-1.631,-1.6818,-1.656,-1.6686,-1.6432,-1.5492,-1.5013,-1.4658,-1.4406,-1.4,-1.4006,-1.4665,-1.4923,-1.5255,-1.577,-1.5772,-1.5959,-1.6325,-1.6899,-1.7401,-1.7768,-1.8688,-1.9121,-1.9156,-2.0144,-2.0731,-2.1039,-2.1645,-2.2032,-2.2276,-2.1837,-2.1651,-2.1617,-2.116,-2.0662,-2.0206,-1.9884,-1.9869,-1.9973,-1.9879,-1.9939,-2.0079,-2.0381,0.0,0.0,0.0,0.0,0.0,0.0,0.0,0.0,0.0,0.0,0.0,0.0,0.0,0.0,0.0,0.0,0.0,0.0,0.0,0.0,0.0,0.0,0.0,0.0,-3.0566,-3.0898,-3.0898,-3.0898,-3.0874,-3.0828,-3.1049,-3.1379,-3.1821,-3.2436,-3.3199,-3.4122,-3.4545,-3.4968,-3.5468,-3.5493,-3.5493,-3.5493,-3.5493,-3.5446,-3.532,-3.5446,-3.5522,-3.56,-3.62,-3.6671,-3.7051,-3.7857,-3.8361,-3.8584,-3.9431,-3.9796,-3.9835,-4.0296,-4.0489,-4.045,0.0,0.0,0.0,0.0,-4.082,-4.1006,-1.5933,-1.533,-1.4822,-1.4523,-1.5473,-1.6219,-1.5959,-1.6977,-1.7566,-1.6892,-1.6789,-1.6528,-1.5885,-1.5389,-1.5104,-1.5104,-1.4721,-1.4658,-1.5074,-1.5566,-1.5857,-1.5903,-1.6398,-1.6786,-1.6936,-1.8104,-1.8747,-1.8807,-1.9405,-1.969,-1.9711,-2.0599,-2.0991,-2.1039,-2.1915,-2.231,-2.231,-2.231,-2.231,-2.231,-2.231,-2.1471,-2.0264,-2.0436,-2.0498,-2.0534,-2.0817,-2.1126,-2.1389,-2.1561,0.0,0.0,0.0,0.0,0.0,0.0,0.0,0.0,0.0,0.0,0.0,0.0,0.0,0.0,0.0,0.0,0.0,0.0,0.0,0.0,0.0,0.0,0.0,0.0,-3.0898,-3.0898,-3.0898,-3.0898,-3.0849,-3.0709,-3.1419,-3.1919,-3.1941,-3.3314,-3.4237,-3.4334,-3.5064,-3.5493,-3.5493,0.0,0.0,0.0,0.0,-3.5383,-3.5157,-3.5383,-3.5772,-3.6304,-3.6638,-3.7267,-3.8131,-3.8996,-3.9415,-3.9469,-4.0181,-4.0489,-4.0489,-4.0489,-4.0489,-4.0489,-4.0489,-4.0489,-4.0508,-4.0639,-4.0793,-4.0974,-1.6295,-1.5843,-1.5566,-1.544,-1.5905,-1.6361,-1.6577,-1.7302,-1.7566,-1.6892,-1.6789,-1.6528,-1.5885,-1.5389,-1.5104,-1.5104,-1.4721,-1.4658,-1.5074,-1.5782,-1.6296,-1.6533,-1.6652,-1.7219,-1.8298,-1.8568,-1.8957,-1.9495,-1.963,-1.969,-1.9711,-2.0599,-2.0991,-2.1039,-2.1915,-2.231,-2.231,-2.231,-2.231,-2.231,-2.231,-2.2124,-2.1803,-2.1257,-2.1062,-2.0986,-2.0644,-2.0563,-2.0653,-2.0898,-2.1087,-2.1279,-2.1548,-2.2191,0.0,0.0,0.0,0.0,0.0,0.0,0.0,0.0,0.0,0.0,0.0,0.0,0.0,0.0,0.0,0.0,0.0,0.0,0.0,-3.0879,-3.0898,-3.0898,-3.0898,-3.0898,-3.0849,-3.0709,-3.1407,-3.2139,-3.2712,-3.3628,-3.4487,-3.5199,-3.5411,-3.5493,-3.5493,-3.5493,-3.5493,-3.5493,-3.5493,-3.5479,-3.5432,-3.546,-3.5772,-3.6323,0.0,0.0,-3.876,-3.9565,-4.0055,-4.0277,-4.0431,-4.0489,-4.0489,-4.0489,-4.0489,-4.0489,-4.0489,-4.0489,-4.0489,-4.0543,-4.0639,-4.0757,-1.7121,-1.6884,-1.6752,-1.654,-1.6815,-1.7047,-1.7052,-1.7479,-1.7635,-1.7126,-1.7052,-1.685,-1.6355,-1.5953,-1.571,-1.571,-1.5359,-1.5225,-1.5448,-1.5826,-1.6243,-1.6682,-1.7025,-1.7667,-1.8687,-1.9031,-1.9346,-1.969,-1.969,-1.9818,-2.0,-2.0698,-2.1118,-2.1337,-2.2003,-2.231,-2.231,-2.231,-2.231,-2.231,-2.231,-2.231,-2.226,-2.1887,-2.1752,-2.1729,-2.1454,-2.1446,-2.1586,-2.1714,-2.1912,-2.2164,-2.2508,-2.2938,-2.3474,0.0,0.0,0.0,0.0,0.0,0.0,0.0,0.0,0.0,0.0,0.0,0.0,0.0,0.0,-3.0254,0.0,0.0,-3.0898,-3.0898,-3.0898,-3.0898,-3.0898,-3.0898,-3.0997,-3.1261,-3.205,-3.2821,-3.3532,-3.4372,-3.5026,-3.5468,-3.5493,-3.5493,-3.5493,-3.5493,-3.5493,-3.5493,-3.5493,-3.5493,-3.5493,-3.5493,-3.6046,-3.7143,-3.7565,-3.8427,-3.9725,-4.013,-4.0372,-4.0489,-4.0489,-4.0489,-4.0489,-4.0489,-4.0489,-4.0489,-4.0489,-4.0489,-4.0489,-4.0489,-4.062,-4.0746,-1.7811,-1.7811,-1.7681,-1.7368,-1.7572,-1.7681,-1.7344,-1.7572,-1.7681,-1.7344,-1.7296,-1.7175,-1.6841,-1.6554,-1.6367,-1.6301,-1.6067,-1.5885,-1.5799,-1.5799,-1.6069,-1.6682,-1.7228,-1.793,-1.8687,-1.9153,-1.9442,-1.953,-1.953,-1.9717,-2.0024,-2.0682,-2.1181,-2.1491,-2.2077,-2.231,-2.231,-2.231,-2.231,-2.231,-2.231,-2.231,-2.231,-2.231,-2.231,-2.231,-2.231,-2.2453,-2.2608,-2.2608,-2.2789,-2.3087,-2.3477,-2.3588,-2.3753,-2.4523,-2.4737,0.0,0.0,0.0,0.0,0.0,0.0,0.0,0.0,0.0,-2.9752,-3.0525,-3.0671,-3.0739,-3.0879,-3.0898,-3.0898,-3.0898,-3.0898,-3.0898,-3.0898,-3.1028,-3.1359,-3.2072,-3.2763,-3.3468,-3.4122,-3.4988,-3.5493,-3.5493,-3.5493,-3.5493,-3.5493,-3.5493,-3.5493,-3.5493,-3.5493,-3.5493,-3.5493,-3.5493,-3.6353,-3.8007,-3.8007,-3.8873,-4.0489,-4.0489,-4.0489,-4.0489,-4.0489,-4.0489,-4.0489,-4.0489,-4.0489,-4.0489,-4.0489,-4.0489,-4.0489,-4.0489,-4.062,-4.0789,-1.7811,-1.7811,-1.7681,-1.7368,-1.7572,-1.7681,-1.7344,-1.7572,-1.7681,-1.7344,-1.7296,-1.7175,-1.6841,-1.6763,-1.6607,-1.6328,-1.6274,-1.6123,-1.5827,-1.5799,-1.6069,-1.6682,-1.6888,-1.7529,-1.8687,-1.8412,-1.8496,-1.9006,-1.9006,-1.9006,-1.9103,-2.04,-2.1023,-2.1086,-2.1915,-2.231,-2.231,-2.231,-2.231,-2.231,-2.231,-2.231,-2.231,-2.231,-2.231,-2.231,-2.231,-2.2338,-2.2349,-2.2349,-2.2377,-2.2508,-2.3063,-2.3277,-2.3562,-2.5115,-2.5576,-2.583,-2.7044,0.0,0.0,-2.9898,-3.0129,-3.0148,0.0,0.0,-3.034,-3.0564,-3.0602,-3.0665,-3.0858,-3.0898,-3.0898,-3.0898,-3.0898,-3.0898,-3.0898,-3.1455,-3.218,-3.2958,-3.3147,-3.3454,-3.4122,-3.4988,-3.5493,-3.5493,-3.5493,-3.5493,-3.5493,-3.5493,-3.5493,-3.5493,-3.5493,-3.5493,-3.5493,-3.5493,-3.6353,-3.8007,-3.8007,-3.8873,-4.0489,-4.0489,-4.0489,-4.0489,-4.0489,-4.0489,-4.0489,-4.0489,-4.0489,-4.0489,-4.0489,-4.0489,-4.0489,-4.0489,-4.06,-4.0723,-1.7811,-1.7811,-1.7766,-1.7635,-1.7704,-1.7766,-1.7595,-1.7549,-1.7526,-1.7572,-1.7415,-1.732,-1.7384,-1.7043,-1.6581,-1.6067,-1.5754,-1.5551,-1.5418,-1.5389,-1.5576,-1.5977,-1.6575,-1.7205,-1.7856,-1.8033,-1.8224,-1.8419,-1.8727,-1.9029,-1.9346,-2.0196,-2.0731,-2.1039,-2.1385,-2.1554,-2.1554,-2.1794,-2.1899,-2.1928,-2.218,-2.231,-2.231,-2.231,-2.231,-2.231,-2.231,-2.2398,0.0,-2.2349,-2.2535,-2.2944,-2.3664,-2.4023,-2.4455,-2.5825,-2.6302,-2.667,-2.7928,0.0,0.0,0.0,-3.0398,-3.0398,-3.0398,-3.0398,-3.0448,-3.0564,-3.0604,-3.0667,-3.0857,-3.0898,-3.0898,0.0,-3.0898,-3.0898,-3.0898,-3.1604,-3.2378,-3.3106,-3.3647,-3.4216,-3.4891,-3.5295,-3.5493,-3.5493,-3.5493,-3.5493,-3.5493,-3.5493,-3.5493,-3.5493,-3.5493,-3.5493,-3.5493,-3.5493,-3.6353,-3.8007,-3.8007,-3.8873,-4.0489,-4.0489,-4.0489,-4.0489,-4.0489,-4.0489,-4.0489,-4.0489,-4.0489,-4.0489,-4.0489,-4.0562,-4.062,-4.0543,-4.062,-4.0757,-1.7811,-1.7811,-1.7811,-1.7811,-1.7811,-1.7811,-1.7811,-1.7595,-1.7502,-1.7658,-1.7439,-1.7344,-1.7502,-1.7093,-1.6554,-1.5983,-1.5609,-1.533,-1.509,-1.5104,-1.5151,-1.5235,-1.5901,-1.6515,-1.7006,-1.7322,-1.7584,-1.7867,-1.8419,-1.8864,-1.9207,-1.9939,-2.0483,-2.0829,-2.0926,-2.0991,-2.1023,-2.1306,-2.143,-2.146,-2.1945,-2.2106,-2.2106,-2.2237,-2.231,-2.231,-2.2388,-2.2537,-2.2669,-2.2581,-2.2989,-2.3637,-2.4319,-2.4866,-2.5439,-2.66,-2.7284,-2.7899,-2.8869,0.0,0.0,-3.0398,-3.0398,-3.0398,-3.0398,-3.0398,-3.0448,-3.0564,-3.0604,-3.0667,-3.0857,-3.0898,-3.0898,-3.0898,-3.0898,-3.0898,-3.0898,-3.1824,-3.2681,-3.3166,-3.4164,-3.4999,-3.5474,-3.5526,-3.5493,-3.5493,-3.5493,-3.5493,-3.5493,-3.5493,-3.5493,-3.5493,-3.5493,-3.5493,-3.5493,-3.5493,-3.6219,-3.7642,-3.7892,-3.8757,-4.0181,-4.0392,-4.0489,-4.0489,-4.0489,-4.0489,-4.0489,-4.0489,-4.0508,-4.0562,-4.0562,-4.0639,-4.0731,-4.0621,-4.0709,-4.0858,-1.7811,-1.7811,-1.7811,-1.7811,-1.7811,-1.7811,-1.7811,-1.7789,-1.7681,-1.7368,-1.732,-1.7175,-1.6866,-1.6815,-1.6659,-1.6313,-1.6258,-1.5909,-1.5165,-1.5104,-1.4921,-1.456,-1.4674,-1.5265,-1.631,-1.5958,-1.6286,-1.7312,-1.7867,-1.8145,-1.8171,-1.9606,-2.0314,-2.0348,-2.0797,-2.0991,-2.0991,-2.0991,-2.1023,-2.1055,-2.146,-2.1612,-2.1658,-2.2135,-2.231,-2.2321,-2.2599,-2.2695,-2.2746,-2.3069,-2.3702,-2.4413,-2.4774,-2.543,-2.6294,-2.7446,-2.8648,-2.9672,-2.9897,0.0,-3.0398,-3.0398,-3.0398,-3.0398,-3.0398,-3.0398,-3.0448,-3.0564,-3.0604,-3.0667,-3.0857,-3.0898,-3.0898,-3.0898,-3.0898,-3.0898,-3.0898,-3.2265,-3.3275,-3.3288,-3.471,-3.5661,0.0,-3.5545,-3.5493,-3.5493,-3.5493,-3.5493,-3.5493,-3.5493,-3.5493,-3.5493,-3.5493,-3.5493,-3.5493,-3.5493,-3.593,-3.6757,-3.7603,-3.8469,-3.9354,-4.0142,-4.0489,-4.0489,-4.0489,-4.0489,-4.0489,-4.0489,-4.0581,-4.0696,-4.0696,-4.0735,-4.08,-4.0781,-4.0893,-4.0985,-1.7811,-1.7811,-1.7811,-1.7811,-1.7811,-1.7811,-1.7811,-1.7595,-1.7502,-1.7635,-1.7455,0.0,0.0,0.0,0.0,0.0,-1.5667,-1.5389,-1.5134,-1.4845,-1.4533,-1.4117,-1.4491,-1.4747,-1.4849,-1.5413,-1.5863,-1.6245,-1.7127,-1.7747,-1.8145,-1.8977,-1.9558,-1.9909,-2.0085,-2.0139,-2.0139,-2.0431,-2.055,-2.0583,-2.1023,-2.1213,-2.1244,-2.1658,-2.1982,-2.2203,0.0,-2.2848,-2.3045,-2.3165,-2.4042,-2.5147,-2.5543,-2.64,-2.7446,-2.8556,-2.9269,-2.9729,-2.9954,0.0,-3.0398,-3.0398,-3.0398,-3.0398,-3.0398,-3.0398,-3.0448,-3.0564,-3.1058,-3.1354,-3.0975,-3.1367,-3.1562,-3.0996,-3.0898,-3.0898,-3.0898,-3.2324,-3.3355,-3.3301,-3.4797,0.0,0.0,0.0,0.0,-3.5493,-3.5493,-3.5493,-3.5493,-3.5493,-3.5493,-3.5493,-3.5493,-3.5493,-3.5493,-3.5493,-3.5911,-3.6719,-3.8161,-3.9296,-4.0104,-4.0373,-4.0489,-4.0489,-4.06,-4.0639,-4.0639,-4.0677,-4.0735,-4.0766,-4.0781,-4.0829,-4.0924,-4.0938,-4.1026,-4.1116,-1.7811,-1.7811,-1.7811,-1.7811,-1.7811,0.0,0.0,0.0,0.0,0.0,0.0,0.0,0.0,0.0,0.0,0.0,0.0,-1.5285,-1.5104,-1.4721,-1.431,-1.3934,-1.4054,-1.4143,-1.4121,-1.4777,-1.5203,-1.5392,-1.6491,-1.7197,-1.7554,-1.8268,-1.8893,-1.9406,-1.9406,-1.953,-1.9711,-1.9965,-2.047,-2.1116,-2.1036,-2.1408,-2.2037,-2.1903,-2.1982,0.0,-2.2565,-2.2923,-2.3212,-2.3346,-2.448,-2.5876,-2.618,-2.7177,-2.8386,-2.9182,-2.9494,-2.9643,-2.9924,-3.0136,-3.0267,-3.0386,-3.0398,-3.0398,-3.0398,-3.0398,-3.0448,-3.0564,-3.1058,-3.1334,-3.0975,-3.1367,-3.1543,-3.0996,-3.0898,-3.0898,-3.0898,-3.2344,-3.3379,-3.334,-3.4881,-3.5896,0.0,0.0,0.0,-3.5545,-3.5526,-3.5493,-3.5493,-3.5493,-3.5493,-3.5493,-3.5493,-3.5493,-3.5493,-3.5493,-3.5911,-3.6719,-3.82,-3.933,-4.0119,-4.0446,-4.062,-4.062,-4.0696,-4.0733,-4.0739,-4.0778,-4.0833,-4.0881,-4.0866,-4.0945,-4.1078,-4.1078,-4.1119,-4.1189,-1.7811,-1.7811,-1.7811,0.0,0.0,0.0,0.0,0.0,0.0,0.0,0.0,0.0,0.0,0.0,0.0,0.0,0.0,0.0,-1.5134,-1.4721,-1.431,-1.3934,-1.3459,-1.3483,-1.4035,-1.4072,-1.4374,-1.4904,-1.5945,-1.6479,-1.6532,-1.7552,-1.8335,-1.8887,-1.8887,-1.9214,-1.9711,-1.9711,-2.0819,-2.2431,-2.1402,-2.2118,-2.3637,-2.2643,-2.2265,-2.2321,-2.2599,-2.2923,-2.3259,-2.3588,0.0,0.0,0.0,0.0,0.0,-2.931,-2.9392,-2.9493,-2.9877,-2.9999,-3.0075,-3.0323,-3.0398,-3.0398,-3.0398,-3.0398,-3.0448,-3.0564,-3.0643,-3.0706,0.0,0.0,-3.0957,-3.0918,-3.0898,-3.0898,-3.0898,-3.2305,-3.3359,0.0,0.0,0.0,0.0,0.0,0.0,-3.5622,0.0,-3.5526,-3.5526,-3.5526,-3.5526,-3.5493,-3.5493,-3.5493,-3.5493,-3.5493,-3.5911,-3.6719,-3.7676,-3.8594,-3.9441,-4.0342,-4.0766,-4.0804,-4.0808,-4.0817,-4.0805,-4.0828,-4.0897,-4.1007,-4.1007,-4.1099,-4.1195,-4.1195,-4.1205,-4.1191,0.0,0.0,0.0,0.0,0.0,0.0,0.0,0.0,0.0,0.0,0.0,0.0,0.0,0.0,0.0,0.0,0.0,0.0,-1.5134,-1.4721,-1.431,-1.3934,-1.3459,-1.3261,-1.3446,-1.3871,-1.433,-1.4748,-1.5419,-1.6093,-1.6782,-1.7093,-1.7741,-1.8767,-1.8767,-1.9251,-2.0158,-2.0158,-2.0634,-2.137,-2.1102,-2.1311,-2.173,-2.1777,-2.1936,-2.2203,-2.2565,-2.3069,-2.3588,0.0,0.0,0.0,0.0,0.0,-2.8615,0.0,0.0,-2.9454,-2.9713,-2.9893,-3.0075,-3.0323,-3.0398,-3.0398,-3.0398,-3.0398,-3.0448,-3.0564,-3.1116,-3.1432,0.0,0.0,0.0,-3.1016,-3.0898,0.0,-3.0898,-3.1836,0.0,-3.332,0.0,-3.5273,-3.5911,-3.5935,0.0,0.0,-3.5718,-3.5641,-3.5584,-3.5622,-3.5603,-3.5493,-3.5565,-3.5565,-3.5493,-3.5493,-3.5911,-3.6699,-3.7065,-3.7988,-3.9403,-3.9755,-4.0238,-4.082,-4.0924,-4.0949,-4.0958,-4.1061,-4.1114,-4.1152,-4.1152,-4.1172,-4.1191,-4.1191,-4.1197,-4.1191,0.0,0.0,0.0,0.0,0.0,0.0,0.0,0.0,0.0,0.0,0.0,0.0,0.0,0.0,0.0,0.0,0.0,0.0,0.0,-1.4845,-1.4406,-1.4181,-1.3547,-1.3198,-1.3198,-1.3534,-1.394,-1.442,-1.4912,-1.555,-1.6297,-1.6473,-1.7198,-1.8361,-1.8361,-1.9086,-2.0314,-2.0314,-2.1063,0.0,0.0,-2.1774,-2.2501,-2.2073,-2.2027,-2.2237,-2.2429,-2.3084,0.0,0.0,0.0,-2.6754,-2.7998,-2.8515,-2.8707,-2.8929,0.0,-2.927,-2.9513,-2.9713,-2.9924,-3.015,-3.0311,-3.0398,-3.0398,-3.0417,-3.0467,-3.0583,-3.1013,0.0,0.0,0.0,0.0,0.0,0.0,0.0,-3.0801,-3.1601,-3.2363,0.0,-3.3945,0.0,-3.5371,-3.5742,-3.5942,0.0,-3.5786,-3.5676,-3.5637,-3.5682,-3.5669,-3.5599,-3.5624,-3.5641,-3.5603,-3.5603,-3.5815,-3.6276,-3.6776,-3.7522,-3.8469,-3.9342,-3.9989,-4.0433,-4.0894,-4.1099,-4.1096,-4.1177,-4.1191,-4.1191,-4.1191,-4.1191,-4.1191,-4.1191,-4.1191,-4.1191,0.0,0.0,0.0,0.0,0.0,0.0,0.0,0.0,0.0,-1.7714,-1.7411,-1.7002,0.0,0.0,0.0,0.0,0.0,0.0,0.0,0.0,-1.4564,-1.4501,-1.3702,-1.3301,-1.3301,-1.3232,-1.3506,-1.408,-1.448,-1.4942,-1.5468,-1.5886,-1.6663,-1.7733,-1.7819,-1.8728,-2.019,-2.0283,-2.1595,-2.3473,-2.2139,-2.2648,-2.4083,0.0,-2.231,-2.231,-2.2405,-2.311,-2.4195,0.0,-2.6231,-2.7281,-2.809,-2.8608,-2.8929,-2.8975,-2.8994,-2.9044,-2.933,-2.9532,-2.9695,-2.9939,-3.0163,-3.0355,-3.0398,-3.0448,-3.0518,-3.059,0.0,-3.0733,-3.0871,-3.0792,-3.0711,-3.0691,0.0,-3.0697,-3.0681,-3.1443,-3.2029,-3.2146,-3.3554,-3.4551,-3.4687,-3.5488,-3.5996,-3.5996,-3.5841,-3.5741,-3.5741,-3.5727,-3.5745,-3.5735,-3.5716,-3.5689,-3.5689,-3.5689,-3.5689,-3.5708,-3.66,-3.7088,-3.725,-3.8838,-3.9687,-3.9941,-4.0703,-4.1094,-4.1191,-4.1191,-4.1191,-4.1191,-4.1191,-4.1191,-4.1191,-4.1191,-4.1191,-4.1191,0.0,0.0,0.0,0.0,0.0,0.0,0.0,0.0,0.0,0.0,-1.8003,-1.6738,0.0,0.0,0.0,0.0,0.0,0.0,0.0,0.0,0.0,-1.4501,-1.4019,-1.3769,-1.3769,-1.3391,-1.3442,-1.3913,-1.433,-1.474,-1.517,-1.5619,-1.623,-1.6944,-1.7477,-1.8404,-1.9588,-2.0082,-2.094,-2.1991,-2.1727,-2.2032,-2.2649,-2.2412,0.0,0.0,-2.2857,-2.3816,-2.4889,-2.5341,-2.6065,-2.6925,-2.7733,-2.821,-2.8565,-2.8905,-2.8994,-2.9044,-2.933,-2.9433,-2.9551,-2.9908,-3.0028,-3.0136,-3.0355,-3.0448,0.0,0.0,0.0,-3.0733,-3.0871,-3.0874,0.0,-3.0719,0.0,0.0,0.0,0.0,-3.113,0.0,0.0,0.0,0.0,0.0,0.0,0.0,-3.5975,-3.5914,-3.5875,-3.5928,-3.5917,-3.5873,-3.5766,-3.569,-3.569,-3.569,-3.569,-3.571,-3.5994,-3.6496,-3.7211,-3.7589,-3.8535,-3.9902,-4.0059,0.0,-4.1191,-4.1191,-4.1191,-4.1191,-4.1191,-4.1191,-4.1191,-4.1191,-4.1191,-4.1191,0.0,0.0,0.0,0.0,0.0,0.0,0.0,-2.0002,-2.0002,-2.0002,-1.8965,-1.8049,-1.7694,-1.7183,-1.6727,0.0,0.0,0.0,0.0,0.0,0.0,0.0,0.0,0.0,-1.3901,-1.3682,-1.3825,-1.4317,0.0,-1.5077,-1.5578,-1.5743,-1.6308,-1.7234,-1.7548,-1.8518,-1.988,-2.019,-2.0667,-2.1306,-2.1538,-2.1718,-2.1957,0.0,0.0,0.0,0.0,-2.4199,-2.5142,-2.5895,-2.6774,-2.762,-2.783,-2.8281,-2.8749,-2.8952,-2.8994,-2.904,-2.9156,-2.9289,-2.9474,-2.9763,-2.9924,-3.0075,-3.0343,0.0,0.0,0.0,0.0,-3.073,-3.0877,0.0,0.0,0.0,0.0,0.0,0.0,0.0,0.0,0.0,0.0,0.0,0.0,0.0,0.0,0.0,-3.5841,-3.5879,-3.5957,-3.5984,-3.5982,-3.5957,-3.5886,-3.5868,-3.5868,-3.5868,-3.5868,-3.5868,-3.5928,-3.6164,-3.658,-3.7079,-3.7754,-3.8594,-3.9512,-4.0137,-4.0566,-4.1016,-4.1191,-4.1191,-4.1191,-4.1191,-4.1191,-4.1191,-4.1191,-4.1191,0.0,0.0,0.0,0.0,0.0,0.0,0.0,-2.0491,-2.0491,-2.0491,-2.0274,-1.9943,-1.9502,-1.8603,-1.7713,0.0,0.0,0.0,0.0,0.0,0.0,0.0,0.0,0.0,0.0,0.0,0.0,-1.4645,-1.4959,0.0,0.0,0.0,0.0,0.0,-1.7772,-1.8746,-2.0128,-2.0252,-2.0616,0.0,0.0,-2.1658,0.0,0.0,0.0,0.0,0.0,0.0,-2.538,-2.6342,-2.7406,-2.8264,-2.8075,-2.8456,-2.8994,-2.8994,-2.8994,-2.8994,-2.8994,-2.9156,-2.9353,-2.9589,-2.9746,-2.9958,-3.0241,-3.0374,0.0,0.0,-3.0645,-3.0723,-3.084,0.0,-3.0723,0.0,0.0,0.0,0.0,0.0,0.0,0.0,0.0,0.0,0.0,0.0,0.0,0.0,-3.5596,-3.578,-3.5976,-3.5996,-3.5996,-3.5996,-3.5996,-3.5996,-3.5996,-3.5996,-3.5996,-3.5996,-3.5996,-3.5996,-3.6016,-3.6719,-3.7129,-3.7383,-3.875,-3.9546,-3.9914,-4.0597,-4.0986,-4.1152,-4.1152,-4.1172,-4.1191,-4.1191,-4.1191,-4.1191,0.0,0.0,0.0,0.0,0.0,0.0,0.0,-2.2107,-2.2107,-2.2107,-2.2062,-2.1859,-2.1384,-1.9555,-1.8146,0.0,0.0,0.0,0.0,0.0,0.0,0.0,0.0,0.0,0.0,0.0,0.0,-1.452,-1.4904,0.0,0.0,0.0,0.0,0.0,0.0,-1.8943,-1.9525,-2.0066,0.0,0.0,0.0,0.0,0.0,0.0,0.0,0.0,0.0,0.0,0.0,0.0,0.0,-2.7992,-2.8264,-2.8658,-2.8994,-2.8994,0.0,0.0,-2.8994,-2.9017,-2.9089,-2.9353,-2.9434,-2.957,-2.9939,0.0,0.0,-3.0463,-3.0608,-3.0703,-3.0723,0.0,0.0,0.0,-3.0682,-3.0657,0.0,0.0,0.0,0.0,0.0,0.0,0.0,0.0,0.0,-3.4597,-3.5297,-3.5766,-3.5898,-3.5976,-3.5996,-3.5996,-3.5996,-3.5996,-3.5996,-3.5996,-3.5996,-3.5996,-3.5996,-3.5996,-3.5996,-3.6074,-3.6543,-3.7305,-3.7461,-3.838,0.0,-3.9788,-4.0302,-4.1016,-4.1016,-4.1094,-4.1191,-4.1191,-4.1191,-4.1187,0.0,0.0,0.0,0.0,0.0,0.0,-2.231,-2.231,-2.231,-2.231,-2.231,-2.2106,-2.1658,-2.0833,-1.9983,-1.917,0.0,0.0,0.0,0.0,0.0,0.0,0.0,0.0,0.0,0.0,-1.6061,-1.6061,-1.6466,0.0,0.0,0.0,0.0,0.0,0.0,-1.9814,-2.0384,-2.062,0.0,0.0,0.0,0.0,0.0,0.0,0.0,0.0,0.0,0.0,0.0,0.0,0.0,0.0,-2.8725,-2.8863,0.0,0.0,-2.8994,-2.8994,-2.8994,-2.8994,-2.9067,-2.933,-2.9412,-2.9513,-2.9908,0.0,0.0,-3.0444,-3.0568,-3.065,-3.0681,-3.0801,-3.0879,-3.082,-3.0742,-3.0679,-3.0622,0.0,0.0,0.0,0.0,0.0,0.0,0.0,-3.3974,-3.5032,-3.5435,-3.5662,-3.5724,-3.5786,-3.581,-3.581,-3.581,-3.581,-3.581,-3.581,-3.581,-3.581,-3.581,-3.581,-3.581,-3.581,-3.6005,-3.638,-3.6887,-3.7787,0.0,-3.9427,-4.0121,-4.0887,-4.0889,-4.092,-4.0959,-4.0959,-4.0959,-4.0944,0.0,0.0,0.0,0.0,0.0,-2.231,-2.231,-2.231,-2.2395,-2.2598,-2.2632,-2.2567,-2.2468,-2.2255,-2.1834,-2.1084,-1.9965,0.0,0.0,0.0,0.0,0.0,0.0,0.0,0.0,0.0,-1.729,-1.729,-1.77,-1.7908,0.0,0.0,-1.9139,-1.961,0.0,0.0,0.0,0.0,0.0,0.0,0.0,0.0,0.0,0.0,0.0,0.0,0.0,0.0,0.0,0.0,0.0,0.0,-2.8952,-2.8994,-2.8994,0.0,-2.8994,-2.8994,-2.8994,-2.8994,-2.9062,-2.9225,-2.9289,-2.9395,0.0,0.0,0.0,-3.0381,-3.0525,-3.0598,-3.0654,-3.076,-3.0859,-3.0898,-3.082,-3.0742,-3.0703,-3.0664,0.0,0.0,0.0,0.0,0.0,0.0,-3.3526,-3.5007,-3.5411,-3.5584,-3.5584,-3.5629,-3.5668,-3.5706,-3.5706,-3.5706,-3.5706,-3.5706,-3.5706,-3.5706,-3.5706,-3.5706,-3.5706,-3.5706,-3.5706,-3.5726,-3.6356,-3.7104,0.0,-3.8805,-3.9627,-4.0404,-4.0676,-4.0771,-4.0791,-4.0791,-4.0791,-4.0791,0.0,0.0,0.0,0.0,0.0,0.0,-2.231,-2.231,-2.2564,-2.3291,-2.3376,-2.3663,-2.4374,-2.3816,-2.3376,-2.3376,-2.1292,0.0,0.0,0.0,0.0,0.0,0.0,0.0,0.0,0.0,-1.7697,-1.7697,-1.8145,-1.8408,-1.8423,-1.9464,-1.9981,-2.0013,0.0,0.0,0.0,0.0,0.0,0.0,0.0,0.0,0.0,0.0,0.0,0.0,0.0,0.0,0.0,0.0,0.0,0.0,0.0,-2.8994,-2.8994,-2.8994,-2.8994,-2.8994,-2.8994,-2.8994,-2.8994,-2.9017,-2.9017,-2.9138,0.0,0.0,-2.9832,-3.0299,-3.0448,-3.0518,-3.0594,-3.066,-3.0742,-3.0879,-3.0898,-3.0859,-3.0723,-3.0703,0.0,0.0,0.0,0.0,0.0,0.0,-3.3276,-3.4141,-3.5007,0.0,-3.5493,-3.5507,-3.5565,-3.5699,-3.5699,-3.5699,-3.5699,-3.5699,-3.5699,-3.5699,-3.5699,-3.5699,-3.5699,-3.5699,-3.5699,-3.5699,-3.5699,-3.618,0.0,-3.7781,-3.8627,-3.9512,-4.0354,-4.0735,-4.0793,-4.0793,-4.0793,-4.0793,0.0,0.0,0.0,0.0,0.0,0.0,0.0,-2.2733,-2.3139,-2.3359,-2.3833,-2.4222,-2.4489,-2.4272,-2.3934,-2.3427,-2.2279,0.0,0.0,0.0,0.0,0.0,0.0,0.0,0.0,0.0,-1.9955,-1.9955,-2.0115,-2.0194,-2.0194,-2.0807,-2.1087,-2.1103,-2.1635,-2.1945,0.0,0.0,0.0,0.0,0.0,0.0,0.0,0.0,0.0,0.0,0.0,0.0,0.0,0.0,0.0,0.0,0.0,0.0,0.0,-2.8994,-2.8994,-2.8994,-2.8994,-2.8994,-2.8994,-2.8994,-2.9134,-2.9353,-2.9625,-2.9796,-3.0003,-3.0323,-3.0448,-3.051,-3.053,-3.0613,-3.0703,-3.0762,-3.084,-3.0891,0.0,0.0,0.0,0.0,0.0,0.0,0.0,0.0,-3.2464,-3.4083,-3.4449,-3.4872,-3.5468,-3.5493,-3.5526,-3.5565,-3.5565,-3.5565,-3.5565,-3.5565,-3.5565,-3.5565,-3.5565,-3.5565,-3.5565,-3.5565,-3.5565,-3.5565,-3.5565,-3.6026,-3.682,-3.768,-3.8546,-3.9411,-4.0239,-4.0581,-4.06,-4.06,-4.06,-4.06,0.0,0.0,0.0,0.0,0.0,0.0,0.0,-2.3105,-2.3596,-2.4154,-2.4628,-2.5017,-2.5319,-2.5067,-2.4729,-2.4272,-2.3562,0.0,0.0,0.0,0.0,0.0,0.0,0.0,-2.0782,-2.1199,-2.1552,-2.1824,-2.2005,-2.2102,-2.2102,-2.2514,-2.2698,-2.2728,-2.3175,-2.3249,0.0,0.0,0.0,0.0,0.0,0.0,-2.583,0.0,0.0,0.0,0.0,0.0,0.0,0.0,0.0,0.0,0.0,0.0,0.0,0.0,-2.8558,-2.8613,-2.892,-2.8994,-2.8994,-2.8994,-2.9203,-2.9454,-2.9643,-2.9861,-3.0075,-3.0336,-3.0417,-3.0467,-3.0506,-3.0576,-3.065,-3.0682,-3.0745,-3.0768,0.0,0.0,0.0,0.0,0.0,0.0,0.0,-3.1013,-3.1816,-3.3333,-3.3731,-3.4316,-3.5296,-3.5354,-3.5403,-3.5493,-3.5493,-3.5493,-3.5493,-3.5493,-3.5493,-3.5493,-3.5493,-3.5493,-3.5493,-3.5493,-3.5493,-3.5493,-3.5493,-3.5795,0.0,-3.7161,-3.8027,-3.8892,-3.9719,-4.0219,-4.0489,-4.0389,-4.0356,-4.0356,0.0,0.0,0.0,0.0,0.0,0.0,0.0,-2.3427,-2.3985,-2.5423,-2.5659,-2.5947,-2.6623,-2.6099,-2.5659,-2.5609,0.0,0.0,0.0,0.0,0.0,0.0,0.0,0.0,-2.2279,-2.2262,-2.2634,-2.3296,-2.3753,-2.3935,-2.3935,-2.4351,-2.4537,-2.4567,-2.4948,-2.4919,0.0,0.0,0.0,0.0,0.0,-2.6863,0.0,0.0,0.0,0.0,0.0,0.0,0.0,0.0,0.0,0.0,0.0,0.0,0.0,0.0,0.0,0.0,0.0,-2.8902,-2.8994,-2.8994,-2.9203,-2.9454,-2.9643,-2.9861,0.0,-3.0336,-3.0398,-3.0417,-3.0487,-3.0506,-3.0537,-3.0678,-3.0633,-3.055,0.0,-3.0307,0.0,0.0,0.0,0.0,-2.9795,-3.0471,-3.1242,-3.2128,-3.2883,-3.3828,-3.5013,-3.507,-3.519,-3.5432,-3.5446,-3.546,-3.5493,-3.5493,-3.5493,-3.546,-3.546,-3.546,-3.5446,-3.5446,-3.5446,0.0,-3.546,-3.5493,-3.5565,-3.6372,-3.7204,-3.805,-3.8916,-3.9727,-4.0406,-4.0158,-4.0042,-4.0042,0.0,0.0,0.0,0.0,0.0,0.0,0.0,0.0,0.0,0.0,-2.6099,-2.6505,-2.6674,-2.6539,-2.6218,0.0,0.0,0.0,0.0,0.0,0.0,0.0,0.0,0.0,-2.3924,-2.394,-2.4024,-2.4191,-2.4303,-2.4351,-2.4351,-2.4773,-2.4948,-2.4977,-2.5331,-2.5447,0.0,0.0,0.0,0.0,-2.6989,-2.7515,0.0,0.0,0.0,0.0,-2.897,-2.8613,0.0,0.0,0.0,0.0,0.0,0.0,0.0,0.0,-2.6888,-2.6924,-2.7126,0.0,-2.8994,-2.8994,-2.9203,-2.9454,0.0,-2.9861,-3.0075,-3.0336,-3.0398,-3.0398,-3.0417,-3.0467,-3.051,-3.0537,-3.0587,-3.0548,-3.0354,0.0,0.0,0.0,0.0,-2.9326,-2.97,-2.9776,-3.0451,-3.2091,-3.2392,-3.3167,-3.4698,-3.4793,-3.4813,-3.4889,-3.4889,-3.5088,-3.5493,-3.5493,-3.5403,-3.519,-3.519,-3.5088,-3.4889,-3.4889,-3.4999,-3.519,-3.519,-3.5304,-3.5565,-3.6372,-3.7057,-3.7693,-3.8572,-3.928,-3.98,-3.9735,-3.9731,-3.9731,0.0,0.0,0.0,0.0,0.0,0.0,0.0,0.0,0.0,0.0,0.0,-2.6691,-2.6691,-2.6873,0.0,0.0,0.0,0.0,0.0,0.0,0.0,0.0,0.0,-2.4675,-2.5,-2.5,-2.5169,-2.549,-2.5695,-2.5788,-2.5788,-2.6191,-2.6391,-2.6391,-2.6578,-2.6843,0.0,0.0,0.0,0.0,-2.8403,0.0,0.0,0.0,0.0,0.0,-2.8695,-2.8313,0.0,-2.6967,-2.6475,-2.6111,0.0,0.0,0.0,0.0,-2.6043,-2.6135,-2.6502,-2.7255,-2.8007,-2.8374,-2.863,-2.8949,-2.9458,-2.9731,-2.9893,-3.0052,-3.0085,-3.0085,-3.0085,-2.9954,-2.9935,-3.0136,-3.003,0.0,0.0,0.0,0.0,-2.939,-2.9178,-2.9093,0.0,-2.927,-2.9789,-3.1187,-3.1616,-3.2446,-3.3848,-3.428,-3.4551,-3.4713,-3.4694,-3.4851,-3.5122,-3.5122,-3.507,-3.4926,-3.4926,-3.4832,-3.4694,-3.4694,-3.4774,-3.4926,-3.4926,-3.4999,-3.516,-3.5596,-3.6386,-3.7355,-3.7849,-3.8674,-3.9576,-3.9432,-3.9364,-3.9364,0.0,0.0,0.0,0.0,0.0,0.0,0.0,0.0,0.0,0.0,0.0,0.0,0.0,0.0,0.0,0.0,0.0,0.0,0.0,0.0,0.0,0.0,0.0,-2.515,-2.5841,-2.5976,-2.6366,-2.7077,-2.7518,-2.7757,-2.7774,-2.8164,-2.8322,-2.8243,-2.8243,-2.8539,0.0,0.0,0.0,0.0,-2.9803,0.0,0.0,0.0,0.0,0.0,0.0,0.0,0.0,-2.6022,-2.5523,-2.5408,-2.4561,0.0,0.0,0.0,0.0,0.0,-2.6086,-2.6227,-2.6405,-2.7383,-2.774,-2.8107,-2.8983,-2.9345,-2.9491,-2.9677,-2.9696,-2.9677,-2.9623,-2.9383,-2.9289,0.0,0.0,0.0,-2.942,-2.9107,-2.8938,-2.9272,-2.903,0.0,-2.8957,-2.8905,-2.9186,-2.9972,-3.0757,-3.1696,-3.2813,-3.3629,-3.4218,-3.4548,-3.4569,-3.4569,-3.4569,-3.4653,-3.4674,-3.4614,-3.4614,-3.4612,-3.4569,-3.4569,-3.4572,-3.4614,-3.4614,0.0,-3.4694,-3.4694,-3.5616,-3.7043,-3.7043,-3.8037,-3.9432,-3.9125,-3.9036,-3.9036,0.0,0.0,0.0,0.0,0.0,0.0,0.0,0.0,0.0,0.0,0.0,0.0,0.0,0.0,0.0,0.0,0.0,0.0,0.0,0.0,0.0,-2.6895,-2.6533,-2.6551,-2.7037,-2.7708,-2.8262,-2.8735,-2.9465,-2.9862,-2.9862,-3.0234,-3.0242,-2.9844,-2.9844,-2.9527,-2.8994,-2.9057,0.0,-2.9349,-2.946,0.0,0.0,0.0,0.0,0.0,0.0,0.0,0.0,-2.6,-2.5471,-2.4915,-2.4753,0.0,0.0,0.0,0.0,0.0,-2.4797,-2.4503,-2.4563,-2.6329,-2.6799,-2.7087,-2.807,-2.8315,-2.8596,-2.951,-2.9696,-2.9605,-2.925,-2.942,-2.9532,0.0,0.0,-2.8737,0.0,0.0,0.0,-2.8833,0.0,-2.8272,-2.8787,-2.8358,-2.8413,-2.9208,-2.9964,-3.0944,-3.2155,-3.2954,-3.3542,-3.3928,-3.3928,-3.3928,-3.3928,-3.4442,-3.4551,-3.4288,-3.4288,-3.4165,-3.3928,-3.3928,-3.4062,-3.4288,0.0,-3.4423,-3.4694,-3.4694,-3.5525,-3.6764,-3.6764,-3.7607,-3.8833,-3.8792,-3.8762,-3.8762,0.0,0.0,0.0,0.0,0.0,0.0,0.0,0.0,0.0,0.0,0.0,0.0,0.0,0.0,0.0,0.0,0.0,0.0,0.0,0.0,0.0,-2.7619,-2.7457,-2.7631,-2.8263,-2.8644,-2.9122,-2.9757,-3.0326,-3.0621,-3.0621,-3.1003,-3.0812,-3.021,-3.0337,-2.9961,-2.9225,-2.9334,-2.9456,-2.9551,0.0,0.0,0.0,0.0,0.0,0.0,0.0,0.0,0.0,0.0,-2.5163,-2.4891,-2.4814,0.0,0.0,0.0,0.0,0.0,-2.4357,-2.4153,-2.4229,-2.535,-2.5819,-2.6345,-2.7683,-2.7979,-2.8184,-2.885,-2.899,-2.8946,-2.8755,-2.8709,-2.8591,-2.8196,0.0,0.0,0.0,0.0,0.0,0.0,0.0,-2.802,-2.8288,-2.8057,-2.8039,-2.8422,-2.9526,-3.0467,-3.1035,-3.2197,-3.3014,-3.3465,-3.3225,-3.3225,-3.3465,-3.3497,-3.3668,-3.3986,-3.3986,-3.3928,-3.3807,-3.3807,-3.3868,-3.3986,0.0,-3.4087,-3.4208,-3.4208,-3.5094,-3.65,-3.65,-3.7385,-3.8707,-3.8707,-3.8707,-3.8707,0.0,0.0,0.0,0.0,0.0,0.0,0.0,0.0,0.0,0.0,0.0,0.0,0.0,0.0,0.0,0.0,0.0,0.0,0.0,0.0,-2.8368,-2.802,-2.812,-2.8477,-2.9216,-2.943,-2.994,-3.0843,-3.1335,-3.1583,-3.1583,-3.185,-3.1421,-3.0485,-3.0701,-3.0259,-2.9412,-2.9551,-2.9678,-2.9744,0.0,0.0,0.0,0.0,0.0,0.0,0.0,0.0,0.0,0.0,0.0,0.0,0.0,0.0,0.0,-2.4682,-2.4588,-2.4528,-2.4321,-2.4171,-2.4233,-2.4919,-2.5279,-2.5804,-2.7123,-2.7596,-2.7771,-2.786,-2.8013,-2.8058,-2.7958,-2.7844,0.0,-2.7487,0.0,0.0,0.0,0.0,-2.7712,-2.7969,-2.778,-2.7666,-2.7754,-2.7678,-2.7707,-2.7852,-2.9131,-3.0036,-3.0307,-3.1593,-3.255,-3.3014,-3.2681,-3.2681,-3.3045,-3.2681,-3.284,-3.3504,-3.3504,-3.355,-3.3652,-3.3652,-3.3707,-3.3788,-3.3707,-3.3707,-3.3807,-3.3909,-3.4861,-3.6321,-3.6505,-3.7441,-3.8707,-3.8707,-3.8707,-3.8707,0.0,0.0,0.0,0.0,0.0,0.0,0.0,0.0,0.0,0.0,0.0,0.0,0.0,0.0,0.0,0.0,0.0,0.0,0.0,0.0,-2.8773,-2.8394,-2.8725,-2.9113,-2.9557,-3.0369,-3.1329,-3.2426,-3.3203,-3.3597,-3.3597,-3.3623,-3.2797,-3.1311,-3.1317,-3.0618,-2.9412,-2.9433,-2.9644,-2.9908,-2.9165,0.0,0.0,0.0,0.0,0.0,0.0,0.0,0.0,0.0,0.0,0.0,0.0,0.0,-2.5214,-2.5022,-2.4877,-2.4731,-2.4545,-2.4117,-2.4093,-2.5564,-2.5659,-2.5528,-2.5946,-2.6666,-2.7103,-2.6556,-2.684,-2.7082,-2.6719,-2.7029,-2.7457,-2.7811,0.0,0.0,0.0,0.0,-2.6939,-2.7317,-2.7019,-2.6939,-2.7303,-2.7004,-2.708,-2.7742,-2.8608,-2.9554,-3.0629,-3.141,-3.2074,-3.255,-3.2517,-3.2517,-3.255,-3.2517,-3.2517,-3.2583,-3.2583,-3.2809,-3.3243,-3.3243,-3.3465,-3.378,-3.3408,-3.3465,-3.3835,-3.4207,-3.5102,-3.6358,-3.711,-3.7936,-3.8707,-3.8707,-3.8707,-3.8707,0.0,0.0,0.0,0.0,0.0,0.0,0.0,0.0,0.0,0.0,0.0,0.0,0.0,0.0,0.0,0.0,0.0,0.0,0.0,-2.8929,-2.9003,-2.9016,-2.9163,-2.9864,-3.1176,-3.1367,-3.2151,-3.358,-3.3729,-3.3876,-3.4043,-3.3537,-3.2804,-3.1888,-3.1504,-3.0771,-2.9799,-2.9984,-2.987,-2.9481,-2.9213,-2.8521,0.0,0.0,0.0,0.0,0.0,0.0,0.0,0.0,-2.5409,-2.537,-2.537,-2.5322,-2.5264,-2.5046,-2.4904,-2.476,-2.4543,-2.4117,-2.4071,-2.5595,-2.5727,-2.5608,-2.6138,-2.6513,-2.6613,-2.6083,-2.615,-2.632,-2.6455,0.0,-2.664,-2.7083,-2.7036,-2.6873,-2.6725,-2.6691,-2.6758,-2.6906,-2.6774,-2.6758,-2.6906,-2.6791,-2.7012,-2.7722,-2.8552,-2.9406,-3.0267,-3.1039,-3.1603,-3.2057,-3.1823,-3.1823,-3.2057,-3.1823,-3.1694,-3.1694,-3.2248,-3.2583,-3.2745,-3.2745,-3.284,-3.2996,-3.284,-3.284,-3.3019,-3.3648,-3.4467,-3.5493,-3.6786,-3.7486,-3.7773,-3.7993,-3.8355,-3.8687,0.0,0.0,0.0,0.0,0.0,0.0,0.0,0.0,0.0,0.0,0.0,0.0,0.0,0.0,0.0,0.0,0.0,0.0,-2.9134,-2.9203,-2.9293,-2.9474,-2.9494,-3.0265,-3.1879,-3.1732,-3.2535,-3.4357,-3.4165,-3.4035,-3.3923,-3.3377,-3.2643,-3.177,-3.1364,-3.0741,-2.9994,-2.9966,-2.9678,-2.9152,-2.8664,-2.7796,0.0,0.0,0.0,0.0,0.0,0.0,0.0,0.0,-2.4891,-2.4643,-2.4639,-2.4774,-2.4889,-2.4709,-2.4721,-2.476,-2.4543,-2.4281,-2.4302,-2.5384,-2.5772,-2.5928,-2.6124,-2.6336,-2.6235,-2.5303,-2.5357,-2.5704,-2.5992,0.0,0.0,0.0,-2.6298,-2.6245,-2.6245,-2.6245,-2.6245,-2.6245,-2.6245,-2.6245,-2.6245,-2.6385,-2.6873,-2.7864,-2.8598,-2.9323,-3.013,-3.0825,-3.1235,-3.1325,-3.1218,-3.1312,-3.1603,-3.1351,-3.119,-3.119,-3.1787,-3.2162,-3.2282,-3.2282,-3.235,-3.2484,-3.2332,-3.2366,-3.2573,-3.3442,-3.4499,-3.565,-3.6748,-3.7264,-3.7354,-3.7488,-3.8043,-3.8611,0.0,0.0,0.0,0.0,0.0,0.0,0.0,0.0,0.0,0.0,0.0,0.0,0.0,0.0,0.0,0.0,0.0,0.0,-2.9412,-2.9589,-2.9696,-2.9713,-2.9713,-3.0194,-3.1272,-3.1306,-3.2416,-3.4694,-3.4694,-3.424,-3.3391,-3.3391,-3.2486,-3.0922,-3.0903,-3.0553,-2.9942,-2.9136,-2.8951,-2.9017,-2.7379,-2.6732,-2.6695,0.0,0.0,0.0,0.0,0.0,0.0,0.0,-2.367,-2.2993,-2.3003,-2.3506,-2.4063,-2.3938,-2.4326,-2.4741,-2.4561,-2.4647,-2.4797,-2.4883,-2.5783,-2.6462,-2.5581,-2.5981,-2.5957,-2.4002,-2.4471,-2.515,-2.5022,-2.5533,0.0,0.0,-2.5459,-2.5221,-2.5221,-2.5221,-2.5221,-2.5221,-2.5221,-2.5221,-2.5221,-2.5705,-2.6607,-2.8097,-2.8682,-2.9374,-3.0269,-3.0878,-3.0918,-3.0293,-3.0878,-3.119,-3.119,-3.119,-3.119,-3.119,-3.119,-3.1411,-3.1771,-3.1771,-3.2074,-3.2451,-3.2004,-3.2074,-3.2592,-3.3748,-3.5399,-3.7173,-3.7173,-3.7388,-3.7638,-3.7317,-3.7818,-3.8394,0.0,0.0,0.0,0.0,0.0,0.0,0.0,0.0,0.0,0.0,0.0,0.0,0.0,0.0,0.0,0.0,0.0,0.0,-2.9607,-2.9661,-2.9763,-2.9908,-2.9908,-3.0433,-3.1565,-3.2141,-3.2962,-3.4068,-3.3885,-3.3753,-3.3652,-3.2476,-3.1778,-3.1508,-3.0896,-3.0196,-2.9494,-2.9353,-2.8624,-2.7542,-2.7031,-2.6489,-2.5853,0.0,0.0,0.0,0.0,0.0,0.0,0.0,0.0,0.0,-2.3074,-2.3155,-2.3369,-2.388,-2.4064,-2.4183,-2.4591,-2.4484,-2.434,-2.4783,-2.5204,-2.5484,-2.5416,-2.5981,-2.6044,-2.448,-2.4116,-2.4184,-2.4505,-2.476,0.0,0.0,-2.5265,-2.5221,-2.5221,-2.5221,-2.5335,-2.5726,-2.5411,-2.5335,-2.5742,-2.601,-2.673,-2.8092,-2.8379,-2.9041,-3.0243,-3.0081,-3.0038,-3.0293,-3.0477,-3.0781,-3.119,-3.119,-3.119,-3.119,-3.119,-3.1252,-3.1389,-3.1389,-3.1449,-3.16,-3.1449,-3.1739,-3.2454,-3.3857,-3.5053,-3.6079,-3.6079,-3.6131,-3.6191,-3.6104,-3.6253,-3.6448,0.0,0.0,0.0,0.0,0.0,0.0,0.0,0.0,0.0,0.0,-2.9272,-2.9334,0.0,0.0,0.0,0.0,0.0,0.0,-2.9813,-2.9912,-3.0037,-3.015,-3.0169,-3.0529,-3.1256,-3.1742,-3.2146,-3.2522,-3.3013,-3.3165,-3.2981,-3.1991,-3.1282,-3.0782,-3.0219,-2.9535,-2.8771,-2.8473,-2.7768,-2.676,-2.6095,-2.5529,-2.4994,0.0,0.0,0.0,0.0,0.0,0.0,0.0,0.0,0.0,-2.2109,-2.2273,-2.262,-2.3323,-2.3622,-2.386,-2.452,-2.4504,-2.4314,-2.4253,-2.4822,-2.5527,-2.5858,-2.5778,-2.541,-2.4561,-2.4142,-2.3948,-2.4074,-2.4282,0.0,-2.4552,-2.4536,-2.4536,-2.4536,-2.4536,-2.4657,-2.5012,-2.4736,-2.4712,-2.5028,-2.5559,-2.6354,-2.7437,-2.8035,-2.8698,-2.9553,-2.9451,-2.9451,-2.9585,-2.9805,-3.0123,-3.0477,-3.0699,-3.0838,-3.0838,-3.1112,-3.119,-3.119,-3.119,-3.119,-3.1207,-3.1495,-3.2205,-3.322,-3.4117,-3.4928,-3.5622,-3.5622,-3.5622,-3.5588,-3.5608,-3.5606,-3.5588,0.0,0.0,0.0,0.0,0.0,0.0,0.0,0.0,0.0,-2.9713,-2.9696,-2.9713,0.0,0.0,0.0,-2.9746,-2.9791,-2.9837,-2.9894,-3.012,-3.0244,-3.0244,-3.0317,-3.0433,-3.0602,-3.0539,-3.0519,-3.0602,-3.2135,-3.2532,-3.1838,-3.1804,-3.0937,-2.9417,-2.9211,-2.8691,-2.7949,-2.7109,-2.6679,-2.6465,-2.4921,-2.4253,-2.4079,-2.3291,0.0,0.0,0.0,0.0,0.0,0.0,0.0,0.0,-2.0583,-2.1073,-2.1787,-2.2422,-2.3019,-2.3638,-2.4257,-2.4575,-2.4527,-2.3501,-2.4637,-2.61,-2.6553,-2.557,-2.4552,-2.4471,0.0,-2.4241,-2.3724,-2.3991,-2.4158,-2.3681,-2.3595,-2.3595,-2.3595,-2.3551,-2.3551,-2.3681,-2.3595,-2.3566,-2.3771,-2.4765,-2.5728,-2.6525,-2.7595,-2.8318,-2.848,-2.8966,-2.8996,-2.8511,-2.9042,-2.9361,-2.9406,-2.9935,-3.0208,-3.0208,-3.0781,-3.1015,-3.1055,-3.1095,-3.1145,-3.1246,-3.2013,-3.3144,-3.4506,-3.4573,-3.5013,-3.5622,-3.5622,-3.5594,-3.5583,-3.5594,-3.5594,-3.5583,0.0,0.0,0.0,0.0,0.0,0.0,0.0,0.0,-2.9877,-2.9731,-2.9696,-2.9746,-2.9924,-2.9368,0.0,-3.0171,-2.9128,-2.861,-2.9025,-2.9113,-2.9133,-2.9133,-2.9253,-2.9763,-3.0671,-2.9962,-2.9943,-3.0679,-3.1609,-3.2092,-3.2097,-3.1271,-3.0687,-3.0258,-2.8938,-2.824,-2.807,-2.7869,-2.7001,-2.5739,-2.5365,-2.4436,-2.3245,-2.2956,-2.2844,0.0,0.0,0.0,0.0,0.0,0.0,0.0,-2.051,-2.0569,-2.0792,-2.1669,-2.2319,-2.2882,-2.3604,-2.4185,-2.4413,-2.3771,-2.4416,-2.5397,-2.6083,-2.5949,-2.554,-2.5105,-2.4712,-2.4241,-2.3724,-2.3681,-2.3709,-2.3638,-2.3595,-2.3595,-2.3595,-2.3187,-2.3216,-2.4101,-2.3435,-2.3422,-2.4866,-2.5333,-2.6047,-2.7178,-2.7561,-2.7972,-2.8463,-2.8174,-2.8125,-2.8511,-2.8654,-2.8919,-2.9406,-2.954,-2.9585,-2.9585,-2.9717,-2.9805,-2.9805,-3.0293,-3.0817,-3.1397,-3.2127,-3.3238,-3.4539,-3.5131,-3.547,-3.5622,-3.5622,-3.5597,-3.5599,-3.5605,-3.5597,-3.5599,0.0,0.0,0.0,0.0,0.0,0.0,0.0,0.0,-3.1111,-3.0261,-3.0132,-3.0142,-3.0182,-2.9813,0.0,0.0,-2.8429,-2.799,-2.8075,-2.8085,-2.8222,-2.8507,-2.855,-2.8741,-2.9104,-2.8915,-2.8894,-2.9075,-3.0005,-3.082,-3.1473,-3.0918,-3.0208,-2.9371,-2.8485,-2.7641,-2.6853,-2.6792,-2.6222,-2.5405,-2.5409,-2.4305,-2.2581,-2.1875,-2.1588,-2.1483,-2.0642,0.0,0.0,0.0,0.0,0.0,0.0,0.0,-2.0491,-2.1289,-2.1733,-2.2199,-2.327,-2.3715,-2.3971,-2.4172,-2.4442,-2.495,-2.612,-2.621,-2.5984,-2.5851,-2.5287,-2.4632,-2.4074,-2.3991,-2.3921,-2.3638,-2.3595,-2.3595,-2.3595,-2.3054,-2.2905,-2.3507,-2.3084,-2.3212,-2.4433,-2.4887,-2.5634,-2.6961,-2.6724,-2.7004,-2.7993,-2.7444,-2.7393,-2.8042,-2.8091,-2.8222,-2.8543,-2.881,-2.8966,-2.8966,-2.9271,-2.94,-2.9454,-3.0084,-3.0742,-3.1486,-3.2171,-3.3092,-3.4112,-3.4725,-3.4844,-3.4721,-3.5349,-3.5621,-3.5432,-3.412,-3.448,-3.5597,0.0,0.0,0.0,0.0,0.0,0.0,0.0,0.0,0.0,-3.0766,-3.0604,-3.04,-2.9927,-2.9946,-2.9417,0.0,0.0,0.0,-2.7032,-2.701,-2.7246,-2.7759,-2.773,-2.7602,-2.7402,-2.7698,-2.7711,-2.747,-2.8381,-2.9253,-3.0114,-3.0525,-2.962,-2.7624,-2.7624,-2.6823,-2.5465,-2.5363,-2.5232,-2.5065,-2.448,-2.3259,-2.1656,-2.0557,-2.013,-2.0127,-2.0142,-2.0127,-2.0159,-2.0329,0.0,0.0,0.0,0.0,-2.0422,-2.0941,-2.121,-2.1628,-2.2799,-2.3253,-2.3581,-2.4508,-2.4603,-2.4768,-2.6065,-2.6219,-2.6151,-2.6398,-2.5851,-2.5144,-2.4511,-2.4389,-2.4225,-2.3681,-2.3595,-2.3595,-2.3595,-2.2965,-2.2558,-2.2694,-2.2603,-2.2844,-2.3588,-2.4181,-2.5096,-2.6495,-2.5877,-2.6054,-2.7509,-2.6878,-2.6826,-2.7575,-2.7625,-2.7625,-2.7625,-2.8091,-2.8319,-2.8319,-2.8873,-2.9187,-2.935,-2.997,-3.0719,-3.1548,-3.2103,-3.2806,-3.3633,-3.4121,-3.4022,-3.3732,-3.5087,-3.5431,-3.4972,-3.2424,-3.2942,-3.4875,0.0,0.0,0.0,0.0,0.0,0.0,0.0,0.0,0.0,0.0,-3.0607,-2.9862,-2.7938,-2.8133,-2.8139,-2.7434,-2.6483,-2.5909,-2.5919,0.0,0.0,-2.6025,-2.6025,-2.644,-2.7383,-2.6442,-2.6655,-2.8078,-2.8116,-2.7978,-2.7705,-2.9881,-2.9023,-2.5678,-2.5669,-2.5535,-2.5332,-2.5317,-2.4929,-2.4093,-2.125,-1.9937,-1.9681,-1.9513,-1.9439,-1.9432,-1.9428,-1.9437,-1.9525,-2.0105,-2.0211,0.0,0.0,0.0,-2.0087,-2.0222,-2.0717,-2.1287,-2.1595,-2.2601,-2.3719,-2.4391,-2.4761,-2.5005,0.0,0.0,-2.6122,0.0,-2.6017,-2.5577,-2.4592,-2.4389,-2.4225,-2.3681,-2.3595,-2.3595,-2.3595,-2.256,-2.2053,-2.2649,-2.2193,-2.2311,-2.3506,-2.4141,-2.5085,-2.6399,-2.5795,-2.6054,-2.7509,-2.6878,-2.6826,-2.7575,-2.7625,-2.7625,-2.7625,-2.766,-2.771,-2.771,-2.7795,-2.8173,-2.8763,-2.9388,-3.0402,-3.1581,-3.169,-3.2462,-3.3665,-3.4127,-3.4027,-3.3713,-3.5096,-3.4917,-3.3675,-3.2071,-3.1753,-3.2021,0.0,0.0,0.0,0.0,0.0,0.0,0.0,0.0,0.0,0.0,0.0,-2.9645,-2.6713,-2.6615,-2.6654,-2.6418,-2.5944,-2.5667,-2.5706,-2.5693,-2.5703,-2.5703,-2.5703,-2.5925,-2.6446,-2.5931,-2.5976,-2.6689,-2.6699,-2.6515,0.0,-2.7246,-2.6273,-2.3626,-2.3629,-2.403,-2.4683,-2.4685,-2.3427,-2.1335,-1.9871,-1.9308,-1.9313,-1.9303,-1.9292,-1.9295,-1.9312,-1.9538,-1.9838,0.0,-1.9851,-1.9977,-1.9861,0.0,0.0,0.0,-2.0238,-2.0688,-2.1208,-2.2504,-2.375,-2.3907,-2.4348,-2.4875,-2.5219,-2.5342,-2.5561,-2.6293,-2.6237,-2.5832,-2.501,-2.4855,-2.4576,-2.3767,-2.3595,-2.3595,-2.3595,-2.2815,-2.2346,-2.2649,-2.2452,-2.2606,-2.3529,-2.378,-2.4591,-2.6357,-2.4993,-2.5148,-2.7458,-2.6496,-2.6215,-2.693,-2.7357,-2.7408,-2.6982,-2.7408,-2.7625,-2.7625,-2.7964,-2.8502,-2.9175,-2.9804,-3.0403,-3.1004,-3.1399,-3.1885,-3.2446,-3.2632,-3.2609,-3.2461,-3.3058,-3.2952,-3.2374,-3.1723,-3.148,-3.1475,0.0,0.0,0.0,0.0,0.0,0.0,0.0,0.0,0.0,0.0,0.0,-2.8594,-2.5977,0.0,0.0,0.0,-2.5679,-2.5666,-2.5658,-2.5677,-2.5677,-2.5677,-2.5698,-2.5697,-2.5699,-2.5619,-2.5572,-2.5504,-2.5572,-2.5273,-2.4652,-2.4576,-2.3747,-2.2273,-2.1758,-2.2071,-2.2954,-2.2951,-2.1537,-1.932,-1.9381,-1.938,-1.9327,-1.9492,-1.9556,-1.9537,-1.9356,0.0,0.0,0.0,0.0,0.0,0.0,0.0,0.0,0.0,0.0,-2.0237,-2.1067,-2.2243,-2.3269,-2.3515,-2.3927,-2.4482,0.0,0.0,-2.5064,0.0,-2.6103,-2.5885,-2.5208,-2.5169,-2.4855,-2.3752,-2.3595,-2.3595,0.0,0.0,0.0,0.0,0.0,0.0,0.0,0.0,0.0,0.0,-2.4496,-2.4641,-2.7458,-2.604,-2.5618,-2.6721,-2.7137,-2.7152,-2.6774,-2.7306,-2.7625,-2.7625,-2.804,-2.8762,-2.9609,-2.9985,-3.0413,-3.0791,-3.13,-3.1482,-3.1509,-3.1475,-3.1479,-3.1495,-3.1531,-3.1494,-3.1482,-3.1482,-3.1482,-3.148,0.0,0.0,0.0,0.0,0.0,0.0,0.0,0.0,0.0,0.0,0.0,-2.5898,-2.5723,-2.5696,-2.5707,-2.5707,-2.564,-2.558,-2.5513,-2.558,-2.5619,-2.5619,-2.5675,0.0,-2.571,-2.5459,-2.5389,-2.5499,-2.5376,-2.4503,-2.2918,-2.2593,-2.2407,-2.2224,-2.0307,-1.9487,-1.9542,-1.9554,-1.9456,-1.9326,-1.9652,-1.9582,-1.9359,-2.0007,0.0,0.0,0.0,0.0,0.0,0.0,0.0,0.0,0.0,0.0,0.0,0.0,0.0,0.0,-2.1053,-2.1464,-2.1971,-2.3418,-2.3713,-2.3803,0.0,0.0,0.0,0.0,-2.5307,-2.5843,-2.4993,-2.5017,-2.4855,-2.3752,0.0,0.0,0.0,0.0,0.0,0.0,0.0,0.0,0.0,0.0,0.0,0.0,-2.4681,-2.5217,-2.7458,-2.555,-2.5329,-2.7458,-2.6878,-2.6878,-2.7524,-2.7575,-2.7625,-2.7575,-2.7438,-2.8148,-2.9594,-2.9462,-3.0148,-3.1422,-3.1452,-3.1482,-3.1482,-3.1509,-3.1509,-3.1524,-3.1509,-3.1509,-3.1482,-3.1482,-3.1482,-3.1524,0.0,0.0,0.0,0.0,0.0,0.0,0.0,0.0,0.0,0.0,0.0,0.0,0.0,-2.5615,-2.5602,-2.568,-2.5597,-2.5524,-2.5495,-2.5604,-2.5657,-2.5657,-2.5517,-2.4438,-2.2281,-2.4416,-2.4437,-2.2157,-2.1681,-2.113,-2.0554,-2.0433,-2.0364,-2.0337,-1.9623,-1.9301,-1.9301,-1.9295,0.0,0.0,-1.9662,-1.9862,-1.9969,-2.0205,0.0,0.0,0.0,0.0,0.0,0.0,0.0,0.0,0.0,0.0,0.0,0.0,-1.9713,-1.9933,-2.036,-2.0973,-2.1641,-2.2247,-2.2975,-2.3605,-2.3861,0.0,0.0,0.0,-2.4792,-2.4975,-2.5077,-2.515,0.0,0.0,0.0,0.0,0.0,0.0,0.0,0.0,0.0,0.0,0.0,0.0,0.0,0.0,0.0,-2.5273,-2.7458,-2.5494,-2.5119,-2.6826,-2.6176,-2.5892,-2.6215,-2.6215,-2.6361,-2.6704,-2.7031,-2.7722,-2.8592,-2.8961,-2.9431,-2.9889,-2.9889,-3.0524,-3.1482,-3.1482,-3.1482,-3.1482,-3.1482,-3.1482,-3.1482,-3.1482,-3.1482,-3.1482,0.0,0.0,0.0,0.0,0.0,0.0,0.0,0.0,0.0,-3.0748,0.0,0.0,0.0,0.0,-2.5531,-2.5628,-2.5513,-2.5437,-2.5438,-2.5523,-2.5569,-2.5569,-2.4328,-2.2571,-2.0359,-2.2665,-2.2717,-2.0295,-1.9625,-1.9298,-1.9305,-1.9295,-1.9298,-1.9305,-1.9305,-1.9305,0.0,0.0,0.0,-1.932,0.0,0.0,-2.0169,0.0,0.0,0.0,0.0,0.0,0.0,0.0,0.0,0.0,0.0,0.0,0.0,0.0,-1.9559,-1.9681,-1.9875,-2.045,-2.1065,-2.1465,-2.2197,-2.293,-2.3447,0.0,0.0,0.0,0.0,0.0,0.0,0.0,0.0,0.0,0.0,0.0,0.0,0.0,0.0,0.0,0.0,0.0,0.0,0.0,0.0,0.0,0.0,0.0,-2.7509,-2.5259,-2.4452,-2.5728,-2.5508,-2.5398,-2.5398,-2.5398,-2.5645,-2.6194,-2.6608,-2.7209,-2.7996,-2.8411,-2.8748,-2.9002,-2.9002,-2.9628,-3.0644,-3.0644,-3.0837,-3.1087,-3.1087,-3.1278,-3.1482,-3.1482,-3.1482,-3.1482,0.0,0.0,0.0,0.0,0.0,0.0,0.0,0.0,-3.0766,-3.0444,0.0,0.0,0.0,0.0,0.0,-2.5457,-2.5362,-2.5267,-2.5159,-2.5148,-2.5146,-2.5146,-2.2034,-2.0301,-2.031,-2.0307,-2.0293,-2.0308,-1.9658,-1.9313,-1.9295,-1.9306,-1.9305,-1.9305,-1.9305,-1.9289,-1.9308,0.0,-1.9289,-1.9301,0.0,-1.9663,-1.9929,0.0,0.0,0.0,-2.0834,-2.0345,0.0,0.0,0.0,0.0,0.0,0.0,0.0,0.0,-1.9305,-1.9376,0.0,0.0,0.0,-2.1197,0.0,0.0,-2.3131,0.0,0.0,0.0,0.0,0.0,0.0,0.0,0.0,0.0,0.0,0.0,0.0,0.0,0.0,0.0,0.0,0.0,0.0,0.0,0.0,0.0,-2.5418,-2.6054,-2.7509,-2.4797,-2.3531,-2.4234,-2.4951,-2.5342,-2.5342,-2.5342,-2.5603,-2.6164,-2.5948,-2.6596,-2.7961,-2.7719,-2.8117,-2.8939,-2.8939,-2.8939,-2.8939,-2.9002,-2.9504,-3.0269,-3.0269,-3.0718,-3.1409,-3.1467,-3.1467,-3.1424,0.0,0.0,0.0,0.0,0.0,-3.0806,-3.0579,-3.0535,-3.0518,0.0,0.0,0.0,-2.5671,-2.533,-2.5145,-2.4606,-2.501,-2.4276,-2.184,-2.1675,-2.1673,-2.1673,-2.0788,-2.0306,-2.0307,-2.0297,-2.0291,-2.0297,-2.0114,-1.9782,-1.9291,-1.9301,-1.9305,-1.9305,-1.9305,-1.9285,-1.9282,-1.9049,0.0,0.0,-1.9258,-1.9397,0.0,0.0,0.0,0.0,0.0,-2.1522,0.0,0.0,-2.0307,-2.0222,0.0,0.0,-1.9305,0.0,-1.9394,-1.9541,-1.9636,0.0,0.0,0.0,0.0,0.0,0.0,0.0,0.0,0.0,0.0,0.0,0.0,0.0,0.0,0.0,0.0,0.0,0.0,0.0,0.0,0.0,0.0,0.0,0.0,0.0,0.0,0.0,-2.5148,-2.5783,-2.6774,-2.6,-2.4937,-2.3484,-2.4163,-2.4337,-2.3754,-2.3754,-2.4197,-2.5189,-2.5154,-2.5729,-2.693,-2.6841,-2.6973,-2.7162,-2.7162,-2.7162,-2.7284,-2.8492,-2.9129,-2.938,-2.938,-2.9504,-2.9737,-3.0125,-3.0283,-3.042,0.0,0.0,-3.0679,-3.0679,-3.0679,-3.0627,-3.0439,-3.04,-3.04,0.0,0.0,0.0,-2.5253,-2.484,-2.4663,-2.4252,-2.4599,-2.402,-2.2045,-2.0639,-1.987,-1.988,-1.9884,-1.9873,-1.9884,-2.0161,-2.0153,-1.9877,-1.9888,-1.9685,-1.9302,-1.9298,-1.9305,-1.9289,-1.9303,-1.9297,-1.9271,0.0,0.0,0.0,-1.9179,0.0,0.0,-2.1343,-2.2015,0.0,0.0,0.0,-2.201,-2.0724,-2.0244,0.0,0.0,0.0,0.0,0.0,-1.938,-1.9499,-1.9587,-1.975,-1.9934,-2.0039,0.0,0.0,0.0,-2.149,0.0,0.0,0.0,0.0,0.0,0.0,0.0,0.0,0.0,0.0,0.0,0.0,0.0,0.0,0.0,0.0,0.0,-2.4303,-2.4963,-2.4498,-2.5078,-2.5502,-2.5605,-2.5563,-2.4838,-2.3125,-2.3531,-2.3603,-2.3078,-2.3078,-2.3703,-2.482,-2.482,-2.5398,-2.6533,-2.6533,-2.6533,-2.6533,-2.6533,-2.6533,-2.6589,-2.7537,-2.8182,-2.8427,-2.8427,-2.8817,-2.9344,-2.9685,-3.0092,-3.0614,0.0,0.0,-3.0398,-3.0398,-3.0405,-3.0388,-3.0403,-3.0312,-3.0247,0.0,-3.0237,-2.8695,-2.4645,-2.4199,-2.4199,-2.4204,-2.4193,-2.4209,-2.4209,-2.1119,-1.93,-1.9301,-1.93,-1.9305,-1.9298,-1.9887,-1.9906,-1.9298,-1.9306,-1.93,-1.9286,-1.9295,-1.9292,-1.9308,-1.9302,-1.9253,-1.9093,-1.85,0.0,-1.8679,-1.9324,-2.0062,0.0,0.0,-2.303,0.0,-2.3869,-2.4339,-2.4372,-2.1463,-2.0335,0.0,0.0,0.0,0.0,0.0,-1.9335,-1.9365,-1.9527,-1.9695,-1.9824,-1.9953,0.0,0.0,-2.0825,-2.0961,0.0,0.0,0.0,0.0,0.0,0.0,0.0,0.0,0.0,0.0,0.0,0.0,0.0,0.0,0.0,0.0,-2.3681,-2.4223,-2.4515,-2.4388,-2.5013,-2.5043,-2.431,-2.4292,-2.3943,-2.3138,-2.3078,-2.3078,-2.3078,-2.3078,-2.3703,-2.482,-2.482,-2.5398,-2.6533,-2.6533,-2.6533,-2.6533,-2.6533,-2.6533,-2.6533,-2.6533,-2.6905,-2.7537,-2.7537,-2.8316,-2.9412,-2.9434,-3.0087,-3.0956,-3.0398,-3.0398,-3.0398,-3.0398,-3.0394,-3.04,-3.0395,-2.975,-2.9278,-2.9264,-2.9269,-2.7979,-2.4578,-2.4202,-2.4182,-2.4198,-2.4194,-2.4201,-2.4184,-2.1112,-1.9309,-1.9288,-1.9295,-1.93,-1.9292,-1.9425,-1.9425,-1.9292,-1.9294,-1.9295,-1.9313,-1.9294,-1.9312,-1.9308,-1.9291,-1.8858,-1.8088,0.0,0.0,-1.8841,-1.9647,0.0,-2.0923,-2.2821,-2.3722,-2.4081,-2.4763,-2.4677,-2.3976,0.0,-2.1397,-2.107,0.0,0.0,0.0,0.0,0.0,0.0,-1.938,-1.9567,0.0,0.0,0.0,0.0,-2.0416,-2.0451,0.0,0.0,0.0,0.0,0.0,0.0,0.0,0.0,0.0,0.0,0.0,0.0,0.0,0.0,0.0,0.0,-2.4184,-2.4472,-2.4338,-2.3755,-2.425,-2.4504,-2.431,-2.4292,-2.3943,-2.3138,-2.3078,-2.3078,-2.3078,-2.3078,-2.3703,-2.482,-2.482,-2.5398,-2.6533,-2.6533,-2.6533,-2.6533,-2.6533,-2.6533,-2.6533,-2.6533,-2.6589,-2.6714,-2.6714,-2.6875,-2.7134,-2.7144,-2.73,-2.7481,-2.8975,-2.9639,-3.0049,-3.0049,-3.0037,-2.9981,-2.975,-2.9288,-2.9007,-2.9001,-2.9016,-2.8392,-2.6775,-2.5157,-2.3929,-2.3318,-2.3253,-2.3236,-2.3244,-2.1711,-2.0358,-1.9343,-1.9287,-1.9298,-1.9313,-1.9298,-1.9298,-1.9294,-1.9298,-1.9294,-1.9294,-1.9303,-1.903,-1.8575,-1.9091,-1.8735,-1.7807,0.0,-1.8598,-1.9914,-2.0117,0.0,-2.1676,-2.3316,-2.4264,-2.4755,-2.5159,-2.4774,-2.3995,-2.3293,-2.2603,0.0,0.0,-2.1029,-2.0448,0.0,-1.9707,-1.9669,0.0,0.0,0.0,-1.979,0.0,0.0,0.0,0.0,0.0,0.0,0.0,0.0,0.0,0.0,0.0,0.0,0.0,0.0,0.0,0.0,0.0,0.0,0.0,0.0,-2.476,-2.4632,-2.4384,-2.4051,-2.3923,-2.3999,-2.4309,-2.3948,-2.3543,-2.3138,-2.3078,-2.3078,-2.3078,-2.3078,-2.3703,-2.482,-2.482,-2.5398,-2.6533,-2.6533,-2.6533,-2.6533,-2.6533,-2.6533,-2.6533,-2.6533,-2.6533,-2.6533,-2.6533,-2.6533,-2.6508,-2.6511,-2.6493,-2.6514,-2.7022,-2.8083,-2.8841,-2.9065,-2.9361,-2.9438,-2.906,-2.8996,-2.9003,-2.9003,-2.9003,-2.892,-2.8706,-2.6044,-2.3714,-2.2415,-2.2293,-2.2312,-2.2295,-2.2287,-2.1319,-1.9121,-1.9201,-1.9302,-1.9289,-1.9295,-1.9298,-1.9298,-1.9303,-1.92,-1.9003,-1.9004,-1.8678,-1.8138,-1.907,0.0,0.0,0.0,0.0,-2.0877,0.0,-2.138,-2.2627,-2.3828,-2.4677,-2.5253,-2.5293,-2.4889,-2.4341,-2.4341,0.0,-2.2863,-2.2077,-2.1587,0.0,0.0,0.0,0.0,0.0,0.0,0.0,0.0,0.0,-2.006,0.0,0.0,0.0,0.0,0.0,0.0,0.0,0.0,0.0,0.0,0.0,0.0,0.0,0.0,0.0,0.0,0.0,0.0,0.0,-2.4776,-2.4518,-2.4417,-2.3839,-2.3717,-2.4163,-2.3558,-2.3132,-2.3125,-2.3078,-2.3078,-2.3078,-2.3078,-2.3653,-2.4669,-2.477,-2.5335,-2.6302,-2.6483,-2.6533,-2.6533,-2.6533,-2.6533,-2.6533,-2.6533,-2.6533,-2.6533,-2.6533,-2.6533,-2.6533,-2.6533,-2.6533,-2.6483,-2.5096,-2.5254,-2.5702,-2.6764,-2.814,-2.9064,-2.9007,-2.9003,-2.9003,-2.9017,-2.9004,-2.8652,-2.7699,-2.5733,-2.3879,-2.242,0.0,0.0,-2.2288,-2.23,-2.1,-1.8108,-1.8829,-1.929,-1.9308,-1.9314,-1.9304,-1.9304,-1.9309,-1.8857,-1.7962,-1.7962,-1.8387,-1.9162,-1.9885,0.0,0.0,0.0,-1.9573,0.0,-2.1466,-2.2357,0.0,-2.4455,-2.4958,-2.5065,-2.5243,-2.5245,-2.5149,0.0,-2.4502,-2.3709,0.0,-2.264,-2.1278,0.0,0.0,0.0,0.0,0.0,0.0,0.0,-2.0031,0.0,0.0,0.0,0.0,0.0,0.0,0.0,0.0,0.0,0.0,0.0,0.0,0.0,0.0,0.0,0.0,0.0,0.0,0.0,0.0,-2.5003,-2.476,-2.3868,-2.4031,-2.3991,-2.3537,-2.3336,-2.3225,-2.3113,-2.3078,-2.3078,-2.3078,-2.3078,-2.3452,-2.4104,-2.4594,-2.5134,-2.5711,-2.6226,-2.6533,-2.6533,-2.6533,-2.6533,-2.6533,-2.6533,-2.6533,-2.6533,-2.6533,-2.6533,-2.6533,-2.6533,-2.6533,-2.6521,-2.4704,-2.5089,-2.5475,-2.5976,-2.6935,-2.7682,-2.7915,-2.8191,-2.836,-2.836,-2.838,-2.8246,-2.7897,0.0,0.0,0.0,0.0,-2.3397,0.0,0.0,-2.1739,-2.046,-1.9699,-1.9294,-1.9308,-1.9291,-1.9003,-1.8431,-1.8427,-1.8204,-1.7798,-1.8387,-1.8574,-1.8464,-1.9543,0.0,-1.9856,0.0,0.0,0.0,0.0,0.0,0.0,-2.4927,-2.5173,-2.5192,-2.5264,-2.5322,-2.537,0.0,-2.5081,0.0,0.0,0.0,0.0,0.0,0.0,0.0,0.0,0.0,0.0,0.0,0.0,0.0,-2.0175,0.0,-2.0312,0.0,0.0,0.0,0.0,0.0,0.0,0.0,0.0,0.0,0.0,0.0,0.0,0.0,0.0,0.0,0.0,0.0,0.0,0.0,-2.4224,-2.4028,-2.3405,-2.3362,-2.3275,-2.3113,-2.3078,-2.3078,-2.3078,-2.3078,-2.3452,-2.4204,-2.4582,-2.5237,-2.6159,-2.64,-2.6533,-2.6533,-2.6533,-2.6533,-2.6533,-2.6533,-2.6533,-2.6533,-2.6533,-2.6533,-2.6533,-2.6533,-2.6533,-2.6533,-2.4263,-2.4709,-2.5001,-2.5001,-2.5555,-2.6232,-2.6986,-2.7289,-2.7536,-2.7862,0.0,0.0,-2.7799,-2.7004,0.0,0.0,-2.39,-2.3999,0.0,0.0,-2.2282,-2.2295,-2.0119,0.0,0.0,-1.8887,-1.8524,-1.7792,-1.7803,-1.7948,-1.8228,-1.8686,-1.8644,-1.8253,0.0,-1.9899,-2.028,0.0,0.0,-2.3051,-2.2514,-2.3328,-2.4987,-2.5398,-2.5629,-2.5717,-2.5947,-2.6073,-2.6092,-2.5858,-2.5749,0.0,-2.4826,0.0,0.0,0.0,0.0,0.0,-2.1767,0.0,0.0,0.0,0.0,0.0,0.0,0.0,0.0,0.0,0.0,0.0,0.0,0.0,0.0,0.0,0.0,0.0,0.0,0.0,0.0,0.0,0.0,0.0,0.0,0.0,0.0,0.0,0.0,-2.4055,-2.2964,-2.3138,-2.3197,-2.2887,-2.299,-2.3078,-2.3078,-2.3078,-2.3376,-2.3977,-2.423,-2.4895,-2.6072,-2.6173,-2.6302,-2.6533,-2.6533,-2.6533,-2.6533,-2.6533,-2.6533,-2.6533,-2.6533,-2.6533,-2.6533,-2.6533,-2.6533,-2.6533,-2.3259,-2.3277,-2.3271,-2.3271,-2.3927,-2.4992,-2.657,-2.6503,0.0,0.0,0.0,0.0,0.0,0.0,0.0,0.0,0.0,-2.3508,-2.4155,0.0,-2.2295,0.0,0.0,-1.7859,0.0,0.0,-1.7831,-1.7797,-1.7808,-1.8302,-1.9223,-1.8285,-1.8349,-1.9257,-1.9309,-1.9689,-2.0363,-2.1456,-2.2182,-2.2683,-2.3427,-2.4364,-2.536,0.0,-2.6435,-2.6766,-2.7603,0.0,0.0,-2.7045,-2.6622,0.0,0.0,0.0,0.0,0.0,0.0,0.0,0.0,0.0,0.0,-2.1389,0.0,0.0,0.0,0.0,-2.0312,0.0,0.0,0.0,0.0,0.0,0.0,0.0,0.0,0.0,0.0,0.0,0.0,0.0,0.0,0.0,0.0,0.0,0.0,0.0,0.0,0.0,-2.1794,-2.2744,-2.3071,-2.238,-2.2862,-2.3078,-2.3078,-2.3078,-2.3078,-2.3115,-2.3133,-2.3765,-2.487,-2.5269,-2.5807,-2.6533,-2.6533,-2.6533,-2.6533,-2.6533,-2.6533,-2.6533,-2.6533,-2.6533,-2.6533,-2.6533,-2.6533,-2.6533,-2.253,-2.2211,-2.2158,-2.3047,-2.3443,-2.4053,-2.5397,-2.5717,0.0,0.0,0.0,0.0,0.0,-2.7013,-2.6653,0.0,0.0,-2.4749,-2.4234,-2.3799,0.0,0.0,0.0,-2.0708,0.0,0.0,0.0,0.0,-1.7799,-1.7971,-1.8297,-1.7969,-1.7986,-1.8336,0.0,-1.9338,0.0,0.0,0.0,0.0,0.0,-2.536,-2.6256,0.0,0.0,-2.6815,-2.7741,-2.8117,0.0,-2.7777,-2.7617,-2.7403,-2.6583,-2.6086,-2.5681,-2.5121,-2.4391,-2.3741,0.0,0.0,-2.2389,-2.2393,0.0,0.0,0.0,0.0,0.0,0.0,0.0,0.0,0.0,0.0,0.0,0.0,0.0,0.0,0.0,0.0,0.0,0.0,0.0,0.0,0.0,0.0,0.0,0.0,0.0,0.0,0.0,-2.2524,-2.2419,-2.2834,-2.3005,-2.309,-2.3078,-2.3078,-2.3078,-2.3078,-2.3109,-2.3315,-2.3729,-2.5411,-2.6252,-2.6511,-2.6536,-2.6466,-2.6524,-2.6483,-2.6533,-2.6533,-2.6533,-2.6533,-2.6533,-2.6533,-2.6533,-2.6533,-2.1967,-2.1457,-2.1346,-2.2642,-2.2746,-2.3032,0.0,0.0,0.0,0.0,-2.713,0.0,-2.7303,0.0,-2.6877,0.0,-2.6411,-2.5631,-2.365,-2.3538,0.0,-2.3,-2.3756,0.0,0.0,0.0,0.0,0.0,0.0,-1.7791,-1.7794,-1.7786,-1.7797,-1.783,0.0,-1.9622,-2.0742,0.0,-2.2413,0.0,0.0,-2.588,0.0,0.0,-2.7422,-2.7817,0.0,-2.9046,-2.9036,-2.8714,-2.8573,-2.8365,-2.7496,-2.6987,-2.6584,-2.6001,-2.5246,-2.4591,-2.4572,-2.3927,0.0,-2.3353,-2.2672,0.0,-2.2046,0.0,0.0,0.0,0.0,0.0,0.0,0.0,0.0,0.0,0.0,0.0,0.0,0.0,0.0,0.0,0.0,0.0,0.0,0.0,0.0,0.0,0.0,0.0,0.0,0.0,-2.1784,-2.1908,-2.2706,-2.3094,-2.3125,-2.3078,-2.3078,-2.3078,-2.3107,-2.3119,-2.3164,-2.4632,-2.4998,-2.4378,-2.4413,-2.5169,-2.6485,-2.6464,-2.6533,-2.6533,-2.6533,-2.6533,-2.6533,-2.6533,-2.6533,-2.6533,-2.151,-2.0993,-2.0908,-2.2046,-2.1869,0.0,0.0,0.0,-2.4808,0.0,-2.6835,-2.7303,-2.7303,-2.6971,-2.6723,-2.6702,-2.7175,0.0,-2.2796,-2.2618,0.0,0.0,-2.4204,-2.3635,-2.2415,0.0,0.0,0.0,0.0,0.0,-1.7811,-1.7811,-1.7811,-1.7833,-1.8798,0.0,-2.2285,-2.2965,-2.3587,-2.4245,-2.5101,-2.5976,-2.6872,-2.7875,-2.88,-2.9659,-3.0423,-3.0699,-3.0587,-2.9809,-2.9452,-2.9221,-2.8318,-2.7484,-2.6802,-2.6697,-2.6063,-2.538,-2.5447,-2.4832,-2.4186,-2.4238,-2.3595,0.0,0.0,0.0,-2.2825,0.0,0.0,0.0,0.0,0.0,0.0,0.0,0.0,0.0,0.0,0.0,0.0,0.0,0.0,0.0,0.0,0.0,0.0,0.0,0.0,0.0,0.0,0.0,-2.1156,-1.9846,-2.1933,-2.3068,-2.31,-2.3125,-2.3078,-2.3078,-2.3078,-2.3096,-2.3063,-2.2951,-2.1968,-2.05,-2.0546,-2.2855,-2.651,-2.6502,-2.6477,-2.6533,-2.6477,-2.6477,-2.6533,-2.6533,-2.6533,-2.6533,-2.1067,-2.1005,-2.0971,0.0,-2.1229,-2.155,0.0,0.0,0.0,0.0,-2.6835,-2.7303,-2.7303,-2.721,-2.7051,-2.6723,-2.6809,0.0,0.0,0.0,0.0,-2.4289,-2.4198,-2.406,-2.3712,-2.3214,0.0,-1.7789,0.0,0.0,-1.7811,-1.7811,-1.7811,-1.7811,0.0,0.0,-2.1448,-2.2069,-2.3398,-2.5139,-2.6025,-2.6949,0.0,0.0,-2.962,-3.0412,-3.0625,-3.0678,-3.0587,-3.0323,-3.0225,-3.0033,-2.9121,-2.8659,-2.8352,-2.7755,-2.6948,-2.6274,-2.6294,-2.5668,-2.5005,-2.5087,-2.4439,-2.3815,0.0,0.0,0.0,0.0,0.0,0.0,0.0,0.0,0.0,0.0,0.0,0.0,0.0,0.0,0.0,0.0,0.0,0.0,0.0,0.0,0.0,0.0,0.0,0.0,0.0,0.0,0.0,-1.9883,-2.1979,-2.3083,-2.3114,-2.3072,-2.3078,-2.3078,-2.3078,-2.3084,-2.3003,-2.05,-1.9087,-1.8745,-2.0012,-2.2853,-2.6493,-2.651,-2.6494,-2.649,-2.6474,-2.6482,-2.6533,-2.6533,-2.6533,-2.6533,-2.0621,0.0,0.0,-2.0447,0.0,0.0,-2.2046,0.0,0.0,-2.521,-2.6296,0.0,-2.6933,-2.6985,-2.7036,-2.6971,-2.7018,0.0,-2.8,0.0,0.0,-2.4346,-2.4197,-2.4198,-2.421,-2.4187,0.0,-1.7809,0.0,0.0,-1.7811,-1.7811,-1.7811,-1.7794,0.0,-1.9131,0.0,-2.2629,-2.4024,-2.5476,-2.6373,0.0,0.0,-2.911,-2.9923,-3.0602,-3.0602,-3.0586,-3.0557,-3.0505,-3.0487,-3.0371,-2.9833,-2.941,-2.9006,-2.8563,-2.7832,-2.7178,-2.7178,-2.6524,-2.589,-2.5928,-2.5196,-2.4516,-2.4579,-2.4026,-2.3485,0.0,-2.3114,-2.2707,0.0,0.0,0.0,0.0,0.0,0.0,0.0,0.0,0.0,0.0,0.0,0.0,0.0,0.0,0.0,0.0,0.0,0.0,0.0,0.0,0.0,-1.9889,-2.1034,-2.212,-2.3103,-2.3081,-2.308,-2.3083,-2.3083,-2.3082,-2.2977,-1.9539,-1.7998,-1.8137,-1.9859,-2.2816,-2.6468,-2.6516,-2.548,-2.412,-2.5812,-2.6499,-2.6533,-2.6533,-2.6533,-2.6533,-2.0172,0.0,0.0,0.0,0.0,0.0,0.0,-2.2765,0.0,-2.4275,0.0,-2.6522,-2.6522,-2.6623,-2.6841,-2.7178,0.0,-2.7751,-2.8164,-2.8699,-2.7662,-2.466,-2.4304,-2.4203,-2.4208,-2.4203,0.0,0.0,0.0,0.0,-1.78,-1.7789,-1.7811,-1.7794,0.0,0.0,0.0,-2.3833,-2.4962,-2.5505,-2.6566,-2.744,-2.8229,-2.9255,-3.0002,-3.0506,-3.0487,-3.0487,-3.0487,-3.0487,-3.0424,-3.0355,-3.0398,-2.986,-2.9233,-2.9233,-2.8656,-2.8011,-2.7969,-2.7344,-2.6672,-2.6672,-2.591,-2.5152,-2.5196,-2.4985,-2.4733,-2.4616,-2.4154,-2.362,0.0,0.0,0.0,0.0,0.0,0.0,0.0,0.0,0.0,0.0,0.0,0.0,0.0,0.0,0.0,0.0,0.0,0.0,0.0,0.0,0.0,-2.0358,-1.9947,-2.0852,-2.3097,0.0,-2.3105,-2.3084,-2.2639,-2.2428,-2.2329,-1.9365,-1.8007,-1.8085,-1.9586,-2.2329,-2.5766,-2.6251,-2.4166,-2.0955,-2.4933,-2.6536,-2.6527,-2.6477,-2.649,-2.6527,0.0,0.0,0.0,0.0,0.0,-2.0926,-2.1086,-2.2671,-2.3999,-2.4411,-2.5744,-2.6657,-2.6657,-2.6674,-2.6725,-2.6808,-2.7604,0.0,0.0,0.0,0.0,-2.6277,-2.4915,-2.4203,-2.4208,-2.4203,-2.3819,0.0,0.0,-1.78,-1.7799,-1.7788,-1.7811,-1.7811,0.0,0.0,-2.178,-2.4058,0.0,-2.563,-2.7296,-2.806,-2.8338,-2.9844,-3.0448,-3.0487,-3.0448,-3.0417,-3.0417,-3.0417,-3.0254,-3.0122,-3.0323,-3.0139,-2.9846,-2.9846,-2.9273,-2.8597,-2.8366,-2.7717,-2.7097,-2.7097,-2.6458,-2.5823,-2.5842,-2.5174,-2.4543,-2.4517,-2.4303,-2.395,-2.3362,0.0,0.0,0.0,0.0,0.0,0.0,0.0,0.0,0.0,0.0,0.0,0.0,0.0,0.0,0.0,0.0,0.0,0.0,0.0,0.0,0.0,-2.0884,0.0,0.0,0.0,-2.3077,-2.308,-2.025,-1.8912,-1.8847,-1.8248,-1.8007,-1.7986,-1.832,-1.9692,-2.1898,-2.5144,-2.4196,-2.0959,-2.4956,-2.6473,-2.6516,-2.6496,-2.6514,-2.6516,0.0,0.0,0.0,0.0,0.0,0.0,0.0,-2.2831,-2.3869,-2.4047,-2.5414,-2.6332,-2.6332,-2.6539,-2.6774,-2.6987,-2.7278,-2.7666,-2.8264,-2.8485,-2.8182,-2.7273,-2.6075,0.0,-2.4223,-2.4205,-2.4198,-2.4218,0.0,-2.013,-2.0102,-1.8528,-1.808,-1.8608,0.0,-2.051,0.0,0.0,0.0,-2.6287,-2.762,-2.8395,-2.8906,-3.0089,-3.0506,-3.0448,-3.0398,-3.0311,-3.0196,-3.0196,-3.0122,-2.9999,-3.0037,-2.9943,-2.9845,-2.9845,-2.958,-2.9241,-2.9108,-2.8454,-2.7832,-2.7832,-2.7146,-2.6463,-2.6463,-2.5706,-2.4968,-2.4968,-2.4561,-2.4153,-2.4005,-2.3439,0.0,0.0,0.0,0.0,0.0,0.0,0.0,0.0,0.0,0.0,0.0,0.0,0.0,0.0,0.0,0.0,0.0,0.0,0.0,0.0,0.0,0.0,0.0,0.0,0.0,-2.3059,-2.142,-1.9736,-1.7966,-1.7972,-1.7978,-1.8035,-1.7985,-1.8468,-1.9463,-2.228,-2.2302,-2.0959,-2.494,-2.6481,-2.625,-2.4166,-2.4752,-2.6532,0.0,-1.9949,0.0,0.0,-2.1101,0.0,-2.2144,-2.3148,-2.3836,-2.372,-2.4933,-2.5888,-2.5977,-2.6332,-2.6708,-2.7147,-2.6954,-2.725,-2.8246,-2.8252,-2.8112,-2.7824,-2.7368,-2.6206,-2.4255,-2.4189,-2.4208,0.0,0.0,0.0,-2.1771,-1.9726,-1.906,-1.9665,0.0,0.0,0.0,0.0,-2.5581,-2.6898,-2.7771,-2.8588,-2.9392,-3.0199,-3.0467,-3.0398,-3.0343,-3.0182,-2.9984,-2.9908,-2.9877,-2.9845,-2.9748,-2.9661,-2.9644,-2.9644,-2.9644,-2.9625,-2.957,-2.9045,-2.8539,-2.8539,-2.7793,-2.7081,-2.7081,-2.6351,-2.5678,-2.5678,-2.5016,-2.4466,-2.4561,-2.4116,0.0,0.0,0.0,0.0,0.0,0.0,0.0,0.0,0.0,0.0,0.0,0.0,0.0,0.0,0.0,0.0,0.0,0.0,0.0,0.0,0.0,-1.98,-1.9776,0.0,-2.3119,-2.3083,-2.3065,-2.1327,-1.8011,-1.8006,-1.8008,-1.8027,-1.7995,-1.8023,-1.8144,-1.9493,-2.0244,-2.0917,-2.4043,-2.5753,-2.6031,-2.2048,-2.3085,-2.6488,0.0,0.0,0.0,0.0,0.0,0.0,-2.2592,-2.3656,-2.4271,-2.3753,-2.4612,-2.5449,-2.5961,-2.6049,-2.6262,-2.6725,-2.7066,-2.7435,-2.7926,-2.8219,-2.8227,-2.7824,-2.8426,-2.7334,-2.4273,-2.421,-2.4211,0.0,0.0,-2.272,-2.0238,-2.1346,-2.1429,-2.0714,0.0,0.0,0.0,-2.4695,-2.5837,-2.697,-2.7843,-2.864,-2.939,-3.0198,-3.0467,-3.0367,-3.0117,-3.0013,-2.9954,-2.957,-2.9454,-2.9474,-2.9643,-2.957,-2.9414,-2.9414,-2.9414,-2.9392,-2.9115,-2.9012,-2.8938,-2.8938,-2.8309,-2.7721,-2.7721,-2.7093,-2.6502,-2.6502,-2.5841,-2.5131,-2.4594,-2.432,-2.4211,0.0,0.0,0.0,0.0,0.0,0.0,0.0,0.0,0.0,0.0,0.0,0.0,0.0,0.0,0.0,0.0,0.0,0.0,-2.361,0.0,-1.9781,-1.9798,-2.199,-2.3075,-2.3102,-2.312,-2.1289,-1.7999,-1.7984,-1.8008,-1.8008,-1.7969,-1.7996,-1.8037,-1.8203,-1.9157,-2.0606,-2.1018,-2.3358,-2.6044,-2.2055,-2.3081,-2.6493,0.0,0.0,0.0,0.0,0.0,0.0,0.0,-2.3751,-2.4099,-2.4329,-2.5388,-2.6158,-2.6401,-2.6401,-2.6607,-2.7019,-2.721,-2.756,-2.8156,-2.8342,-2.8445,-2.8517,-2.8836,-2.8403,-2.7101,-2.5201,-2.4428,0.0,0.0,0.0,-2.1926,-2.1964,-2.2098,-2.2261,0.0,-2.3761,-2.4574,-2.5741,-2.6751,-2.7686,-2.854,-2.9332,-3.0052,-3.0321,-3.0417,-3.0367,-3.0089,-2.9924,-2.9763,-2.9494,-2.9412,-2.9392,-2.9312,-2.9228,-2.9156,-2.9156,-2.9156,-2.9134,-2.904,-2.8994,-2.8994,-2.8994,-2.8778,-2.8521,-2.8521,-2.7897,-2.731,-2.731,-2.6426,-2.5529,-2.5115,-2.458,-2.4229,-2.4303,0.0,0.0,0.0,0.0,0.0,0.0,0.0,0.0,0.0,0.0,0.0,0.0,0.0,0.0,0.0,0.0,0.0,-2.3606,0.0,-2.2595,-1.9851,-2.0657,-2.1782,-2.3129,-2.3096,-2.1308,-1.8022,-1.8005,-1.7996,-1.8008,-1.8008,-1.8018,-1.8006,-1.7989,-1.8389,-1.9128,-2.0226,-2.1565,-2.3057,-2.3881,-2.5147,-2.6469,-2.195,0.0,-2.1945,0.0,-2.2141,-2.2428,-2.3847,-2.3995,-2.4282,-2.5227,-2.6135,-2.6657,-2.6505,-2.659,-2.6839,-2.7255,-2.7409,-2.7759,-2.8467,-2.8511,-2.8724,-2.9185,-2.9174,0.0,-2.9194,-2.6142,-2.4771,-2.5305,-2.5302,0.0,-2.3469,-2.252,-2.2663,-2.3655,-2.3912,-2.4638,-2.5669,-2.6517,-2.7515,-2.8567,-2.9078,-2.9757,-3.0475,-3.033,-3.0279,-3.0241,-2.9924,-2.9729,-2.9589,-2.9353,-2.9289,-2.9246,-2.9044,-2.8994,-2.8994,-2.8994,-2.8994,-2.8994,-2.8994,-2.8994,-2.8994,-2.8994,-2.8994,-2.8994,-2.8994,-2.8576,-2.8081,-2.7842,-2.6973,-2.6127,-2.5619,-2.4797,-2.419,-2.4185,0.0,0.0,0.0,0.0,0.0,0.0,0.0,-2.2652,0.0,0.0,0.0,0.0,0.0,0.0,0.0,0.0,0.0,0.0,0.0,0.0,0.0,-1.9792,-2.092,-2.309,-2.3117,-2.182,-1.9479,-1.8436,-1.7976,-1.8008,-1.8008,-1.8008,-1.8027,-1.7975,-1.798,-1.8113,-1.9362,-2.0149,-2.0937,-2.3769,-2.5469,-2.6457,-2.2928,-2.2825,-2.2718,-2.3124,-2.2923,-2.3081,-2.433,-2.4506,-2.5017,-2.6488,-2.6691,-2.6505,-2.6049,-2.6284,-2.6737,-2.7255,-2.7648,-2.8148,-2.8769,-2.8792,-2.9058,0.0,0.0,-2.9561,-2.9683,-2.6786,-2.5289,-2.5304,0.0,0.0,-2.4157,-2.3243,-2.3475,-2.4698,-2.495,-2.5746,-2.6863,-2.6815,-2.7839,-2.9463,-2.9279,-2.9713,-3.0463,-3.0142,-3.0013,-2.9954,-2.9551,-2.9412,-2.9372,-2.9089,-2.9017,-2.9017,-2.8994,-2.8994,-2.8994,-2.8994,-2.8994,-2.8994,-2.8994,-2.8994,-2.8994,-2.8994,-2.8994,-2.8994,-2.8994,-2.8975,-2.8778,-2.7952,-2.7581,-2.7065,-2.5996,-2.492,-2.4218,-2.4197,0.0,0.0,0.0,0.0,0.0,0.0,-2.3093,-2.2324,-2.2314,0.0,0.0,0.0,0.0,0.0,0.0,0.0,0.0,-2.3565,-2.3628,0.0,-1.9831,-1.9818,-2.0909,-2.3093,-2.3125,-2.3105,-2.2903,-1.953,-1.8008,-1.8008,-1.8008,-1.8008,-1.8008,-1.8018,-1.7996,-1.7976,-1.8046,-1.911,-2.0632,-2.0627,-2.3172,-2.6299,-2.349,-2.3424,-2.331,-2.3212,-2.2923,-2.3162,-2.4637,-2.4658,-2.5048,-2.6505,-2.6939,-2.7051,-2.6905,-2.6967,-2.722,0.0,-2.8047,-2.8446,0.0,-2.9104,-2.9295,-2.9494,-2.967,-2.9753,-2.9684,-2.9091,-2.8775,-2.8772,0.0,0.0,-2.4937,-2.4396,-2.4505,-2.5149,-2.6151,-2.6802,-2.7247,-2.8226,-2.8917,-2.9413,-2.9886,-3.0225,-3.0417,-3.0311,-3.015,-2.9969,-2.9696,-2.9513,-2.9372,-2.9089,-2.8994,-2.8994,-2.8994,-2.8994,-2.8994,-2.8994,-2.8994,-2.8994,-2.8994,-2.8994,-2.8994,-2.8994,-2.8994,-2.8994,-2.8994,-2.8994,-2.892,-2.8686,-2.8535,-2.8393,-2.8055,-2.7702,-2.675,-2.4566,-2.6038,0.0,-2.452,0.0,0.0,0.0,-2.3831,-2.3602,0.0,-2.2816,0.0,0.0,0.0,0.0,0.0,0.0,0.0,0.0,-2.3628,0.0,-1.9827,-1.9783,-2.0932,-2.308,-2.309,-2.1846,-1.9621,-1.8496,-1.8012,-1.8022,-1.7997,-1.8008,-1.8008,-1.8008,-1.7998,-1.7967,-1.8023,-1.8611,-1.9633,-2.0896,-2.249,-2.4091,-2.3937,-2.3795,-2.3631,-2.3414,-2.3117,-2.3422,-2.495,-2.4999,-2.5407,-2.694,-2.7348,-2.7547,-2.7547,-2.7712,0.0,-2.8057,-2.8504,-2.8906,-2.923,-2.9494,-2.968,-2.9767,-2.9984,-3.0035,-2.9966,-3.0251,0.0,-3.04,-2.8265,-2.6572,-2.5306,-2.5103,-2.5477,-2.6381,-2.7232,-2.7725,-2.8003,-2.8916,-2.9471,-2.979,-3.0263,-3.0448,-3.0367,-3.0202,-3.0018,-2.9845,-2.9551,-2.9355,-2.9225,-2.9062,-2.8994,-2.8975,-2.8815,-2.8863,-2.8994,-2.8994,-2.8994,-2.8994,-2.8994,-2.8994,-2.8994,-2.8994,-2.8994,-2.8994,-2.8994,-2.8994,-2.8994,-2.8994,-2.8994,-2.8998,-2.8993,-2.8997,-2.8342,-2.6334,-2.7684,-2.8286,-2.6289,0.0,0.0,0.0,0.0,0.0,0.0,-2.4758,0.0,0.0,0.0,0.0,0.0,0.0,0.0,-2.3613,-2.3626,0.0,-2.125,-2.0297,-2.0891,-2.3076,-2.3111,-2.1981,-1.9901,-1.991,-1.9183,-1.8025,-1.7994,-1.7988,-1.8008,-1.8008,-1.8008,-1.8027,-1.8025,-1.8517,-1.9374,-2.039,-2.1891,-2.3513,-2.4266,-2.3958,-2.3735,-2.3735,-2.3477,-2.3768,-2.5303,-2.5508,-2.6074,-2.7685,-2.7954,-2.7964,-2.7964,-2.8506,-2.8764,-2.8522,0.0,0.0,-2.9696,-2.9893,-3.0122,-3.0374,-3.0398,-3.0398,-3.0398,-3.0398,-3.0433,-3.0419,-3.0422,-2.881,-2.5688,-2.5687,-2.6611,-2.8287,-2.8288,-2.8593,-2.9094,-2.9113,-2.9644,-3.0506,-3.0417,-3.0398,-3.0311,-2.988,-2.9713,-2.9625,-2.9185,-2.9017,-2.8994,-2.8994,-2.8994,-2.8887,-2.8515,-2.8658,-2.8952,-2.8952,-2.8994,-2.8994,-2.8994,-2.8994,-2.8994,-2.8994,-2.8994,-2.8994,-2.8994,-2.8994,-2.8994,-2.8994,-2.8994,-2.8994,-2.8994,-2.8994,-2.8994,-2.8994,-2.8993,-2.9005,-2.9005,-2.8997,-2.9003,0.0,0.0,0.0,0.0,-2.7536,-2.6713,0.0,0.0,0.0,0.0,0.0,-2.3746,-2.358,-2.3598,-2.3598,-2.3611,-2.1259,-2.1069,-2.3083,-2.3094,-2.3121,-2.3133,-2.3113,-2.1251,-1.7995,-1.8015,-1.7965,-1.8008,-1.8008,-1.8008,-1.8008,-1.8008,-1.8702,-1.9717,-1.9421,-2.1343,-2.4036,-2.4426,-2.4247,-2.4074,-2.4074,-2.3795,-2.4105,-2.5644,-2.5661,-2.6074,-2.7685,-2.8314,-2.8579,-2.8579,-2.9122,-2.9475,-2.9483,-2.957,-2.9643,-2.9696,-2.9893,-3.0071,-3.0242,-3.0401,-3.0506,-3.0544,-3.0544,-3.0635,-3.0787,-3.0787,-3.036,-2.9564,-2.9572,-2.9814,-3.0247,-3.0247,-3.0164,-3.009,-3.0186,-3.0359,-3.0564,-3.0448,-3.0286,-3.0075,-2.9969,-2.9748,-2.9454,-2.9351,-2.916,-2.8994,-2.8994,-2.8815,-2.854,-2.842,-2.8471,-2.854,-2.854,-2.8749,-2.8994,-2.8994,-2.8994,-2.8994,-2.8994,-2.8994,-2.8994,-2.8994,-2.8994,-2.8994,-2.8994,-2.8994,-2.8994,-2.8994,-2.8994,-2.8994,-2.8994,-2.8998,-2.9003,-2.9003,-2.9007,-2.8994,0.0,-2.8996,-2.855,-2.7379,-2.6896,-2.6705,0.0,0.0,0.0,0.0,-2.6248,-2.5244,-2.3651,-2.3599,-2.3593,-2.3596,-2.3007,-2.2855,-2.3088,-2.3081,-2.3117,-2.313,-2.3121,-2.121,-1.7985,-1.8001,-1.7965,-1.8008,-1.8008,-1.8008,-1.8008,-1.8008,-1.8203,-1.8536,-1.9441,-2.0978,-2.2788,-2.4528,-2.4339,-2.419,-2.419,-2.4054,-2.4335,-2.5532,-2.5868,-2.6471,-2.7834,-2.8613,-2.9129,-2.9249,-2.9664,-2.9954,-3.002,-2.9975,-2.995,-2.9976,-3.0156,-3.0316,-3.0385,-3.0477,-3.0558,-3.0597,-3.0597,-3.0664,-3.0806,-3.0873,-3.0901,-3.0901,-3.0911,-3.0821,-3.0658,-3.0673,-3.0569,-3.0398,-3.0487,-3.0506,-3.0506,-3.0417,-3.0241,-2.9999,-2.9908,-2.9661,-2.9392,-2.9267,-2.9134,-2.8994,-2.8994,-2.8749,-2.8394,-2.8394,-2.8272,-2.821,-2.8368,-2.8682,-2.8952,-2.8773,-2.8863,-2.8994,-2.8994,-2.8994,-2.8994,-2.8994,-2.8994,-2.8994,-2.8994,-2.8994,-2.8994,-2.8994,-2.8994,-2.9007,-2.9016,-2.901,-2.901,-2.901,-2.901,-2.873,-2.8026,-2.7942,-2.7624,-2.6774,-2.6708,-2.6715,-2.6715,-2.669,0.0,-2.6683,-2.6266,-2.5717,-2.5029,-2.411,-2.42,-2.541,-2.4745,-2.3972,-2.3122,-2.3081,-2.3078,-2.3078,-2.3119,-2.1522,-1.8753,-1.877,-1.8451,-1.8008,-1.8008,-1.8202,-1.8529,-1.8134,-1.8721,-1.9813,-1.987,-2.1218,-2.3119,-2.4526,-2.4339,-2.419,-2.419,-2.419,-2.4484,-2.5314,-2.6123,-2.6999,-2.8016,-2.8951,-2.9607,-2.9852,-3.0105,-3.0285,-3.0342,-3.0289,-3.0275,-3.0342,-3.0489,-3.0598,-3.0598,-3.0587,-3.0589,-3.0607,-3.0607,-3.065,-3.0694,-3.0837,-3.086,-3.0825,-3.0815,-3.0671,-3.0398,-3.0398,-3.0398,-3.0398,-3.0398,-3.0398,-3.0379,-3.0316,-3.0163,-2.9939,-2.9731,-2.9514,-2.931,-2.9089,-2.8994,-2.8994,-2.8994,-2.8749,-2.8394,-2.8342,-2.8129,-2.7936,-2.8112,-2.8464,-2.8749,-2.8471,-2.8694,-2.9002,-2.8994,-2.8994,-2.8994,-2.8994,-2.8994,-2.8994,-2.8994,-2.9007,-2.9002,-2.9002,-2.8991,-2.901,-2.8993,-2.8781,-2.8647,-2.8662,-2.8861,-2.845,-2.6863,-2.6707,-2.669,-2.6716,-2.6687,-2.6691,-2.6691,-2.6691,-2.6691,-2.6691,-2.5922,-2.5803,-2.659,-2.4829,-2.5083,-2.7565,-2.6213,-2.4696,-2.3103,-2.3221,-2.3185,-2.3078,-2.3078,-2.187,-1.9726,-1.9823,-1.9152,-1.8008,-1.8008,-1.8529,-1.9243,-1.8462,-1.9562,-2.1411,-2.0522,-2.1658,-2.3675,-2.4512,-2.4339,-2.419,-2.419,-2.419,-2.4542,-2.5505,-2.634,-2.7196,-2.8216,-2.9366,-3.0092,-3.0127,-3.037,-3.0535,-3.0557,-3.0545,-3.0533,-3.0552,-3.0529,-3.0535,-3.0593,-3.0541,-3.0546,-3.0611,-3.0665,-3.0693,-3.0707,-3.0831,-3.0768,-3.0487,-3.0475,-3.0444,-3.0398,-3.0398,-3.0398,-3.0398,-3.0398,-3.0398,-3.0367,-2.9964,-2.9791,-2.9712,-2.9532,-2.9289,-2.9062,-2.8998,-2.8994,-2.8994,-2.8994,-2.8749,-2.8368,-2.8075,-2.7954,-2.7783,-2.7129,-2.75,-2.812,-2.8342,-2.8688,-2.9003,-2.9002,-2.8994,-2.8994,-2.8994,-2.8994,-2.8994,-2.8994,-2.901,-2.8982,-2.8982,-2.8999,-2.8999,-2.9013,-2.7915,-2.7075,-2.7066,-2.8174,-2.8415,-2.6874,-2.6684,-2.6685,-2.6723,-2.6691,-2.6691,-2.6691,-2.6691,-2.6691,-2.6691,-2.6703,-2.6547,-2.6102,-2.5571,-2.6055,-2.7573,-2.6533,-2.5012,-2.3122,-2.3791,-2.3767,-2.3078,-2.3078,-2.187,-1.9737,-2.0222,-1.953,-1.8008,-1.8008,-1.8529,-1.9299,-1.9177,-1.9365,-1.989,-2.1129,-2.1684,-2.207,-2.4685,-2.4495,-2.4357,-2.4357,-2.4357,-2.4539,-2.5132,-2.5895,-2.6785,-2.7835,-2.8863,-2.9732,-3.0353,-3.0569,-3.0638,-3.0642,-3.0646,-3.0637,-3.0595,-3.0567,-3.0568,-3.0607,-3.0568,-3.0567,-3.0597,-3.0635,-3.0655,-3.0655,-3.0713,-3.0656,-3.0506,-3.0417,-3.0398,-3.0398,-3.0398,-3.0398,-3.0398,-3.0398,-3.0388,-3.0368,-2.9894,-2.9645,-2.957,-2.9453,-2.9225,-2.8994,-2.8994,-2.8994,-2.897,-2.8749,-2.8438,-2.8102,-2.7954,-2.7589,-2.7272,-2.7317,-2.7457,-2.7648,-2.8047,-2.8568,-2.8993,-2.8991,-2.9009,-2.8994,-2.8994,-2.9009,-2.8998,-2.8998,-2.9013,-2.8757,-2.7924,-2.7769,-2.7763,-2.7752,-2.7169,-2.669,-2.6696,-2.7321,-2.75,-2.6778,-2.6695,-2.6708,-2.6691,-2.6691,-2.6691,-2.6691,-2.7063,-2.7145,-2.6828,-2.7038,-2.6855,-2.624,-2.6516,-2.6748,-2.6913,-2.6513,-2.5494,-2.3901,-2.4169,-2.3884,-2.3078,-2.3078,-2.2323,-2.0911,-2.1192,-2.059,-1.9431,-1.9431,-1.9879,-2.0655,-2.0204,-2.0515,-2.1416,-2.1753,-2.2094,-2.2531,-2.4814,-2.467,-2.4559,-2.4559,-2.4559,-2.4639,-2.4814,-2.5551,-2.6418,-2.7281,-2.8343,-2.9384,-3.0238,-3.0582,-3.0732,-3.0684,-3.0687,-3.0641,-3.0564,-3.0548,-3.0565,-3.0575,-3.0508,-3.0452,-3.0394,-3.0452,-3.0465,-3.0465,-3.0521,-3.0544,-3.0544,-3.0448,-3.0398,-3.0398,-3.0398,-3.0405,-3.0407,-3.0407,-3.0412,-3.0354,-2.9763,-2.951,-2.9506,-2.9349,-2.9178,-2.8994,-2.8994,-2.8929,-2.8797,-2.8496,-2.8183,-2.7897,-2.7783,-2.7334,-2.6939,-2.7487,-2.7378,-2.7241,-2.7648,-2.8116,-2.8542,-2.8909,-2.8982,-2.901,-2.901,-2.9,-2.8917,-2.8532,-2.8467,-2.8105,-2.6924,-2.6685,-2.67,-2.6709,-2.6702,-2.6688,-2.6713,-2.6702,-2.6691,-2.6691,-2.6691,-2.6698,-2.6708,-2.686,-2.6962,-2.6962,-2.7533,-2.7684,-2.7202,-2.7274,-2.7114,-2.6673,-2.7126,-2.7127,-2.6594,-2.6689,-2.6154,-2.4943,-2.4673,-2.4163,-2.3365,-2.3198,-2.2628,-2.1877,-2.1877,-2.1428,-2.059,-2.059,-2.1101,-2.1815,-2.1164,-2.1678,-2.2763,-2.2322,-2.2445,-2.296,-2.4804,-2.479,-2.4775,-2.4775,-2.4775,-2.4828,-2.4962,-2.5767,-2.6473,-2.6721,-2.8345,-2.949,-2.9563,-3.036,-3.0817,-3.0625,-3.0617,-3.0544,-3.0417,-3.0402,-3.0452,-3.0506,-3.0221,-2.9958,-2.9784,-2.9958,-3.0047,-3.0047,-3.0286,-3.0398,-3.0398,-3.0398,-3.0398,-3.0398,-3.0398,-3.0401,-3.0405,-3.0405,-3.0396,-3.0315,-2.942,-2.9226,-2.9485,-2.9152,-2.9017,-2.8994,-2.8994,-2.8749,-2.8446,-2.842,-2.8183,-2.784,-2.7439,-2.7286,-2.721,-2.6873,-2.6758,-2.6841,-2.7224,-2.7126,-2.72,-2.8621,-2.9005,-2.8987,-2.8987,-2.9005,-2.8599,-2.7176,-2.6877,-2.6826,-2.6709,-2.6698,-2.6687,-2.6685,-2.6717,-2.6704,-2.6716,-2.6684,-2.6691,-2.6691,-2.6691,-2.6691,-2.6691,-2.7334,-2.7705,-2.7705,-2.7923,-2.8069,-2.8014,-2.7644,-2.7425,-2.7495,-2.6965,-2.695,-2.7485,-2.7494,-2.7012,-2.5948,-2.5549,-2.4951,-2.4176,-2.3424,-2.2628,-2.1877,-2.1877,-2.1428,-2.059,-2.059,-2.1101,-2.1877,-2.1815,-2.1877,-2.2063,-2.2763,-2.2567,-2.2221,-2.4956,-2.4911,-2.4911,-2.4911,-2.4911,-2.4981,-2.5152,-2.5527,-2.5998,-2.6619,-2.7862,-2.8912,-2.9433,-3.0254,-3.0736,-3.06,-3.055,-3.0343,-2.9859,-3.019,-3.0343,-3.0188,-3.0061,-2.9908,-2.9713,-2.9763,-2.9877,-2.9999,-3.0089,-3.0241,-3.0398,-3.0184,-3.0207,-3.0398,-3.0414,-3.0383,-3.0357,-2.9775,-2.9545,-2.9513,-2.9133,-2.9084,-2.9152,-2.8773,-2.8773,-2.897,-2.8725,-2.854,-2.8368,-2.8156,-2.7851,-2.7439,-2.7051,-2.6939,-2.6906,-2.6758,-2.6691,-2.6725,-2.6873,-2.6828,-2.6843,-2.7435,-2.7572,-2.7575,-2.7575,-2.7572,-2.7412,-2.6822,-2.6719,-2.6686,-2.6686,-2.6707,-2.6691,-2.672,-2.6707,-2.6707,-2.672,-2.6707,-2.659,-2.6297,-2.6505,-2.659,-2.6297,-2.6875,-2.7234,-2.7234,-2.7842,-2.8078,-2.7708,-2.7565,-2.7538,-2.761,-2.732,-2.737,-2.7625,-2.7625,-2.7174,-2.6318,-2.57,-2.5007,-2.4292,-2.3484,-2.2944,-2.2628,-2.2628,-2.2445,-2.2175,-2.2175,-2.2372,-2.2628,-2.2628,-2.2628,-2.2689,-2.3005,-2.2884,-2.2776,-2.513,-2.5099,-2.5099,-2.5099,-2.5118,-2.5171,-2.5312,-2.5409,-2.5678,-2.6283,-2.7202,-2.8139,-2.9007,-2.9824,-3.0392,-3.054,-3.0519,-3.0266,-2.9696,-2.998,-3.0095,-2.9908,-2.9845,-2.9712,-2.9494,-2.9551,-2.9678,-2.9813,-2.9877,-3.0003,-3.0188,-2.9988,-2.9984,-3.0098,-3.0009,-2.9961,-2.9907,-2.927,-2.8987,-2.9005,-2.9005,-2.8868,-2.864,-2.846,-2.8515,-2.8626,-2.8446,-2.8246,-2.8029,-2.7936,-2.753,-2.7051,-2.6791,-2.6691,-2.6691,-2.6691,-2.6691,-2.6691,-2.6691,-2.6687,-2.671,-2.671,-2.6678,-2.6705,-2.6705,-2.6695,-2.671,-2.671,-2.6704,-2.6691,-2.6691,-2.6691,-2.659,-2.6285,-2.6319,-2.6351,-2.6229,-2.6245,-2.6087,-2.5779,-2.6175,-2.638,-2.6089,-2.6798,-2.7306,-2.7322,-2.7955,-2.8105,-2.7485,-2.7554,-2.7625,-2.7625,-2.7625,-2.7625,-2.7625,-2.7625,-2.7255,-2.651,-2.5728,-2.5007,-2.4292,-2.3484,-2.3078,-2.3078,-2.3078,-2.3078,-2.3078,-2.3078,-2.3078,-2.3078,-2.3078,-2.3078,-2.3078,-2.3078,-2.3078,-2.3128,-2.5303,-2.5303,-2.5303,-2.5303,-2.537,-2.5409,-2.5409,-2.5505,-2.5601,-2.5611,-2.642,-2.7309,-2.8121,-2.8979,-2.9771,-3.0436,-3.0494,-3.0356,-3.0013,-2.9796,-2.9677,-2.9696,-2.9494,-2.9267,-2.9017,-2.9246,-2.9392,-2.9412,-2.9607,-2.9696,-2.9696,-2.9827,-2.9734,-2.949,-2.9152,-2.8989,-2.9,-2.9018,-2.9,-2.8994,-2.8994,-2.8543,-2.7947,-2.826,-2.8183,-2.7954,-2.8272,-2.7901,-2.7348,-2.7754,-2.7348,-2.6691,-2.6691,-2.6691,-2.6691,-2.6691,-2.6691,-2.6691,-2.6691,-2.6691,-2.6691,-2.6691,-2.6691,-2.6691,-2.6691,-2.6691,-2.6691,-2.6691,-2.6691,-2.6691,-2.6691,-2.6691,-2.6353,-2.536,-2.5471,-2.5579,-2.5243,-2.5221,-2.5221,-2.5182,-2.5652,-2.6036,-2.6166,-2.7355,-2.8135,-2.8286,-2.8434,-2.8238,-2.7625,-2.7625,-2.7625,-2.7625,-2.7625,-2.7625,-2.7625,-2.7625,-2.7255,-2.651,-2.5728,-2.5007,-2.4292,-2.3484,-2.3078,-2.3078,-2.3078,-2.3078,-2.3078,-2.3078,-2.3078,-2.3078,-2.3078,-2.3078,-2.3078,-2.3078,-2.3078,-2.3078,-2.5447,-2.5447,-2.5447,-2.5447,-2.5466,-2.5465,-2.546,-2.5537,-2.5584,-2.5535,-2.6356,-2.7251,-2.8043,-2.883,-2.9462,-2.9834,-2.9826,-2.9578,-2.9038,-2.8403,-2.8206,-2.8636,-2.8864,-2.8997,-2.9017,-2.8565,-2.87,-2.9412,-2.9177,-2.9283,-2.9696,-2.9608,-2.9531,-2.9493,-2.9161,-2.8993,-2.8997,-2.8997,-2.9004,-2.896,-2.8442,-2.8094,-2.7885,-2.7701,-2.7736,-2.7869,-2.7689,-2.75,-2.7334,-2.7439,-2.7115,-2.6691,-2.6691,-2.6691,-2.6691,-2.6691,-2.6691,-2.6691,-2.6691,-2.6691,-2.6691,-2.6691,-2.6691,-2.6691,-2.6691,-2.6691,-2.6691,-2.6691,-2.6691,-2.6691,-2.6719,-2.6683,-2.6372,-2.5336,-2.511,-2.5034,-2.5189,-2.5221,-2.5067,-2.4657,-2.5105,-2.5509,-2.5634,-2.6392,-2.7127,-2.7639,-2.7791,-2.781,-2.7625,-2.7625,-2.7625,-2.7625,-2.7625,-2.7625,-2.7625,-2.7625,-2.7255,-2.651,-2.5728,-2.5007,-2.4292,-2.3484,-2.3078,-2.3078,-2.3078,-2.3078,-2.3078,-2.3078,-2.3078,-2.3078,-2.3078,-2.3078,-2.3078,-2.3078,-2.3078,-2.3078,-2.5507,-2.5492,-2.5492,-2.5492,-2.5513,-2.5542,-2.5536,-2.5602,-2.5595,-2.5434,-2.591,-2.6651,-2.7668,-2.8173,-2.8704,-2.9345,-2.9152,-2.883,-2.8469,-2.7674,-2.7484,-2.8058,-2.7978,-2.8094,-2.8576,-2.812,-2.821,-2.8814,-2.8567,-2.8627,-2.8993,-2.887,-2.8902,-2.9048,-2.9028,-2.9009,-2.8992,-2.9006,-2.8667,-2.8049,-2.7607,-2.7437,-2.7432,-2.7326,-2.7348,-2.7409,-2.7317,-2.721,-2.7083,-2.7241,-2.7019,-2.6691,-2.6691,-2.6691,-2.6691,-2.6691,-2.6691,-2.6691,-2.6691,-2.6505,-2.6318,-2.6318,-2.6505,-2.6691,-2.6691,-2.6691,-2.6691,-2.6691,-2.6691,-2.6704,-2.6692,-2.6036,-2.5266,-2.4665,-2.4634,-2.4658,-2.4576,-2.4592,-2.443,-2.4116,-2.4552,-2.5064,-2.5419,-2.6057,-2.6688,-2.7405,-2.7569,-2.7625,-2.7625,-2.7625,-2.7625,-2.7625,-2.7625,-2.7625,-2.7625,-2.7625,-2.7255,-2.651,-2.5728,-2.5007,-2.4292,-2.3484,-2.3078,-2.3078,-2.3078,-2.3078,-2.3078,-2.3078,-2.3078,-2.3078,-2.3078,-2.3078,-2.3078,-2.3078,-2.3078,-2.3078,-2.5527,-2.5526,-2.5526,-2.5526,-2.557,-2.5609,-2.5609,-2.5664,-2.5604,-2.5325,-2.5282,-2.582,-2.7191,-2.7286,-2.7718,-2.8944,-2.8439,-2.8066,-2.8066,-2.7408,-2.7209,-2.7707,-2.6867,-2.6817,-2.7707,-2.7765,-2.784,-2.7897,-2.7869,-2.7869,-2.7897,-2.7897,-2.8047,-2.836,-2.8764,-2.8927,-2.8889,-2.8826,-2.7975,-2.6707,-2.6713,-2.6636,-2.6636,-2.7072,-2.6987,-2.6674,-2.7115,-2.6987,-2.6758,-2.7115,-2.7004,-2.6657,-2.6691,-2.6691,-2.6691,-2.6691,-2.6691,-2.6691,-2.6657,-2.6197,-2.5707,-2.5639,-2.6094,-2.659,-2.6657,-2.6708,-2.6708,-2.6708,-2.6701,-2.6634,-2.6445,-2.4874,-2.36,-2.3595,-2.4045,-2.4234,-2.3681,-2.3551,-2.3551,-2.3595,-2.4032,-2.4652,-2.5526,-2.6153,-2.681,-2.752,-2.7625,-2.7625,-2.7625,-2.7625,-2.7625,-2.7625,-2.7625,-2.7625,-2.7625,-2.7625,-2.7255,-2.651,-2.5728,-2.5007,-2.4292,-2.3484,-2.3078,-2.3078,-2.3078,-2.3078,-2.3078,-2.3078,-2.3078,-2.3078,-2.3078,-2.3078,-2.3078,-2.3078,-2.3078,-2.309,-2.5661,-2.5659,-2.5659,-2.5659,-2.5673,-2.5685,-2.5685,-2.57,-2.5573,-2.525,-2.522,-2.5818,-2.7371,-2.7107,-2.7343,-2.8596,-2.7695,-2.7031,-2.7031,-2.6522,-2.63,-2.642,-2.5806,-2.577,-2.6386,-2.6791,-2.7272,-2.7897,-2.7589,-2.7589,-2.7897,-2.7897,-2.7954,-2.801,-2.8248,-2.8294,-2.8099,-2.7455,-2.7018,-2.6701,-2.6696,-2.6252,-2.5625,-2.6488,-2.6539,-2.6227,-2.6674,-2.6774,-2.6725,-2.6808,-2.6539,-2.6227,-2.6573,-2.6691,-2.6691,-2.6691,-2.6691,-2.6624,-2.6262,-2.6068,-2.577,-2.5078,-2.5212,-2.5728,-2.6508,-2.6714,-2.6714,-2.6714,-2.6705,-2.6211,-2.4579,-2.3909,-2.3611,-2.3586,-2.2907,-2.2644,-2.3463,-2.3187,-2.3054,-2.3551,-2.3724,-2.425,-2.548,-2.6687,-2.7409,-2.7595,-2.7625,-2.7625,-2.7625,-2.7625,-2.7625,-2.7625,-2.7625,-2.7625,-2.7625,-2.7625,-2.7255,-2.651,-2.5728,-2.5007,-2.4292,-2.3484,-2.3078,-2.3078,-2.3078,-2.3078,-2.3078,-2.3078,-2.3078,-2.3078,-2.3078,-2.3078,-2.3078,-2.3078,-2.3078,-2.3203,-2.5664,-2.5684,-2.5703,-2.5703,-2.5703,-2.5666,-2.5526,-2.5514,-2.5378,-2.4964,-2.4905,-2.5263,-2.6225,-2.6335,-2.68,-2.7896,-2.7199,-2.6691,-2.6691,-2.6016,-2.5726,-2.5977,-2.5259,-2.5067,-2.5615,-2.5533,-2.6007,-2.7,-2.679,-2.679,-2.7,-2.7,-2.7238,-2.7607,-2.7526,-2.7644,-2.7847,-2.7026,-2.6683,-2.67,-2.669,-2.6098,-2.5239,-2.5605,-2.5697,-2.5689,-2.6175,-2.6505,-2.6624,-2.6158,-2.598,-2.5997,-2.598,-2.5964,-2.5964,-2.5964,-2.5964,-2.5928,-2.5689,-2.5411,-2.5112,-2.4674,-2.4498,-2.4592,-2.5105,-2.5237,-2.5237,-2.5237,-2.5203,-2.4879,-2.3808,-2.3601,-2.361,-2.3585,-2.2538,-2.1993,-2.2892,-2.2546,-2.2331,-2.2651,-2.2696,-2.3216,-2.4529,-2.6119,-2.7086,-2.7086,-2.6759,-2.6707,-2.7034,-2.7086,-2.6916,-2.6534,-2.6878,-2.693,-2.6534,-2.693,-2.6721,-2.596,-2.5563,-2.5175,-2.4794,-2.3649,-2.3078,-2.3078,-2.3078,-2.3078,-2.3078,-2.3078,-2.3078,-2.3078,-2.3078,-2.3078,-2.3078,-2.3078,-2.3078,-2.3228,-2.5554,-2.5599,-2.5662,-2.5644,-2.5622,-2.5535,-2.5333,-2.5262,-2.5077,-2.467,-2.4615,-2.4701,-2.4922,-2.5654,-2.6392,-2.7134,-2.669,-2.6402,-2.6402,-2.5347,-2.4925,-2.54,-2.4449,-2.422,-2.4894,-2.425,-2.4571,-2.5852,-2.5746,-2.5746,-2.5852,-2.5852,-2.6247,-2.6935,-2.6691,-2.7011,-2.7659,-2.6977,-2.6691,-2.6708,-2.6708,-2.6193,-2.5371,-2.4737,-2.4697,-2.501,-2.5635,-2.6068,-2.6193,-2.5449,-2.5411,-2.5652,-2.5297,-2.5221,-2.5221,-2.5221,-2.5221,-2.5182,-2.5105,-2.4736,-2.4348,-2.4184,-2.3764,-2.3372,-2.3412,-2.3513,-2.3592,-2.3599,-2.3588,-2.345,-2.3024,-2.2934,-2.2956,-2.2956,-2.226,-2.1819,-2.2115,-2.1782,-2.1568,-2.1697,-2.189,-2.2442,-2.3506,-2.5226,-2.6283,-2.6283,-2.5728,-2.5673,-2.6283,-2.6283,-2.6014,-2.5398,-2.6014,-2.6014,-2.5398,-2.6014,-2.6014,-2.5398,-2.5287,-2.5231,-2.5175,-2.3754,-2.3078,-2.3078,-2.3078,-2.3078,-2.3078,-2.3078,-2.3078,-2.3078,-2.3078,-2.3078,-2.3078,-2.3078,-2.3078,-2.3228,-2.5297,-2.5395,-2.5483,-2.537,-2.5303,-2.5269,-2.53,-2.5095,-2.4873,-2.4633,-2.4615,-2.4761,-2.5199,-2.5949,-2.6542,-2.6756,-2.5829,-2.5212,-2.5212,-2.3762,-2.2893,-2.2966,-2.2369,-2.2593,-2.3704,-2.3054,-2.3598,-2.5297,-2.4721,-2.4721,-2.5297,-2.5297,-2.5357,-2.5508,-2.5908,-2.6358,-2.687,-2.6759,-2.6689,-2.6695,-2.6695,-2.6606,-2.6294,-2.4451,-2.3772,-2.3946,-2.4955,-2.5051,-2.4776,-2.5105,-2.495,-2.4657,-2.5067,-2.5221,-2.5221,-2.5221,-2.5221,-2.5105,-2.4617,-2.4471,-2.4168,-2.3172,-2.2757,-2.2548,-2.2569,-2.3113,-2.3621,-2.36,-2.3599,-2.2915,-2.071,-2.0321,-2.0301,-2.0301,-2.111,-2.158,-2.1301,-2.1089,-2.1113,-2.1663,-2.2663,-2.3409,-2.3575,-2.4801,-2.5563,-2.5563,-2.5453,-2.5453,-2.5563,-2.5563,-2.5508,-2.5398,-2.5508,-2.5508,-2.5398,-2.5508,-2.5508,-2.5398,-2.4738,-2.4452,-2.4408,-2.3543,-2.3078,-2.3078,-2.3078,-2.3078,-2.3078,-2.3078,-2.3078,-2.3078,-2.3078,-2.3078,-2.3078,-2.3078,-2.3078,-2.3228,-2.4989,-2.5094,-2.5149,-2.5087,-2.5041,-2.4996,-2.493,-2.4818,-2.4575,-2.414,-2.3631,-2.345,-2.3807,-2.4769,-2.5473,-2.573,-2.5287,-2.4743,-2.4085,-2.3067,-2.2493,-2.2493,-2.1983,-2.1965,-2.2457,-2.1843,-2.2108,-2.3258,-2.3256,-2.3598,-2.4246,-2.4246,-2.4585,-2.5221,-2.5449,-2.5761,-2.6171,-2.6545,-2.6693,-2.6595,-2.5459,-2.4987,-2.4873,-2.3925,-2.3595,-2.3667,-2.4138,-2.4552,-2.4776,-2.443,-2.4348,-2.4389,-2.4307,-2.4085,-2.3861,-2.4225,-2.4085,-2.3834,-2.3948,-2.3948,-2.3736,-2.292,-2.262,-2.2395,-2.1824,-2.2118,-2.2749,-2.3467,-2.247,-2.1117,-2.0009,-1.9785,-1.9785,-1.9785,-2.027,-2.0703,-2.0895,-2.0531,-2.0333,-2.062,-2.207,-2.2897,-2.2497,-2.3872,-2.4794,-2.4794,-2.4394,-2.4323,-2.4738,-2.4794,-2.4553,-2.4163,-2.4553,-2.4553,-2.4092,-2.4553,-2.4553,-2.4105,-2.4221,-2.4292,-2.4292,-2.3484,-2.3078,-2.3078,-2.3078,-2.3078,-2.3078,-2.3078,-2.3078,-2.3078,-2.3078,-2.3078,-2.3078,-2.3078,-2.3078,-2.3228]}]]